[[[{"header":{"parameterUnit":"kt","parameterCategory":2,"dx":1,"dy":1,"la1":29.285339999999998,"la2":30.599998999999997,"lo1":-89.70041500000002,"lo2":-87.6738589999976,"nx":112,"ny":82,"refTime":"2022-09-28T06:00:00:Z","depth":0,"parameterNumber":1,"parameterNumberName":"U-component_of_WINDS"},"data":[15.8963,16.1174,16.2003,15.4927,15.4885,15.482,14.7585,14.7496,14.8722,14.8196,14.9995,15.2123,15.3743,15.1662,0.0,0.0,0.0,0.0,0.0,15.2144,15.306,15.2667,15.4679,15.7306,16.0385,16.1729,16.3339,16.5393,16.6011,16.6101,16.5605,16.587,16.495,16.2552,16.1213,15.9659,15.7784,15.6468,15.5829,15.5793,15.6294,15.6934,15.7806,15.9122,16.0148,16.0963,16.0963,16.1196,16.1566,16.1137,16.1159,16.1566,16.1566,16.1333,16.0963,16.0963,16.0963,16.1079,16.182,16.3216,16.4749,16.5601,16.7055,16.8548,16.8548,16.8548,16.8606,16.9129,16.8897,16.8606,16.9129,16.6938,16.531,16.7908,16.6531,16.7015,17.5637,17.7461,17.9239,18.5395,18.6612,18.5839,18.3521,18.307,18.1942,17.8593,17.8078,17.8207,17.8786,18.0074,18.146,18.2942,18.4809,18.7191,19.0025,19.3631,19.6753,19.9036,20.0585,20.1938,20.3518,20.3518,20.3518,20.3518,20.3518,20.3518,20.3518,20.3518,20.3518,20.3518,20.3518,20.3518,15.6267,15.828,15.8847,15.0742,15.0808,15.1179,14.4428,14.4734,14.6355,14.5829,14.9272,15.1723,14.9585,14.9759,0.0,0.0,0.0,0.0,0.0,15.0105,15.1141,15.1034,15.415,15.782,16.185,16.1673,16.1904,16.3234,16.395,16.3956,16.3168,16.3394,16.2776,16.1224,15.8884,15.7283,15.641,15.556,15.5095,15.5153,15.6026,15.6876,15.7748,15.9064,16.0148,16.0963,16.0963,16.0963,16.0963,16.0963,16.0963,16.0963,16.0963,16.0963,16.0963,16.0963,16.0963,16.1079,16.182,16.3178,16.4865,16.6182,16.75,16.8548,16.8548,16.8548,16.8548,16.8548,16.8548,16.8548,16.8548,16.688,16.5833,16.8024,16.7638,16.8762,17.5911,17.8268,18.0536,18.5588,18.6612,18.571,18.2813,18.1911,18.0783,17.84,17.8078,17.8078,17.8078,17.9302,18.059,18.1556,18.2877,18.4938,18.7771,19.0958,19.4597,19.8298,20.0426,20.1779,20.2745,20.3324,20.3518,20.3518,20.3518,20.3518,20.3518,20.3518,20.3518,20.3518,20.3518,20.3518,15.3307,15.2559,15.1944,14.4757,14.5152,14.651,14.3573,14.6247,14.8943,14.7496,15.0652,15.2654,14.9377,15.1048,0.0,0.0,0.0,0.0,0.0,14.7111,14.8997,15.1443,15.4532,15.9178,16.6192,15.9583,15.7382,16.3456,15.9531,15.7496,15.8933,15.9672,15.9124,15.7086,15.5793,15.5095,15.5037,15.5095,15.5095,15.5153,15.769,15.8948,15.9064,16.0323,16.0905,16.0963,16.0963,16.0963,16.0963,16.0963,16.0963,16.0963,16.0963,16.0963,16.0963,16.0963,16.0963,16.0963,16.0963,16.2613,16.4865,16.624,16.75,16.8548,16.8548,16.8548,16.8548,16.8548,16.8548,16.8548,16.8548,16.7558,16.6918,16.8314,16.9862,17.2275,17.6661,17.999,18.2947,18.5941,18.6548,18.5582,18.2748,18.1105,17.9688,17.8271,17.8078,17.8078,17.8078,17.9237,18.0139,18.0203,18.1396,18.3457,18.6354,18.7964,19.1087,19.6722,19.9619,20.1362,20.1392,20.2745,20.3354,20.3518,20.3518,20.3518,20.3518,20.3518,20.3518,20.3518,20.3518,20.3518,14.7956,14.9469,15.0939,14.5721,14.743,14.9361,14.5326,14.5369,14.675,14.8482,14.9798,0.0,0.0,0.0,15.0267,14.8605,0.0,14.9992,14.7886,15.1503,15.539,15.8134,15.9288,16.0917,16.3833,16.3475,16.3521,16.4737,16.0266,15.7909,15.8955,15.8314,15.7207,15.5712,15.5328,15.463,15.3735,15.463,15.5095,15.5153,15.6817,15.8133,15.9006,15.9355,16.009,16.0963,16.0963,16.0963,16.0963,16.0963,16.0963,16.0963,16.0963,16.0963,16.0963,16.0963,16.0963,16.1079,16.1936,16.3295,16.5019,16.7268,16.8257,16.8548,16.8548,16.8548,16.8548,16.8548,16.8548,16.8548,16.8548,16.7558,16.749,17.0908,17.14,17.2889,17.9466,18.0727,18.1493,18.4464,18.4229,18.2877,18.1105,18.043,17.9688,17.8271,17.8078,17.8078,17.8078,17.84,17.9044,18.0074,18.059,18.2362,18.629,18.7964,19.0282,19.3921,19.6722,19.9233,20.1362,20.0778,20.1006,20.1972,20.1972,20.1972,20.1972,20.2903,20.3518,20.3518,20.3518,20.3518,14.5458,14.6444,14.7956,14.412,14.651,14.8548,14.4208,14.458,14.6224,14.7365,0.0,0.0,0.0,0.0,0.0,0.0,15.0628,15.1981,15.0333,15.5059,15.9696,16.2593,16.5557,16.6708,16.5071,16.3975,16.4147,16.6021,15.9733,15.6262,15.7333,15.6643,15.5619,15.4374,15.4316,15.42,15.4025,15.527,15.62,15.6759,15.8039,15.9064,15.9821,15.9821,16.0228,16.0963,16.0963,16.0963,16.0963,16.0963,16.0963,16.0963,16.0963,16.0963,16.0963,16.0963,16.0963,16.1137,16.2306,16.3586,16.4981,16.7093,16.8082,16.8548,16.8548,16.8548,16.8548,16.8548,16.8548,16.8431,16.7849,16.7558,16.7901,16.9873,17.1606,17.4003,17.835,18.0133,18.1493,18.3208,18.2877,18.1654,17.9624,17.9302,17.898,17.8142,17.8078,17.8078,17.8078,17.8078,17.8336,17.9237,17.9302,18.101,18.5324,18.7031,18.9316,19.2827,19.495,19.7301,19.9426,19.9426,19.9843,20.1392,20.1392,20.1813,20.2358,20.3131,20.3518,20.3518,20.3518,20.3518,14.4274,14.3419,14.3988,14.1578,14.3814,14.5852,14.2696,0.0,14.7473,14.6812,0.0,14.9351,14.7468,0.0,0.0,14.8102,15.1453,15.4196,15.3874,15.8831,16.343,16.5877,17.1637,17.3471,16.8569,16.3087,16.1685,16.6029,15.8303,15.3909,15.5037,15.4979,15.4374,15.3211,15.3327,15.3967,15.5095,15.6585,15.7864,15.9006,16.0323,16.0963,16.0963,16.0963,16.0963,16.0963,16.0963,16.0963,16.0963,16.0963,16.0963,16.0963,16.0963,16.0963,16.0963,16.0963,16.0963,16.1137,16.2481,16.3702,16.4865,16.6357,16.7617,16.8548,16.8548,16.8548,16.8548,16.8548,16.8548,16.8257,16.688,16.7558,16.8332,16.7559,17.1432,17.5478,17.6047,17.9241,18.2104,18.2104,18.1976,18.101,17.8529,17.8078,17.8078,17.8078,17.8078,17.8078,17.8078,17.8078,17.8078,17.8078,17.8078,17.9881,18.4358,18.5904,18.8479,19.2955,19.4339,19.5529,19.6719,19.8298,19.9619,20.0778,20.0972,20.1779,20.3131,20.329,20.3518,20.3518,20.329,20.329,14.0767,14.046,14.1709,14.2324,14.3113,14.4691,0.0,0.0,0.0,15.5804,15.6979,15.6926,15.5588,15.6702,15.7539,15.6711,16.114,16.3845,16.1563,16.7072,17.1128,17.0485,17.1652,17.247,17.2523,16.6471,16.1578,15.9268,15.6387,15.4862,15.5095,15.4142,15.3444,15.3188,15.42,15.4862,15.5095,15.7457,15.8773,15.9006,16.0323,16.0963,16.0963,16.0963,16.0963,16.0963,16.0963,16.0963,16.0963,16.0963,16.0963,16.0963,16.0963,16.0963,16.0963,16.0963,16.0963,16.1254,16.3507,16.44,16.5039,16.7384,16.8315,16.8548,16.8548,16.8548,16.8548,16.8548,16.8548,16.8257,16.688,16.7558,16.9147,17.1632,17.3828,17.637,18.0182,18.0779,18.059,18.059,17.9688,17.8722,17.8142,17.8078,17.8078,17.8078,17.8078,17.8078,17.8078,17.8078,17.8078,17.8078,17.8078,18.0268,18.571,18.6483,18.893,19.4275,19.4757,19.5176,19.5336,19.6753,19.7654,19.7911,19.907,19.9843,20.0036,20.2388,20.3518,20.3518,20.2358,20.2324,13.7808,13.8027,13.9671,13.9693,14.0745,0.0,0.0,14.8374,15.0641,15.5131,15.6414,15.6959,15.7558,15.8584,15.9543,16.0008,16.4295,16.7516,16.7487,17.1128,17.3511,17.2802,17.2697,17.2418,17.1812,16.8571,16.4195,15.8682,15.5722,15.4142,15.4142,15.3502,15.3188,15.3188,15.4397,15.5444,15.6084,15.8039,15.9297,16.0032,16.0614,16.0963,16.0963,16.0963,16.0963,16.0963,16.0963,16.0963,16.0963,16.0963,16.0963,16.0963,16.0963,16.0963,16.0963,16.0963,16.0963,16.1196,16.3004,16.4109,16.4961,16.688,16.8024,16.8548,16.8548,16.8548,16.8548,16.8548,16.8082,16.7229,16.595,16.6589,16.8037,16.9913,17.2458,17.5217,17.8368,17.9086,17.9108,17.9108,17.8529,17.8078,17.8078,17.8078,17.8078,17.8078,17.8078,17.8078,17.8078,17.8078,17.8078,17.8078,17.8722,18.1169,18.6161,18.7224,18.9735,19.4564,19.495,19.495,19.495,19.5756,19.5947,19.5947,19.7461,19.8877,20.0426,20.1036,20.1744,20.2324,20.1779,20.2165,13.5199,13.5967,13.8093,13.7786,13.9232,0.0,14.502,14.7388,15.0134,15.463,15.6396,15.76,15.9288,16.0639,16.1756,16.2658,16.6163,16.9448,17.1386,17.2609,17.3253,17.2995,17.271,17.1602,16.9111,16.8615,16.5837,15.9461,15.5854,15.3724,15.3188,15.3188,15.3188,15.3188,15.4723,15.5967,15.705,15.8599,15.9915,16.0963,16.0963,16.0963,16.0963,16.0963,16.0963,16.0963,16.0963,16.0963,16.0963,16.0963,16.0963,16.0963,16.0963,16.0963,16.0963,16.0963,16.0963,16.1137,16.2306,16.3411,16.4516,16.6066,16.7326,16.8198,16.8431,16.8548,16.8548,16.8548,16.7791,16.6648,16.5368,16.6008,16.7167,16.78,17.0787,17.3956,17.6134,17.7344,17.8142,17.84,17.8271,17.8078,17.8078,17.8078,17.8078,17.8078,17.8078,17.8078,17.8078,17.8078,17.8078,17.8078,17.9366,18.1942,18.6226,18.7964,19.0507,19.479,19.495,19.495,19.495,19.495,19.495,19.495,19.6109,19.7911,20.0619,19.9426,19.965,20.1392,20.1199,20.1972,13.2832,13.4431,13.7588,14.1205,14.1469,0.0,15.3965,15.5609,15.693,16.4089,16.6674,16.7395,16.6603,16.851,16.9934,16.8868,17.1222,17.2738,17.1772,17.1772,17.1479,17.0285,16.9014,16.7595,16.6029,16.4858,16.2288,15.7813,15.7097,15.5776,15.3328,15.3188,15.3188,15.3188,15.5538,15.6934,15.705,15.9471,16.0788,16.0963,16.0963,16.0963,16.0963,16.0963,16.0963,16.0963,16.0963,16.0963,16.0963,16.0963,16.0963,16.0963,16.0963,16.0963,16.0963,16.0963,16.0963,16.1137,16.2306,16.2792,16.3315,16.5775,16.6648,16.6997,16.8198,16.8548,16.8548,16.8548,16.8431,16.8024,16.6706,16.7384,16.875,17.0561,17.2179,17.4532,17.8748,17.883,17.84,17.9688,17.8915,17.8078,17.8078,17.8078,17.8078,17.8078,17.8078,17.8078,17.8078,17.8078,17.8078,17.8078,17.9366,18.1942,18.6226,18.7964,19.0507,19.479,19.495,19.495,19.495,19.495,19.495,19.495,19.5176,19.5916,19.7525,19.7494,19.8684,20.1392,20.0036,20.0972,12.9696,13.2327,13.5812,13.8443,0.0,0.0,15.2386,15.5806,15.8809,16.4633,16.7048,16.8212,16.8711,16.9705,17.0578,17.0771,17.1801,17.2059,17.0707,17.0543,17.0285,16.9799,16.9188,16.728,16.3428,16.3989,16.1864,15.5391,15.7847,15.778,15.3433,15.3188,15.3502,15.4316,15.6119,15.7399,15.8191,16.0032,16.0963,16.0963,16.0963,16.0963,16.0963,16.0963,16.0963,16.0963,16.0963,16.0963,16.0963,16.0963,16.0963,16.0963,16.0963,16.0963,16.0963,16.0963,16.0963,16.1021,16.1508,16.2132,16.3025,16.4865,16.595,16.6822,16.814,16.8548,16.8548,16.8548,16.8548,16.8257,16.688,16.8264,17.0464,17.2284,17.5016,17.8051,18.0844,18.0332,18.001,18.2233,18.1525,18.0268,17.943,17.9302,17.9044,17.8142,17.8078,17.8078,17.8078,17.8078,17.8078,17.8078,17.9366,18.1589,18.5066,18.7449,19.0218,19.3664,19.4597,19.495,19.495,19.495,19.495,19.495,19.495,19.5369,19.5949,19.5949,19.6881,19.8813,20.0006,20.1551,12.8183,0.0,0.0,0.0,0.0,0.0,15.3044,15.699,16.0384,16.4633,16.6695,16.8147,16.9485,16.9963,17.0414,17.1029,17.1093,17.0771,16.9834,16.9734,16.9734,16.9734,16.8996,16.6916,16.2835,16.4235,16.2299,15.4877,15.937,15.9762,15.3479,15.3898,15.4517,15.5131,15.641,15.769,15.9006,16.0323,16.0963,16.0963,16.0963,16.0963,16.0963,16.0963,16.0963,16.0963,16.0963,16.0963,16.0963,16.0963,16.0963,16.0963,16.0963,16.0963,16.0963,16.0963,16.0963,16.0963,16.0963,16.1508,16.2422,16.3702,16.5019,16.6299,16.7617,16.8257,16.8548,16.8548,16.8548,16.8315,16.7384,16.872,17.0991,17.3426,17.647,17.949,18.2318,18.2104,18.1976,18.4036,18.3328,18.1976,18.0976,18.0461,17.9817,17.8786,17.8336,17.8078,17.8078,17.8078,17.8078,17.8078,17.9366,18.1203,18.365,18.6838,18.9832,19.2247,19.4017,19.495,19.495,19.495,19.495,19.495,19.495,19.495,19.495,19.495,19.5756,19.7105,19.9619,20.1744,0.0,0.0,0.0,14.697,14.9206,15.1507,16.0056,16.212,16.3166,16.6447,16.8247,16.9344,16.9614,17.0707,17.1158,16.9963,16.9799,16.9705,16.9734,16.9734,16.9734,16.9734,16.7214,16.5493,16.5341,16.5402,16.3147,15.7546,16.2173,16.1729,15.3584,15.5708,15.6505,15.5202,15.641,15.769,15.9006,16.0323,16.0963,16.0963,16.0963,16.0963,16.0963,16.0963,16.0963,16.0963,16.0963,16.0963,16.0963,16.0963,16.0963,16.0963,16.0963,16.0963,16.0963,16.0963,16.0963,16.0963,16.0963,16.0963,16.1159,16.2364,16.3644,16.4923,16.624,16.7558,16.8548,16.8548,16.8548,16.8548,16.8489,16.8508,16.974,17.4205,17.5374,17.7124,18.3122,18.4358,18.4358,18.4423,18.3328,18.2298,18.2233,18.1105,18.0203,18.0139,17.898,17.8078,17.8078,17.8078,17.8078,17.8078,17.9366,18.0783,18.2233,18.629,18.9381,19.0863,19.3438,19.495,19.495,19.495,19.495,19.495,19.495,19.495,19.495,19.495,19.5756,19.7139,19.862,20.0809,13.2766,13.8093,14.3551,14.9427,15.3743,15.7335,16.0228,16.3147,16.5699,16.7352,16.7805,16.8388,16.9907,16.98,16.9492,16.9663,16.9734,16.9734,16.9734,16.9734,16.9734,16.9734,16.8851,16.7546,16.5615,16.7125,16.595,16.0411,16.516,16.5434,15.8944,15.9468,15.8922,15.6633,15.6858,15.8133,16.0264,16.073,16.0963,16.0963,16.0963,16.0963,16.0963,16.0963,16.0963,16.0963,16.0963,16.0963,16.0963,16.0963,16.0963,16.0963,16.0963,16.0963,16.0963,16.0963,16.0963,16.0963,16.0963,16.0963,16.1137,16.2306,16.2967,16.376,16.595,16.688,16.7442,16.8257,16.8548,16.8548,16.8548,16.8548,16.9958,17.5459,17.8378,18.0957,18.5043,18.5904,18.5904,18.5904,18.5517,18.4873,18.3907,18.3328,18.2684,18.1718,18.0396,17.9495,17.9495,17.8658,17.8078,17.8078,17.8464,17.9366,18.0783,18.4873,18.7964,18.9381,19.2922,19.495,19.495,19.495,19.495,19.495,19.495,19.495,19.495,19.5916,19.7139,19.8457,20.0006,20.1779,13.5068,14.0657,14.5786,15.232,15.7031,16.0425,16.1477,16.4725,16.746,16.7267,16.7751,16.8535,16.9543,16.856,16.8067,16.9499,16.9734,16.9734,16.9734,16.9734,16.9734,16.9734,16.9734,16.8967,16.7125,16.8582,16.7753,16.3179,16.7129,16.7248,16.1601,16.2236,16.109,15.7379,15.8046,15.8826,15.9566,16.0497,16.0963,16.0963,16.0963,16.0963,16.0963,16.0963,16.0963,16.0963,16.0963,16.0963,16.0963,16.0963,16.0963,16.0963,16.0963,16.0963,16.0963,16.0963,16.0963,16.0963,16.0963,16.0963,16.1079,16.182,16.2364,16.3025,16.469,16.5833,16.6764,16.7617,16.814,16.8548,16.8548,16.8548,16.9505,17.335,17.7488,18.1581,18.5716,18.6612,18.6612,18.6612,18.6612,18.6354,18.5388,18.4809,18.4165,18.3263,18.1396,18.0203,18.0203,17.898,17.8078,17.8078,17.8078,17.84,17.9366,18.3328,18.6483,18.7868,19.1957,19.437,19.4983,19.495,19.495,19.495,19.495,19.495,19.495,19.6333,19.7847,19.9229,20.0813,20.2165,13.6799,14.1446,14.6138,15.5938,15.9464,16.1214,16.3818,16.6737,16.8221,16.6285,16.7983,16.9524,16.8489,16.7192,16.6996,16.9305,16.9734,16.9734,16.9734,16.9734,16.9734,16.9734,16.9734,16.9734,16.9734,16.9734,16.8553,16.5827,16.8171,16.7367,16.2076,16.4081,16.2991,15.7647,15.9878,15.9895,15.7337,15.9755,16.0963,16.0963,16.0963,16.0963,16.0963,16.0963,16.1036,16.1125,16.1036,16.0963,16.0963,16.0963,16.0963,16.0963,16.0963,16.0963,16.0963,16.0963,16.0963,16.0963,16.0963,16.0963,16.0963,16.0963,16.1703,16.2618,16.2676,16.44,16.6415,16.6473,16.7442,16.8431,16.8315,16.8431,16.8489,16.8431,17.3092,17.9094,18.4846,18.6293,18.6421,18.658,18.6612,18.6612,18.6612,18.5517,18.4616,18.4616,18.2169,18.0396,18.0396,17.9173,17.8271,17.8271,17.8271,17.8271,17.8271,18.204,18.5131,18.6612,19.0637,19.3535,19.4983,19.495,19.495,19.495,19.495,19.495,19.495,19.6495,19.7878,19.9229,20.0778,20.2131,14.4685,15.1968,15.6875,16.1609,16.4001,16.4988,16.4541,16.5974,16.7197,16.6645,16.676,16.701,16.7421,16.7153,16.7535,16.9363,16.9734,16.9734,16.9734,16.9734,16.9734,16.9734,16.9734,16.9734,16.9734,16.9734,16.938,16.8675,16.9293,16.9119,16.7634,16.6192,16.3864,16.0382,16.0868,16.0841,16.0253,16.0727,16.0963,16.0963,16.0963,16.0963,16.0963,16.0963,16.2089,16.4023,16.1893,16.0963,16.0963,16.0963,16.0963,16.0963,16.0963,16.0963,16.0963,16.0963,16.0963,16.0963,16.0963,16.0963,16.0963,16.0963,16.1137,16.1566,16.2422,16.3178,16.3876,16.4865,16.6066,16.6822,16.5891,16.7093,16.8257,16.7326,17.2374,17.7883,17.9474,18.1615,18.3932,18.6197,18.6612,18.6612,18.6612,18.629,18.6097,18.6097,18.4551,18.3392,18.3392,18.2135,18.1234,18.1234,18.1234,18.1234,18.1234,18.3199,18.5517,18.8061,19.025,19.2505,19.4788,19.495,19.495,19.495,19.495,19.495,19.495,19.7461,19.8877,19.9229,20.1809,20.3097,14.2308,15.1442,15.9242,16.3424,16.5093,16.5488,16.4607,16.5645,16.6592,16.5908,16.6001,16.6469,16.7082,16.6657,16.7015,16.9327,16.9155,16.8961,16.9605,16.9734,16.9734,16.9734,16.9734,16.9734,16.9734,16.9734,16.9734,16.9734,16.9734,16.9734,16.9734,16.82,16.6011,16.3241,16.3004,16.3032,16.3139,16.2905,16.2827,16.2827,16.2827,16.2827,16.2827,16.2827,16.3726,16.5133,16.3547,16.2089,16.0963,16.0963,16.0963,16.0963,16.0963,16.0963,16.0963,16.0963,16.0963,16.0963,16.0963,16.0963,16.0963,16.0963,16.0963,16.1079,16.1703,16.2306,16.285,16.3586,16.5135,16.6415,16.5717,16.7035,16.8315,16.7617,17.1543,17.5828,17.7179,17.9921,18.301,18.6005,18.6612,18.6612,18.6612,18.6612,18.6612,18.6612,18.5388,18.4487,18.4487,18.3199,18.2298,18.2298,18.2298,18.2298,18.2298,18.365,18.571,18.8576,19.0122,19.2118,19.4757,19.495,19.495,19.495,19.495,19.5369,19.5916,19.8071,19.9619,20.0263,20.2552,20.3518,13.7909,14.7562,15.7754,16.3121,16.4476,16.4476,16.4476,16.5645,16.6303,16.4765,16.5488,16.6579,16.6919,16.5958,16.6004,16.9055,16.8439,16.8059,16.9541,16.9734,16.9734,16.9734,16.9734,16.9734,16.9734,16.9734,16.9734,16.9734,16.9734,16.9734,16.9734,16.9734,16.8377,16.5523,16.5659,16.5855,16.5956,16.59,16.58,16.58,16.58,16.58,16.5835,16.6219,16.6333,16.6333,16.5975,16.4415,16.2089,16.2089,16.1835,16.1528,16.1528,16.1272,16.0963,16.0963,16.0963,16.0963,16.0963,16.0963,16.0963,16.0963,16.0963,16.0963,16.0963,16.1645,16.2481,16.2481,16.4167,16.6066,16.6066,16.7209,16.8257,16.8257,17.0694,17.385,17.6826,17.9921,18.301,18.6005,18.6612,18.6612,18.6612,18.6612,18.6612,18.6612,18.5582,18.4745,18.4745,18.365,18.2877,18.2877,18.2877,18.2877,18.2877,18.3843,18.571,18.8576,18.9928,19.186,19.4564,19.4983,19.495,19.495,19.495,19.5756,19.7074,19.8457,20.0006,20.1392,20.2938,20.3518,14.9754,15.5913,16.0228,16.3647,16.4476,16.4476,16.4476,16.5645,16.6303,16.4765,16.4673,16.5082,16.5902,16.5512,16.5816,16.8208,16.8022,16.8059,16.9541,16.9734,16.9734,16.9734,16.9734,16.9734,16.9734,16.9734,16.9734,16.9734,16.9734,16.9734,16.9734,16.9734,16.8377,16.5523,16.7643,16.8835,16.8961,16.8863,16.8777,16.8777,16.8777,16.8777,16.8844,17.1214,17.2323,17.2193,16.982,16.8505,16.8029,16.8029,16.6645,16.4486,16.4486,16.3044,16.0963,16.0963,16.0963,16.0963,16.0963,16.0963,16.0963,16.0963,16.0963,16.0963,16.0963,16.1079,16.1275,16.1275,16.2285,16.3411,16.3411,16.5135,16.688,16.688,17.0044,17.385,17.6826,17.9921,18.301,18.6005,18.6612,18.6612,18.6612,18.6612,18.6612,18.6612,18.6419,18.6226,18.6226,18.6032,18.5904,18.5904,18.5904,18.5904,18.5904,18.5002,18.571,18.8576,18.8962,19.0411,19.3213,19.4404,19.495,19.495,19.495,19.5756,19.7074,19.8457,20.0006,20.1392,20.2938,20.3518,14.6452,15.2888,15.8478,16.0582,16.2792,16.4476,16.4476,16.5028,16.5382,16.4607,16.4476,16.4688,16.5643,16.4783,16.4608,16.6859,16.6788,16.6936,16.8382,16.9219,16.9734,16.9734,16.9734,16.9734,16.9734,16.9734,16.9734,16.9734,16.9734,16.9734,16.9734,16.9734,16.9119,16.7694,16.888,17.0271,17.184,17.1784,17.1706,17.1706,17.1706,17.1706,17.1804,17.4695,17.5231,17.3678,17.2293,17.0884,16.949,16.949,16.8709,16.7275,16.5835,16.4379,16.2972,16.1491,16.0963,16.0963,16.0963,16.0963,16.0963,16.0963,16.0963,16.0963,16.0963,16.0963,16.0963,16.0963,16.1762,16.2676,16.2676,16.4632,16.6589,16.6589,16.8682,17.1915,17.6471,17.8678,18.1074,18.5716,18.6612,18.6612,18.6612,18.6612,18.6612,18.6612,18.6612,18.6612,18.6612,18.6612,18.6612,18.6612,18.6612,18.6612,18.6612,18.5968,18.6483,18.8576,18.9445,19.083,19.2891,19.4275,19.495,19.495,19.495,19.6142,19.8298,19.8843,20.0392,20.2552,20.3161,20.3518,14.3674,15.0061,15.6858,15.8897,16.124,16.3292,16.4213,16.4476,16.4476,16.4476,16.4476,16.4674,16.5409,16.4409,16.4043,16.5692,16.5988,16.6405,16.7415,16.8768,16.9734,16.9734,16.9734,16.9734,16.9734,16.9734,16.9734,16.9734,16.9734,16.9734,16.9734,16.9734,16.9734,16.9734,16.9875,17.1184,17.3738,17.4109,17.4062,17.3742,17.441,17.4378,17.39,17.6757,17.6819,17.4695,17.4695,17.3421,17.1378,17.1378,17.1016,17.022,16.7926,16.6358,16.4921,16.2683,16.1491,16.0963,16.0963,16.0963,16.0963,16.0963,16.0963,16.0963,16.0963,16.0963,16.0963,16.0963,16.1624,16.2364,16.2618,16.44,16.6182,16.6182,16.786,17.1,17.6293,17.7988,18.0092,18.5588,18.6612,18.6612,18.6612,18.6612,18.6612,18.6612,18.6612,18.6612,18.6612,18.6612,18.6612,18.6612,18.6612,18.6612,18.6612,18.6612,18.7127,18.819,18.9928,19.1345,19.2537,19.3824,19.479,19.495,19.495,19.6366,19.9263,19.9263,20.0778,20.3518,20.3518,20.3518,15.3044,15.6135,15.8832,16.2858,16.124,15.9687,16.3581,16.4476,16.4476,16.4476,16.4476,16.445,16.4555,16.5121,16.548,16.5215,16.6822,16.7918,16.7601,16.8768,16.9734,16.9734,16.9734,16.9734,16.9734,16.9734,16.9734,16.9734,16.9734,16.9734,16.9734,16.9734,16.9734,16.9734,17.0889,17.218,17.3768,17.5074,17.5048,17.3837,17.6448,17.6324,17.39,17.6757,17.7892,17.7649,17.7649,17.7527,17.7313,17.7313,17.5763,17.3357,17.31,16.9786,16.5168,16.4946,16.3188,16.0963,16.0963,16.0963,16.0963,16.0963,16.0963,16.0963,16.0963,16.0963,16.0963,16.0963,16.1021,16.1333,16.2422,16.376,16.4807,16.4807,16.8817,17.352,17.6755,17.9681,18.2711,18.5973,18.6612,18.6612,18.6612,18.6612,18.6612,18.6612,18.6612,18.6612,18.6612,18.6612,18.6612,18.6612,18.6612,18.6612,18.6612,18.6612,18.6676,18.6805,18.9349,19.0927,19.112,19.244,19.3793,19.4983,19.495,19.6366,19.9263,19.9263,20.0778,20.3518,20.3518,20.3518,14.3599,14.775,15.1902,15.3612,15.736,16.0845,16.1674,16.1872,16.2398,16.4081,16.4476,16.4476,16.4476,16.4256,16.3985,16.3771,16.5369,16.6518,16.6292,16.8224,16.9734,16.9734,16.9734,16.9734,16.9734,16.9734,16.9734,16.9734,16.9734,16.9734,16.9734,16.9734,16.9734,16.9734,17.0964,17.2352,17.3768,17.5184,17.6087,17.6386,17.7527,17.7466,17.6417,17.7527,17.8078,17.8078,17.8078,17.8078,17.8078,17.8078,17.7405,17.6231,17.4441,17.2388,16.9953,16.6472,16.4521,16.3295,16.1565,16.0963,16.0963,16.0963,16.0963,16.0963,16.0963,16.0963,16.0963,16.0963,16.0963,16.1079,16.1566,16.3158,16.4632,16.4632,16.6933,17.0145,17.3938,17.7205,18.0229,18.3308,18.533,18.6612,18.6612,18.6612,18.6612,18.6612,18.6612,18.6612,18.6612,18.6612,18.6612,18.6612,18.6612,18.6612,18.6612,18.6612,18.6612,18.6612,18.8479,18.9574,18.9574,19.1796,19.3277,19.3793,19.4597,19.6366,19.9263,19.9263,20.0778,20.3518,20.3518,20.3518,13.7709,14.1436,14.5655,14.743,15.2888,15.8083,15.9267,15.9176,15.9965,16.3687,16.4476,16.4476,16.4476,16.4204,16.3923,16.3576,16.4896,16.5949,16.6063,16.7773,16.9219,16.967,16.9734,16.9734,16.9734,16.9734,16.9734,16.9734,16.9734,16.9734,16.9734,16.9734,16.9834,17.0285,17.1158,17.2545,17.4412,17.5412,17.6601,17.8078,17.8078,17.8078,17.8078,17.8078,17.8078,17.8078,17.8078,17.8078,17.8078,17.8078,17.8078,17.7831,17.5825,17.4536,17.3261,16.9249,16.668,16.4921,16.29,16.1674,16.0963,16.0963,16.0963,16.0963,16.0963,16.0963,16.0963,16.0963,16.0963,16.0963,16.0963,16.246,16.4051,16.4051,16.5368,16.7941,17.2777,17.5728,17.8616,18.2648,18.5169,18.6612,18.6612,18.6612,18.6612,18.6612,18.6612,18.6612,18.6612,18.6612,18.6612,18.6612,18.6612,18.6612,18.6612,18.6612,18.6612,18.6612,18.7932,18.8705,18.8705,19.0669,19.2183,19.302,19.3888,19.5722,19.862,19.907,20.0422,20.2938,20.3324,20.3518,14.0491,14.0881,14.217,14.8022,14.8351,14.9206,15.6398,15.699,15.7557,16.3227,16.4476,16.4476,16.4476,16.5711,16.6355,16.5208,16.6202,16.722,16.7522,16.7544,16.8124,16.9541,16.9734,16.9734,16.9734,16.9734,16.9734,16.9734,16.9734,16.9734,16.9734,16.9734,17.0285,17.1579,17.1643,17.2995,17.5893,17.5957,17.6601,17.8078,17.8078,17.8078,17.8078,17.8078,17.8078,17.8078,17.8078,17.8078,17.8078,17.8078,17.8078,17.8078,17.7983,17.6324,17.3805,17.3741,17.0087,16.5203,16.5168,16.3331,16.0963,16.0963,16.0963,16.0963,16.0963,16.0963,16.0963,16.0963,16.0963,16.0963,16.0963,16.182,16.2734,16.2734,16.469,16.8287,17.4376,17.6645,17.9301,18.5362,18.658,18.6612,18.6612,18.6612,18.6612,18.6612,18.6612,18.6612,18.6612,18.6612,18.6612,18.6612,18.6612,18.6612,18.6612,18.6612,18.6612,18.6612,18.7932,18.8705,18.8705,18.8769,19.0154,19.2955,19.302,19.4339,19.7139,19.8457,20.0006,20.1358,20.2938,20.3518,13.5722,13.7785,14.0438,14.5237,14.7628,15.0389,15.6595,15.8412,15.9596,16.2423,16.3015,16.3015,16.3015,16.3888,16.4832,16.5468,16.5264,16.5748,16.7845,16.7772,16.8059,16.9541,16.9734,16.9734,16.9734,16.9734,16.9734,16.9734,16.9734,16.9734,16.9734,16.9734,17.0285,17.1579,17.1643,17.2995,17.5893,17.5957,17.6601,17.8078,17.8078,17.8078,17.8078,17.8078,17.8078,17.8078,17.8078,17.8078,17.8078,17.8078,17.8078,17.8078,17.8078,17.7527,17.6479,17.4505,17.2648,17.0486,16.6576,16.4663,16.3582,16.1601,16.0963,16.0963,16.0963,16.0963,16.0963,16.0963,16.0963,16.1382,16.3367,16.4142,16.5141,16.8035,16.8399,16.8971,17.177,17.5058,17.8023,17.999,18.3737,18.6612,18.6612,18.6612,18.6612,18.6612,18.6612,18.6612,18.6612,18.6612,18.6612,18.6612,18.6612,18.6612,18.6612,18.6612,18.6612,18.6612,18.7063,18.732,18.732,18.9156,19.0637,19.1538,19.3373,19.5403,19.7074,19.7491,19.8491,20.0006,20.1358,20.1938,13.241,13.5608,13.8947,14.3791,14.5172,14.7013,15.3373,15.5058,15.5979,15.8543,15.953,16.0187,16.1305,16.2863,16.4518,16.6363,16.4905,16.4914,16.8653,16.7728,16.7451,16.9448,16.9734,16.9734,16.9734,16.9734,16.9734,16.9734,16.9734,16.9734,16.9734,16.9734,17.0543,17.2416,17.2416,17.3832,17.6665,17.676,17.7146,17.8078,17.8078,17.8078,17.8078,17.8078,17.8078,17.8078,17.8078,17.8078,17.8078,17.8078,17.8078,17.8078,17.8078,17.8078,17.7831,17.6043,17.4695,17.3261,16.9686,16.7782,16.6541,16.4745,16.4142,16.3988,16.29,16.2597,16.2344,16.1235,16.0963,16.1601,16.4486,16.5562,16.6937,17.0612,17.0141,16.9608,17.2117,17.5236,17.7813,17.9025,18.3242,18.6612,18.6612,18.6612,18.6612,18.6612,18.6612,18.6612,18.6612,18.6612,18.6612,18.6612,18.6612,18.6612,18.6612,18.6612,18.6612,18.6612,18.6612,18.6612,18.6612,18.8286,18.98,19.0863,19.2569,19.4404,19.6302,19.6302,19.7108,19.8491,19.946,20.0006,13.0152,13.3798,13.7325,14.3002,14.195,14.1293,14.8088,14.8482,14.8614,15.2601,15.4598,15.6439,15.9176,16.2069,16.4845,16.7425,16.5097,16.4635,16.9673,16.7563,16.6521,16.9319,16.9734,16.9734,16.9734,16.9734,16.9734,16.9734,16.9734,16.9734,16.9734,16.9734,17.0929,17.3575,17.3704,17.5086,17.7885,17.8014,17.8078,17.8078,17.8078,17.8078,17.8078,17.8078,17.8078,17.8078,17.8078,17.8078,17.8078,17.8078,17.8078,17.8078,17.8078,17.8078,17.8078,17.8078,17.6386,17.406,17.3868,17.2,16.982,16.9524,16.949,16.9013,16.6333,16.5379,16.4698,16.198,16.1293,16.212,16.5207,16.6775,16.8251,17.1512,17.0874,17.073,17.4962,17.6898,17.8616,18.1576,18.4584,18.6612,18.6612,18.6612,18.6612,18.6612,18.6612,18.6612,18.6612,18.6612,18.6612,18.6612,18.6612,18.6612,18.6612,18.6612,18.6612,18.6612,18.6612,18.6612,18.6612,18.6741,18.8029,19.0637,19.083,19.2118,19.4564,19.4564,19.5336,19.6915,19.6881,19.7718,12.6405,12.9197,13.2548,13.7238,14.3573,14.9032,15.0742,15.0808,15.0545,15.0521,15.1639,15.3151,15.4968,15.7623,16.1214,16.6211,16.4711,16.4472,16.8991,16.7199,16.6521,16.9319,16.9734,16.9734,16.9734,16.9734,16.9734,16.9734,16.9734,16.9734,16.9734,16.9734,17.0478,17.2094,17.3189,17.4605,17.6408,17.7468,17.8078,17.8078,17.8078,17.8078,17.8078,17.8078,17.8078,17.8078,17.8078,17.8078,17.8078,17.8078,17.8078,17.8078,17.8078,17.8078,17.8078,17.8078,17.7618,17.6726,17.4536,17.3325,17.2453,17.0253,16.949,16.9417,16.8709,16.6991,16.5063,16.4415,16.4915,16.6912,17.2093,17.197,17.1715,17.6942,17.6954,17.6043,17.7118,17.9254,18.1243,18.198,18.4584,18.6612,18.6612,18.6612,18.6612,18.6612,18.6612,18.6612,18.6612,18.6612,18.6612,18.6612,18.6612,18.6612,18.6612,18.6612,18.6612,18.6612,18.6612,18.6612,18.6612,18.7675,18.8544,18.9252,19.0315,19.1152,19.186,19.186,19.2569,19.3986,19.495,19.6335,12.6572,13.0173,13.2832,13.2524,13.8114,14.3682,14.3682,14.4668,14.5589,14.5458,14.7102,14.9469,15.2231,15.4598,15.7754,16.2884,16.2698,16.3652,16.86,16.7089,16.6521,16.9319,16.9734,16.9734,16.9734,16.9734,16.9734,16.9734,16.9734,16.9734,16.9734,16.9734,17.0285,17.1579,17.306,17.4476,17.5863,17.7339,17.8078,17.8078,17.8078,17.8078,17.8078,17.8078,17.8078,17.8078,17.8078,17.8078,17.8078,17.8078,17.8078,17.8078,17.8078,17.8078,17.8078,17.8078,17.8078,17.7831,17.6324,17.5732,17.5513,17.3933,17.3453,17.3229,17.1869,17.0387,16.8878,16.755,16.8133,17.0203,17.4712,17.5179,17.5518,18.0111,17.9486,17.7894,17.7894,17.9626,18.1136,18.1136,18.4074,18.6612,18.6612,18.6612,18.6612,18.6612,18.6612,18.6612,18.6612,18.6612,18.6612,18.6612,18.6612,18.6612,18.6612,18.6612,18.6612,18.6612,18.6612,18.6612,18.6612,18.7385,18.8061,18.8705,18.951,19.025,19.0927,19.025,19.0637,19.1989,19.2085,19.3244,12.749,13.2096,13.43,12.9564,13.1385,13.4344,13.4344,13.6164,13.8334,13.9802,14.2367,14.5632,14.9821,15.2165,15.4771,15.8847,15.9989,16.2184,16.7558,16.6526,16.6248,16.9026,16.9348,16.9477,16.967,16.9734,16.9734,16.9734,16.9734,16.9734,16.9734,16.9734,17.0221,17.1351,17.2931,17.4347,17.5571,17.7211,17.8078,17.8078,17.8078,17.8078,17.8078,17.8078,17.8078,17.8078,17.8078,17.8078,17.8078,17.8078,17.8078,17.8078,17.8078,17.8078,17.8078,17.8078,17.8078,17.8078,17.8078,17.8078,17.8078,17.8078,17.8078,17.7588,17.5199,17.4124,17.3357,17.1378,17.1441,17.2822,17.5817,17.7181,17.8611,18.1609,18.0409,17.8546,17.8546,17.9683,18.0663,18.0663,18.3856,18.6612,18.6612,18.6612,18.6612,18.6612,18.6612,18.6612,18.6612,18.6612,18.6612,18.6612,18.6612,18.6548,18.629,18.6483,18.6419,18.5968,18.6161,18.6161,18.5968,18.6161,18.6998,18.8415,18.8383,18.8994,19.0186,18.8994,18.9123,19.0508,18.9316,19.0154,12.4103,12.7534,13.0904,13.1254,13.2832,13.4344,13.4344,13.4673,13.5397,13.6799,13.9408,14.2301,14.5435,14.9272,15.2978,15.6045,15.763,15.967,16.325,16.407,16.5176,16.7601,16.7866,16.8382,16.9605,16.9734,16.9734,16.9734,16.9734,16.9734,16.9734,16.9734,16.9799,16.9963,17.2445,17.3897,17.409,17.6695,17.8078,17.8078,17.8078,17.8078,17.8078,17.8078,17.8078,17.8078,17.8078,17.8078,17.8078,17.8078,17.8078,17.8078,17.8078,17.8078,17.8078,17.8078,17.8078,17.8078,17.8078,17.8078,17.8078,17.8078,17.8078,17.8017,17.7527,17.5701,17.4187,17.6168,17.5929,17.5722,17.8743,17.8659,17.8611,18.1609,18.1986,18.1609,18.1609,18.2765,18.3791,18.3791,18.5296,18.6612,18.6612,18.6612,18.6612,18.6612,18.6612,18.6612,18.6612,18.6612,18.6612,18.6612,18.6612,18.6161,18.4873,18.5904,18.5582,18.3135,18.4101,18.4229,18.3006,18.4165,18.5453,18.6902,18.6934,18.7063,18.7256,18.7063,18.7707,18.9059,18.8834,18.9638,12.6228,12.8956,13.0596,12.8952,13.0181,13.1891,13.1891,13.3161,13.4542,13.5133,13.7567,14.0175,14.2301,14.6247,15.0413,15.4138,15.6571,15.899,16.1652,16.3238,16.5009,16.7704,16.7715,16.8124,16.9541,16.9734,16.9734,16.9734,16.9734,16.9734,16.9734,16.9734,16.9734,16.9734,17.2381,17.3768,17.3768,17.6631,17.8078,17.8078,17.8078,17.8078,17.8078,17.8078,17.8078,17.8078,17.8078,17.8078,17.8078,17.8078,17.8078,17.8078,17.8078,17.8078,17.8078,17.8078,17.8078,17.8078,17.8078,17.8078,17.8078,17.8078,17.8078,17.8078,17.8078,17.716,17.6386,17.7679,17.7513,17.744,17.9608,17.9661,17.9642,18.1825,18.2298,18.2104,18.1332,18.2298,18.3328,18.3328,18.4487,18.571,18.6483,18.6612,18.6612,18.6612,18.6612,18.6612,18.6612,18.6612,18.6612,18.6612,18.5904,18.5195,18.4551,18.4358,18.3392,18.1298,18.2491,18.3006,18.2362,18.2942,18.3972,18.5453,18.6226,18.6612,18.6612,18.6612,18.6934,18.7546,18.7546,18.8351,13.0741,0.0,13.3358,13.0399,13.0773,13.1891,0.0,13.2898,13.3884,13.4279,13.6361,13.8597,14.0394,14.3945,14.8022,15.2075,15.4861,15.7499,16.0325,16.2027,16.4033,16.6998,16.7147,16.758,16.909,16.9512,16.9734,16.9734,16.9734,16.9734,16.9734,16.9734,16.9734,16.9734,17.2059,17.3446,17.3768,17.6309,17.7756,17.8078,17.8078,17.8078,17.8078,17.8078,17.8078,17.8078,17.8078,17.8078,17.8078,17.8078,17.8078,17.8078,17.8078,17.8078,17.8078,17.8078,17.8078,17.8078,17.8078,17.8078,17.8078,17.8078,17.8078,17.8078,17.8078,17.8078,17.8078,17.8078,17.8078,17.8336,17.943,17.9946,18.059,18.1976,18.2298,18.2104,18.1363,18.204,18.2813,18.2813,18.3972,18.5324,18.6419,18.6612,18.6612,18.6612,18.6612,18.6612,18.6612,18.6612,18.6612,18.6612,18.5324,18.4358,18.3972,18.2684,18.1203,17.9817,18.101,18.1654,18.1332,18.1654,18.2393,18.3457,18.4873,18.5775,18.6097,18.6483,18.6612,18.6612,18.6612,18.7191,0.0,13.9035,14.0328,14.1403,13.9802,13.7983,13.7983,13.4981,0.0,13.4016,13.5528,13.7457,14.0197,14.3133,14.6158,14.9272,15.1071,15.3504,15.773,15.9105,16.0881,16.3999,16.5082,16.6135,16.7609,16.8897,16.9734,16.9734,16.9734,16.9734,16.9734,16.9734,16.9734,16.9734,17.1029,17.2416,17.3768,17.5313,17.676,17.8078,17.8078,17.8078,17.8078,17.8078,17.8078,17.8078,17.8078,17.8078,17.8078,17.8078,17.8078,17.8078,17.8078,17.8078,17.8078,17.8078,17.8078,17.8078,17.8078,17.8078,17.8078,17.8078,17.8078,17.8078,17.8078,17.8078,17.8078,17.8078,17.8078,17.8078,17.8142,17.9173,18.059,18.1976,18.2298,18.2684,18.3907,18.4229,18.4294,18.4294,18.5517,18.6483,18.6612,18.6612,18.6612,18.6612,18.6612,18.6612,18.6612,18.6612,18.6612,18.6612,18.5324,18.3907,18.262,18.1169,17.9752,17.8271,17.9559,17.9752,17.84,17.9624,18.0396,18.0525,18.1911,18.3263,18.4616,18.5968,18.6612,18.6612,18.6612,18.6676,13.9452,14.0986,14.1797,14.0526,14.0065,13.9189,13.6559,13.4652,13.3095,13.1825,13.1956,13.3226,13.6186,13.9802,14.3616,14.743,15.0784,15.4138,15.7516,15.9091,16.0367,16.1812,16.3985,16.6328,16.8704,16.8575,16.8382,16.8382,16.7516,16.7451,16.8317,16.8382,16.8382,16.8382,17.0514,17.1901,17.2416,17.4734,17.6215,17.676,17.7627,17.8078,17.8078,17.8078,17.8078,17.8078,17.8078,17.8078,0.0,17.8078,17.8078,17.8078,17.8078,17.8078,17.8078,17.8078,17.8078,17.8078,17.8078,17.8078,17.8078,17.8078,17.8078,17.8078,17.8078,17.8078,17.8078,17.8078,17.8078,17.8078,17.8078,17.8464,17.9237,18.0654,18.1654,18.2491,18.3006,18.3843,18.4487,18.4487,18.4873,18.5582,18.6483,18.6612,18.6612,18.6612,18.6612,18.6612,18.6612,18.6612,18.6612,18.6612,18.4551,18.2555,18.1105,17.9688,17.8658,17.8078,17.8593,17.8593,17.8078,17.8593,17.9302,18.0203,18.0719,18.1718,18.3135,18.365,18.4423,18.5324,18.6226,18.6612,14.3025,14.4537,14.5415,14.434,14.4142,14.3025,13.8684,13.6646,13.4586,13.0641,13.0247,13.1299,13.3884,13.7501,14.1644,14.6378,15.0126,15.3743,15.7516,15.9267,16.0555,16.1521,16.3395,16.5674,16.8345,16.798,16.7544,16.7544,16.6199,16.5877,16.6807,16.7286,16.7351,16.6872,16.9097,17.0578,17.1029,17.3382,17.5056,17.5957,17.6438,17.6953,17.7339,17.7339,17.7339,17.7404,17.7885,17.8078,17.8078,17.8078,17.8078,17.8078,17.8078,17.8078,17.8078,17.8078,17.8078,17.8078,17.8078,17.8078,17.8078,17.8078,17.8078,17.8078,17.8078,17.8078,17.8078,17.8078,17.8078,17.8078,17.8078,17.8078,17.84,17.9881,18.0976,18.1911,18.2813,18.3779,18.4616,18.5066,18.5131,18.5453,18.6419,18.6612,18.6612,18.6612,18.6612,18.6612,18.6612,18.6612,18.6419,18.5968,18.3779,18.1718,18.0332,17.8851,17.8078,17.8078,17.8078,17.8078,17.8078,17.8078,17.8529,17.9495,17.9495,18.0203,18.1654,18.1654,18.2362,18.3843,18.4809,18.5517,14.7891,15.0521,15.232,15.519,15.3767,15.0479,14.6026,14.1687,13.6887,13.1036,13.0925,13.2372,13.4016,13.6624,14.0438,14.6181,14.8417,15.1507,15.7187,15.9201,16.1011,16.3378,16.3217,16.3763,16.5989,16.7018,16.7544,16.7544,16.6199,16.5398,16.5398,16.6743,16.6872,16.5463,16.6807,16.8253,16.967,17.0964,17.306,17.5828,17.4476,17.4541,17.5893,17.5957,17.5957,17.6021,17.7404,17.8078,17.8078,17.8078,17.8078,17.8078,17.8078,17.8078,17.8078,17.8078,17.8078,17.8078,17.8078,17.8078,17.8078,17.8078,17.8078,17.8078,17.8078,17.8078,17.8078,17.8078,17.8078,17.8078,17.8078,17.8078,17.84,17.9817,18.0203,18.0945,18.3843,18.4487,18.4873,18.6354,18.6612,18.6612,18.6612,18.6612,18.6612,18.6612,18.6612,18.6612,18.6612,18.6612,18.6097,18.4616,18.3135,18.1749,18.0268,17.8851,17.8078,17.8078,17.8078,17.8078,17.8078,17.8078,17.8078,17.8078,17.8078,17.8786,18.0203,18.0203,18.0912,18.2298,18.2298,18.307,14.9098,15.1268,15.232,15.519,15.4466,15.1442,14.4931,14.0131,13.5418,12.9544,12.7045,12.7354,13.1846,13.5068,13.8641,14.3376,14.798,15.1926,15.4664,15.7097,15.9526,16.1886,16.2512,16.3292,16.4564,16.6465,16.7129,16.6135,16.3817,16.2851,16.3881,16.4332,16.4332,16.3945,16.5298,16.6264,16.665,16.9061,17.0671,17.1573,17.306,17.4026,17.4476,17.5442,17.5957,17.6021,17.7404,17.8078,17.8078,17.8078,17.8078,17.8078,17.8078,17.8078,17.8078,17.8078,17.8078,17.8078,17.8078,17.8078,17.8078,17.8078,17.8078,17.8078,17.8078,17.8078,17.8078,17.8078,17.8078,17.8078,17.8078,17.8078,17.8142,17.8593,17.943,18.0719,18.2555,18.3779,18.4873,18.6354,18.6612,18.6612,18.6612,18.6612,18.6612,18.6612,18.6612,18.6612,18.6612,18.6612,18.6097,18.4616,18.2329,18.0268,17.8786,17.8336,17.8078,17.8078,17.8078,17.8078,17.8078,17.8078,17.8078,17.8078,17.8078,17.8271,17.8722,17.8722,17.943,18.0847,18.0847,18.1589,14.8374,15.0282,15.1465,15.4335,15.4376,15.2009,14.526,14.0854,13.6141,12.917,12.6342,12.6388,13.0399,13.4037,13.8246,14.3705,14.8045,15.2033,15.5757,15.782,15.9864,16.2394,16.2959,16.3446,16.4336,16.5509,16.545,16.3817,16.1627,16.0661,16.1563,16.2142,16.2464,16.2464,16.3789,16.4561,16.4561,16.6843,16.8546,16.9734,17.08,17.1866,17.2931,17.3832,17.4219,17.4347,17.6309,17.7211,17.7211,17.782,17.8078,17.8078,17.8078,17.8078,17.8078,17.8078,17.8078,17.8078,17.8078,17.8078,17.8078,17.8078,17.8078,17.8078,17.8078,17.8078,17.8078,17.8078,17.8078,17.8078,17.8078,17.8078,17.8078,17.8078,17.8722,17.9752,18.1169,18.2169,18.3199,18.4616,18.5388,18.5775,18.5775,18.6226,18.6419,18.5839,18.5775,18.5775,18.5775,18.526,18.4551,18.3714,18.1525,17.9624,17.8142,17.8078,17.8078,17.8078,17.8078,17.8078,17.8078,17.8078,17.8078,17.8078,17.8078,17.8078,17.8078,17.8078,17.8529,17.9366,17.9366,17.9817,14.6247,14.8088,14.9798,15.2798,15.3456,15.1812,14.5961,14.2476,13.8027,12.9301,12.7591,12.8118,12.9392,13.3621,13.9035,14.5655,14.8482,15.2231,15.9044,16.0096,16.1214,16.4081,16.3941,16.4031,16.4802,16.4428,16.3337,16.1351,16.0035,15.9224,15.915,16.0449,16.1231,16.1112,16.24,16.3108,16.3108,16.4497,16.6521,16.9061,16.7931,16.8739,17.1286,17.1386,17.1515,17.1772,17.4541,17.5828,17.6021,17.7339,17.7949,17.8078,17.8078,17.8078,17.8078,17.8078,17.8078,17.8078,17.8078,17.8078,17.8078,17.8078,17.8078,17.8078,17.8078,17.8078,17.8078,17.8078,17.8078,17.8078,17.8078,17.8078,17.8078,17.8078,17.8078,17.8464,17.9881,18.0203,18.0654,18.204,18.3392,18.4294,18.4294,18.5324,18.5775,18.4487,18.4294,18.4294,18.4294,18.3135,18.2233,18.2169,18.0847,17.9495,17.8142,17.8078,17.8078,17.8078,17.8078,17.8078,17.8078,17.8078,17.8078,17.8078,17.8139,17.8169,17.8169,17.8229,17.8229,17.8169,17.8169,17.8169,14.5458,14.6575,14.697,15.1071,15.1244,14.8877,14.3025,14.0306,13.6559,12.7834,12.6934,12.7789,12.8118,13.4563,14.0657,14.3376,14.8877,15.4203,15.7977,15.9464,16.1214,16.4081,16.3941,16.377,16.3926,16.4503,16.3974,16.1887,16.1509,16.0987,16.043,16.1262,16.1577,16.1204,16.1434,16.1627,16.1627,16.3044,16.4074,16.4654,16.5491,16.6779,16.8482,16.9577,17.0642,17.1708,17.3511,17.4863,17.5927,17.6279,17.7017,17.8078,17.8078,17.8078,17.8078,17.8078,17.8078,17.8078,17.8078,17.8078,17.8078,17.8078,17.8078,17.8078,17.8078,17.8078,17.8078,17.8078,17.8078,17.8078,17.8078,17.8078,17.8078,17.8078,17.8078,17.8464,17.9881,18.0203,18.0654,18.204,18.2555,18.2813,18.2813,18.307,18.3135,18.2813,18.2813,18.2813,18.2813,18.2491,18.1911,18.0783,17.9366,17.84,17.8078,17.8078,17.8078,17.8078,17.8078,17.8078,17.8078,17.8078,17.8078,17.8078,17.8592,17.8832,17.8832,17.934,17.934,17.8832,17.8832,17.8832,14.309,14.4514,14.5566,14.7891,14.8417,14.7365,14.3616,14.2213,13.9583,13.2306,13.0859,13.088,13.088,13.6251,14.1644,14.4494,14.9929,15.4795,15.7648,15.87,16.0187,16.3055,16.3217,16.3194,16.3653,16.4082,16.3526,16.1507,16.1056,16.119,16.1712,16.1511,16.1541,16.1985,16.1985,16.1985,16.1985,16.2434,16.298,16.3653,16.4149,16.5245,16.6909,16.7684,16.8753,17.0173,17.1883,17.3101,17.3926,17.4932,17.5582,17.5987,17.5987,17.5987,17.5987,17.5987,17.6438,17.7017,17.7017,17.7468,17.782,17.6438,17.5987,17.5987,17.5987,17.5987,17.5987,17.5987,17.6502,17.7017,17.7017,17.7532,17.8078,17.8078,17.8078,17.8271,17.898,17.9173,17.943,18.0139,18.0847,18.1298,18.1298,18.1878,18.2104,18.1427,18.1298,18.1298,18.1298,18.0719,18.001,17.9237,17.8529,17.8078,17.8078,17.8078,17.8078,17.8078,17.8078,17.8078,17.8078,17.8078,17.8078,17.8078,17.8712,17.9042,17.9042,17.9696,17.9844,17.9489,17.9489,17.9489,14.0856,14.2481,14.3988,14.4514,14.5326,14.5655,14.4251,14.412,14.2696,13.7194,13.5725,13.5265,13.4805,13.8816,14.3419,14.697,15.1705,15.5716,15.8108,15.8634,15.9555,16.17,16.216,16.2572,16.3352,16.3627,16.3129,16.1402,16.0536,16.0965,16.3072,16.1649,16.1466,16.2966,16.2925,16.2898,16.2898,16.2362,16.2703,16.3832,16.3403,16.4179,16.6008,16.6008,16.6785,16.8239,16.9976,17.1038,17.1765,17.3451,17.4111,17.4093,17.4093,17.4093,17.4093,17.4093,17.4808,17.572,17.572,17.6463,17.6949,17.4808,17.4034,17.3946,17.3946,17.3857,17.3768,17.3768,17.4669,17.5571,17.5571,17.6631,17.7692,17.7692,17.7885,17.8078,17.8078,17.8078,17.8078,17.8078,17.898,17.9817,17.9817,18.0783,18.1203,18.001,17.9817,17.9817,17.9817,17.8786,17.8078,17.8078,17.8078,17.8078,17.8078,17.8078,17.8139,17.8229,17.826,17.829,17.8411,17.8411,17.8411,17.8411,17.9042,17.937,17.937,18.0021,18.0256,18.0168,18.0168,18.0168,14.1495,14.1218,14.0043,14.2521,14.2389,14.1183,13.978,14.0372,14.0,13.5528,13.7435,13.9145,13.6667,14.285,14.8482,14.9074,15.4902,15.9439,15.9859,16.0977,16.1437,16.0557,16.1568,16.2332,16.2452,16.3609,16.4098,16.3352,16.2031,16.2148,16.4111,16.2005,16.1624,16.3495,16.3137,16.2898,16.2898,16.2818,16.283,16.3025,16.2944,16.3725,16.5209,16.5209,16.599,16.7328,16.7606,16.9177,17.1443,17.1787,17.3283,17.5501,17.5501,17.5501,17.5501,17.5501,17.5218,17.4916,17.4916,17.4628,17.4491,17.5189,17.5059,17.4593,17.4593,17.4211,17.3768,17.3768,17.3897,17.409,17.409,17.512,17.6215,17.6215,17.7146,17.8078,17.8078,17.8078,17.8078,17.8078,17.8207,17.8336,17.8336,17.8529,17.8529,17.8336,17.8336,17.8336,17.8336,17.8142,17.8078,17.8078,17.8078,17.8078,17.8078,17.8078,17.832,17.8892,17.8922,17.9161,17.9726,17.9755,17.9755,17.9755,18.0374,18.0695,18.0695,18.137,18.1399,18.0812,18.0812,18.0812,14.0228,14.0952,14.131,14.1821,14.2002,14.2003,14.1351,14.3635,14.4364,13.9053,14.1425,14.3606,14.0615,14.4494,14.8745,15.0413,15.4006,15.6875,15.7689,15.828,15.8741,15.8938,15.9555,16.0213,16.1042,16.2423,16.3175,16.2943,16.2352,16.2692,16.4344,16.2682,16.2396,16.4072,16.3077,16.2946,16.3732,16.3482,16.3323,16.3323,16.3031,16.3357,16.4237,16.4237,16.5059,16.6429,16.6779,16.774,16.9093,16.9359,17.0505,17.2115,17.2115,17.2607,17.3323,17.3323,17.3673,17.4065,17.4065,17.3373,17.2581,17.3153,17.3153,17.2839,17.2494,17.2112,17.1887,17.1567,17.1995,17.2545,17.2545,17.3639,17.4734,17.4734,17.5828,17.6889,17.6889,17.7468,17.8078,17.8078,17.8078,17.8078,17.8078,17.8078,17.8078,17.8078,17.8078,17.8078,17.8078,17.8078,17.8078,17.8078,17.8078,17.8078,17.8078,17.8411,17.8742,17.9042,17.937,17.9696,17.9992,17.9211,17.8791,17.8791,17.9403,17.9721,17.9721,18.1207,18.1773,18.1514,18.1514,18.1514,13.8939,14.0191,14.1373,14.068,14.1343,14.2138,14.2131,14.5274,14.6926,14.2365,14.4382,14.6528,14.4972,14.6051,14.8274,15.1732,15.3751,15.5124,15.5782,15.6505,15.7097,15.745,15.7845,15.8437,15.953,16.0911,16.1634,16.124,16.1923,16.2752,16.3844,16.3278,16.3212,16.391,16.2884,16.2818,16.391,16.3521,16.3509,16.3876,16.3482,16.3508,16.3902,16.3902,16.4466,16.5514,16.5988,16.6551,16.7082,16.7448,16.8507,16.9693,16.9366,17.028,17.1846,17.1492,17.2163,17.3224,17.2974,17.2471,17.1912,17.1912,17.18,17.1576,17.1098,17.0843,17.0616,17.0044,17.0617,17.1332,17.1187,17.2158,17.3253,17.3253,17.4347,17.5506,17.5828,17.6502,17.7047,17.7434,17.7468,17.7468,17.7468,17.782,17.8078,17.8078,17.8078,17.7949,17.7532,17.7468,17.7369,17.7047,17.6983,17.7172,17.771,17.7837,17.8189,17.8904,17.9051,17.9177,17.9352,17.8344,17.7757,17.7757,17.8217,17.8511,17.8511,18.0045,18.0996,18.1362,18.1362,18.1588,13.8189,13.7922,13.7111,13.8529,13.8957,13.8988,13.9049,14.1385,14.3497,14.3187,14.4418,14.6353,14.9158,14.8292,14.8647,15.3259,15.6156,15.7385,15.6045,15.8215,15.9004,15.6308,15.7187,15.8042,15.8108,15.9464,15.9727,15.8371,16.0805,16.2357,16.2423,16.3647,16.3778,16.2489,16.2357,16.2357,16.2423,16.2398,16.3095,16.4424,16.4424,16.4424,16.4424,16.4424,16.445,16.4515,16.4541,16.5396,16.6776,16.6803,16.8486,17.0825,16.9484,17.0628,17.2956,17.1548,17.1589,17.216,17.1463,17.2008,17.3087,17.3087,17.2677,17.2208,17.218,17.1763,17.1267,17.0616,17.051,17.046,16.9914,17.0771,17.1772,17.1772,17.2867,17.4283,17.5635,17.4927,17.4412,17.5764,17.6021,17.6021,17.6021,17.7146,17.8078,17.8078,17.8078,17.7563,17.6215,17.6021,17.5506,17.4154,17.4026,17.4778,17.6757,17.5745,17.6077,17.8698,17.7477,17.691,17.7567,17.7529,17.7464,17.7464,17.7557,17.7585,17.7585,17.7679,17.8403,17.9755,17.9755,18.0544,13.7051,13.7162,13.7039,13.8571,13.8919,13.9157,14.0209,14.2046,14.293,14.078,14.3918,14.7011,14.7022,14.8044,15.0053,15.3684,15.3395,15.3444,15.5796,15.6098,15.602,15.5913,15.6308,15.6661,15.6661,15.7097,15.7557,15.7977,15.8963,16.0344,16.2226,16.1937,16.1872,16.2292,16.1437,16.0911,16.0911,16.0911,16.1214,16.174,16.174,16.174,16.174,16.174,16.22,16.3055,16.3055,16.3936,16.5291,16.5291,16.65,16.8236,16.775,16.8736,17.038,16.9854,17.0443,17.1266,17.0102,17.0051,17.0446,17.0446,17.0903,17.1381,17.0971,17.1378,17.1819,17.1267,17.1098,17.1041,17.0843,17.0862,17.087,17.087,17.1677,17.2545,17.306,17.3511,17.3961,17.4476,17.4541,17.4541,17.4541,17.4927,17.5665,17.6536,17.5923,17.515,17.4605,17.4897,17.4969,17.4452,17.4768,17.5348,17.61,17.5956,17.6293,17.7272,17.7211,17.7258,17.7482,17.6561,17.6101,17.6101,17.6101,17.6101,17.6101,17.7022,17.7745,17.8271,17.8271,17.8534,13.4976,13.5258,13.561,13.7144,13.7511,13.7759,13.8827,14.0618,14.1447,13.9294,14.2474,14.5834,14.6293,14.7067,14.8826,15.2449,15.1158,15.0716,15.3663,15.3902,15.4113,15.5034,15.5584,15.5913,15.5913,15.5913,15.6308,15.7253,15.7779,15.8832,16.0805,16.045,16.0385,16.087,16.045,15.9899,15.9464,15.9899,16.0162,16.0162,16.0162,16.0162,16.0162,16.0162,16.0688,16.1568,16.1568,16.216,16.2989,16.2989,16.4173,16.5908,16.5474,16.6763,16.8841,16.8407,16.8802,16.9486,16.8539,16.8512,16.8907,16.8907,16.9564,17.0234,16.983,17.0349,17.1119,17.1035,17.0999,17.1074,17.1362,17.1126,17.0758,17.0531,17.087,17.1326,17.1573,17.2059,17.2574,17.2995,17.306,17.306,17.306,17.3446,17.409,17.5056,17.4412,17.3768,17.3768,17.3941,17.3832,17.335,17.3862,17.4581,17.5237,17.5177,17.5357,17.6078,17.6076,17.6063,17.6063,17.5115,17.4589,17.4589,17.4589,17.4589,17.4589,17.5575,17.6326,17.6759,17.6759,17.7022,13.2201,13.213,13.2482,13.4075,13.4427,13.4442,13.4498,13.6736,13.8833,13.8833,14.0112,14.2647,14.7177,14.5439,14.4875,14.9613,14.9958,14.9574,14.9731,15.196,15.366,15.3653,15.4993,15.5847,15.5847,15.5847,15.5847,15.5913,15.7187,15.7977,15.8042,15.9333,15.9464,15.8042,15.9398,15.9398,15.7977,15.9398,16.0096,16.0096,16.0162,16.0162,16.0162,16.0162,16.0162,16.0228,16.0228,16.0294,16.0294,16.0294,16.1937,16.4278,16.2949,16.4988,16.8578,16.725,16.6724,16.6724,16.6724,16.7618,16.8775,16.8775,16.8841,16.8841,16.8841,16.8907,16.9063,16.9848,17.0077,17.0294,17.1111,17.1334,17.1165,17.0608,17.0466,17.0683,17.1432,17.0607,17.0121,17.1351,17.1579,17.1579,17.1579,17.2738,17.3639,17.3704,17.3733,17.3669,17.3669,17.3001,17.2048,17.066,17.1126,17.2303,17.4263,17.3076,17.3063,17.4994,17.3865,17.3103,17.3038,17.3103,17.3103,17.3038,17.3038,17.3038,17.3038,17.3038,17.3799,17.5153,17.5153,17.5904,13.2201,13.1356,13.0863,13.2427,13.2849,13.3131,13.4287,13.5132,13.575,13.575,13.7823,14.0054,14.129,14.2666,14.4702,14.8306,14.7782,14.7968,15.1067,15.1109,15.1174,15.2069,15.348,15.4311,15.4311,15.4311,15.4771,15.5847,15.6242,15.6924,15.7977,15.8437,15.8437,15.8067,15.8437,15.7977,15.6505,15.7911,15.8634,15.8634,15.9636,16.0162,16.0162,16.0162,16.0754,16.17,16.17,16.2332,16.3227,16.3227,16.3753,16.441,16.4041,16.4633,16.5619,16.5225,16.5093,16.5093,16.5093,16.5356,16.5659,16.5659,16.6474,16.7381,16.7381,16.8078,16.8946,16.918,16.9258,16.9296,16.9529,16.9242,16.9149,17.0001,16.993,16.9844,17.0647,17.0503,17.0259,17.0243,17.0221,17.0221,17.0221,17.0543,17.1093,17.2094,17.1765,17.1379,17.1379,17.1629,17.1742,17.1707,17.2318,17.2535,17.2108,17.1648,17.1177,17.0748,17.1301,17.1169,17.0117,17.1103,17.1169,17.0117,17.0117,17.0117,17.0117,17.0117,17.0287,17.0682,17.0682,17.1498,12.6817,12.5408,12.4806,12.7597,12.7287,12.7414,13.1596,13.2089,13.1963,13.3286,13.5469,13.7299,13.7988,14.01,14.2478,14.4958,14.5651,14.6422,14.8222,14.8623,14.903,14.9638,15.1095,15.1764,15.1053,15.2099,15.348,15.4902,15.4993,15.565,15.7056,15.7122,15.7122,15.7122,15.7713,15.7385,15.5913,15.7319,15.7713,15.7187,15.8017,15.8387,15.8387,15.8387,15.9135,16.0541,16.1174,16.1872,16.2635,16.2635,16.2989,16.3581,16.3581,16.391,16.4278,16.3121,16.2635,16.2635,16.2635,16.2635,16.2635,16.2635,16.3278,16.4133,16.4751,16.5514,16.6434,16.7684,16.8013,16.8144,16.8775,16.8667,16.8476,16.9084,16.8981,16.8765,16.9065,16.9377,16.9482,16.9169,16.9628,16.9929,16.9763,16.9843,17.0138,17.0589,17.0802,17.0872,17.0872,17.0691,17.0748,17.1264,17.1125,17.0795,17.0222,16.9065,16.8276,16.8013,16.8802,16.8894,16.8078,16.9394,16.9788,16.8907,16.8907,16.8907,16.8907,16.8907,16.8907,16.8907,16.8907,16.8709,11.8888,11.738,11.7225,12.1168,12.0045,11.9807,0.0,12.7273,12.7132,13.0244,13.2245,13.4034,13.5765,13.737,13.9044,14.0578,14.3185,14.4533,14.3211,14.5519,14.7168,14.6738,14.803,14.8494,14.7344,14.9731,15.1943,15.3217,15.3456,15.4113,15.5584,15.565,15.5716,15.5913,15.7122,15.7187,15.5913,15.7319,15.7385,15.611,15.6308,15.6373,15.6373,15.6373,15.7031,15.8371,15.9661,16.0162,16.0162,16.0162,16.0911,16.2094,16.2094,16.2858,16.3687,16.1083,16.0162,16.0162,16.0162,16.0162,16.0162,16.0162,16.0162,16.0425,16.17,16.2094,16.262,16.5277,16.6066,16.6329,16.7618,16.8052,16.8077,16.7636,16.7698,16.7695,16.7359,16.785,16.8303,16.8219,16.9227,16.9964,16.9478,16.995,17.0073,16.9168,17.019,17.1064,17.1064,17.0041,16.9414,16.9908,16.8811,16.8306,16.8853,16.6434,16.5317,16.6461,16.6658,16.6724,16.6526,16.775,16.8315,16.8183,16.8052,16.792,16.792,16.792,16.792,16.792,16.792,16.654,0.0,0.0,0.0,0.0,0.0,0.0,0.0,11.8784,11.9491,12.2202,12.5172,12.8075,13.0695,13.3497,13.5906,13.744,13.9165,14.0608,14.1438,14.4221,14.5574,14.4182,14.4329,14.529,14.7289,14.9051,15.0114,15.031,15.1376,15.2691,15.4113,15.4179,15.4705,15.5847,15.6176,15.6176,15.5913,15.7319,15.7911,15.7648,15.8807,15.9307,15.9307,15.9307,15.9505,15.9768,16.0031,16.0162,16.0162,16.0162,16.0359,16.0557,16.0557,16.0754,16.0951,16.0359,16.0162,16.0162,16.0162,16.0162,16.0162,16.0162,16.0162,16.0228,16.0491,16.0557,16.0714,16.1305,16.1411,16.1477,16.1806,16.2752,16.3844,16.4871,16.6054,16.7169,16.7695,16.7936,16.7914,16.7486,16.7598,16.7738,16.772,16.8713,16.9084,16.7764,16.8175,16.8605,16.8605,16.8815,16.9034,16.9114,16.8878,16.88,16.8907,16.7355,16.5908,16.4962,16.6106,16.6198,16.4962,16.5159,16.4765,16.3607,16.2489,16.1872,16.1872,16.1872,16.1872,16.1872,16.1872,16.1543,0.0,0.0,0.0,0.0,0.0,0.0,0.0,0.0,0.0,0.0,0.0,12.1951,12.483,0.0,13.081,13.3019,13.5891,13.8112,13.8784,14.0937,14.1784,14.0142,14.1977,14.3883,14.5236,14.5955,14.7291,14.9402,14.9479,15.0347,15.2559,15.2691,15.3349,15.4771,15.4861,15.519,15.5913,15.6595,15.699,15.699,15.7689,15.8017,15.8017,15.8017,15.8412,15.907,15.907,15.953,16.0162,16.0162,16.0162,16.0031,15.8609,15.8017,15.8017,15.8017,15.8017,15.8017,15.8017,15.8017,15.8017,15.8017,15.8017,15.8149,15.8872,15.907,15.9267,15.999,16.0162,16.0162,16.0162,16.0688,16.1411,16.2135,16.2949,16.3792,16.4885,16.5514,16.5941,16.6429,16.7093,16.7468,16.7233,16.7697,16.7841,16.7094,16.7794,16.8414,16.8414,16.809,16.7552,16.6737,16.6014,16.5291,16.4633,16.4527,16.387,16.2398,16.3081,16.3147,16.2332,16.2332,16.2003,16.124,16.0557,16.0162,16.0162,16.0162,16.0162,16.0162,15.865,15.8412,0.0,0.0,0.0,0.0,0.0,0.0,0.0,0.0,0.0,0.0,0.0,0.0,0.0,0.0,0.0,12.8217,13.2752,13.592,13.5774,13.6863,13.7436,13.6741,14.02,14.2564,14.2434,14.3117,14.4962,14.8215,14.7411,14.8093,15.1087,15.0931,15.1507,15.3259,15.3349,15.3875,15.5058,15.5321,15.5519,15.5519,15.5782,0.0,15.5913,15.5913,15.6505,15.7648,15.7648,15.828,15.9307,15.9307,15.9307,15.9044,15.6176,15.5058,15.5058,15.5058,15.5058,15.5058,15.5058,15.5058,15.5124,15.5387,15.5519,15.5716,15.7187,15.7648,0.0,15.9004,15.9307,15.9307,15.9307,15.957,15.9793,15.9793,15.999,16.0491,16.1634,16.2458,16.33,16.4478,16.5853,16.6702,16.6283,16.6091,16.5803,16.554,16.6961,16.7855,16.7329,16.6237,16.4922,16.3384,16.1897,16.0845,16.0228,16.0714,16.0911,16.0622,16.0031,15.953,15.8979,15.865,15.8519,15.8519,15.8256,15.8519,15.9307,15.9307,15.9307,15.9242,15.4401,15.3373,0.0,0.0,0.0,0.0,0.0,0.0,0.0,0.0,0.0,0.0,0.0,0.0,0.0,0.0,0.0,0.0,12.8893,13.272,13.2684,13.281,13.3949,13.6509,13.8376,13.9494,13.9466,14.3095,14.5093,14.4043,14.4973,14.6886,14.9739,14.846,0.0,0.0,0.0,15.1926,15.2123,15.3349,15.3982,15.3982,15.5321,15.5913,15.5913,15.5913,15.5979,15.611,15.611,15.6242,15.6373,15.6373,15.6373,15.611,15.3241,15.2123,15.2123,15.2123,15.2123,15.2123,15.2123,0.0,0.0,15.3612,15.3982,15.4245,15.5716,15.611,15.6176,15.6308,15.6373,15.6373,15.6373,15.7319,15.824,15.824,15.9267,16.0228,16.0359,16.0506,16.0612,16.0784,16.1992,16.2912,16.2835,16.2807,16.2357,16.1083,16.3252,16.4016,16.1477,16.1017,16.0385,15.8897,15.7491,0.0,15.9965,15.8017,15.8149,16.1831,15.9687,15.7097,15.4574,15.3217,15.2583,15.2583,15.131,15.2559,15.6373,15.6373,15.6373,15.611,14.4231,14.1446,0.0,0.0,0.0,0.0,0.0,0.0,0.0,0.0,0.0,0.0,0.0,0.0,0.0,0.0,0.0,0.0,12.4621,12.685,12.6975,12.9189,13.1638,13.3835,13.5469,13.672,13.7658,13.938,14.0937,14.1919,14.2496,14.366,14.5736,14.5191,14.5705,14.7831,14.7829,14.8614,15.0324,15.0981,15.1705,15.2494,15.311,15.3438,15.3438,15.3438,15.3438,15.3438,15.3438,15.3438,15.3438,15.3438,15.3438,15.311,0.0,0.0,0.0,0.0,15.0939,15.1597,15.1597,15.1597,15.1728,15.2296,15.2494,15.2625,15.3241,15.3438,15.357,15.4401,15.4639,15.4837,15.565,15.6308,15.6793,15.6793,15.7228,15.7952,15.8741,15.8938,15.9201,16.0031,16.0622,0.0,15.995,16.0516,16.0911,16.0294,16.1872,16.2818,16.1568,16.1437,16.0845,15.9398,15.7977,15.7648,15.8832,15.7845,0.0,0.0,0.0,15.8346,15.6308,15.5675,0.0,0.0,0.0,14.8614,14.9577,14.627,0.0,0.0,14.0533,13.9362,0.0,0.0,0.0,0.0,0.0,0.0,0.0,0.0,0.0,0.0,0.0,0.0,0.0,0.0,0.0,0.0,11.976,12.1604,12.1326,12.4803,12.778,12.8822,13.1863,13.4005,13.4287,13.5729,13.76,13.9794,14.0236,14.0841,14.1831,14.229,14.2939,14.3974,14.4286,14.5726,14.8362,14.8311,14.9002,15.0504,15.0452,15.0413,15.0413,15.0413,15.0413,15.0413,15.0413,15.0413,15.0413,15.0413,15.0413,15.0084,14.7125,14.6007,14.6138,14.7256,14.8309,14.93,14.9747,14.9909,15.0067,15.0838,15.1131,15.1172,15.1063,15.1363,15.1775,15.244,15.2864,15.3414,15.4466,15.4754,15.4754,15.4754,15.4993,15.5584,15.6636,15.7187,15.7779,15.8781,15.865,15.8215,15.7582,15.8609,15.9464,15.9044,16.0582,16.1437,16.0648,16.0516,15.999,15.8584,15.7097,15.6595,15.7385,15.6727,15.7253,15.9464,15.8847,15.8149,15.745,15.6332,15.5017,15.3546,14.8943,14.5655,0.0,0.0,0.0,0.0,0.0,0.0,0.0,0.0,0.0,0.0,0.0,0.0,0.0,0.0,0.0,0.0,0.0,0.0,0.0,0.0,0.0,0.0,0.0,0.0,11.668,11.9176,12.1132,12.0881,12.7611,13.1075,12.8062,13.3257,13.6887,13.6957,13.8267,13.8998,13.893,14.0217,14.098,14.1059,14.2415,14.3922,14.5501,14.5304,14.6012,14.7661,14.7378,14.7299,14.7299,14.7299,14.7299,14.7299,14.7299,14.7299,14.7299,14.7299,14.7299,14.6993,14.4165,14.2981,14.2981,14.3047,14.3113,14.3382,14.5051,14.5562,14.6105,14.8961,14.9965,14.9933,14.9742,15.0718,15.1521,15.0027,15.0587,15.1663,15.1728,15.1728,15.1728,15.1728,15.2823,15.385,15.385,15.4993,15.5979,15.6045,15.4902,15.4376,15.5716,15.7187,15.7648,15.6242,15.8387,0.0,15.6439,15.611,15.5584,15.4113,15.2691,15.2912,15.5716,15.3438,15.3636,15.7845,15.5519,15.4574,15.5913,15.1968,14.9009,14.743,14.5918,14.3659,14.0854,0.0,0.0,0.0,0.0,0.0,0.0,0.0,0.0,0.0,0.0,0.0,0.0,0.0,0.0,0.0,0.0,0.0,0.0,0.0,0.0,0.0,0.0,0.0,0.0,11.643,11.9934,12.0691,12.3267,12.4017,12.1528,12.6229,12.9288,12.9146,13.3418,13.6017,13.5916,13.6328,13.6999,13.8049,13.8455,13.9929,14.2369,14.2343,14.3076,14.4584,14.5504,14.5459,14.4461,14.5524,14.5374,14.4297,14.4297,14.4297,14.4297,14.4297,14.3272,14.1486,14.0516,14.0199,14.0266,14.1217,14.1601,14.1816,14.3322,14.3859,14.4006,14.5034,14.6067,14.6922,14.6838,14.7896,14.9195,14.9623,14.9376,14.9119,15.0051,14.9498,14.8877,14.9929,15.0587,15.1179,15.2165,15.2715,15.3373,15.4335,15.2535,15.0126,14.7717,15.1639,15.3743,14.9337,15.4466,15.8437,15.745,15.7319,15.7122,15.6636,15.5346,15.4861,15.5782,15.4993,15.5083,15.6505,15.5716,15.4993,15.4508,15.3061,15.1639,15.015,14.868,14.4066,13.6229,0.0,0.0,0.0,0.0,0.0,0.0,0.0,0.0,0.0,0.0,0.0,0.0,0.0,0.0,0.0,0.0,0.0,0.0,0.0,0.0,0.0,0.0,0.0,0.0,0.0,0.0,11.8429,11.9225,0.0,11.695,11.9067,12.0735,12.1154,12.5864,12.9202,13.0273,13.1859,13.3427,13.4976,13.5482,13.689,13.9481,13.8834,13.9564,14.1642,14.1991,14.1984,14.1566,14.255,14.2451,14.139,14.139,14.139,14.1302,14.024,13.8053,13.5489,13.5489,13.4789,13.409,13.6097,13.6846,13.7118,13.9179,14.0663,14.1574,14.1574,14.1958,14.2252,14.162,14.1761,14.2366,14.3866,14.4285,14.4662,14.6176,14.6556,14.6502,14.6413,14.7608,14.8897,14.9172,14.9666,15.0141,15.0593,14.9165,14.6641,14.2784,14.5984,14.8196,14.5435,14.9798,15.4359,15.6924,15.7253,15.7253,15.7253,15.6464,15.5913,15.5913,15.5453,15.5124,15.5124,15.4664,15.394,15.302,15.2494,15.085,14.7782,14.62,14.0888,0.0,0.0,0.0,0.0,0.0,0.0,0.0,0.0,0.0,0.0,0.0,0.0,0.0,0.0,0.0,0.0,0.0,0.0,0.0,0.0,0.0,0.0,0.0,0.0,0.0,0.0,0.0,11.4094,11.5157,0.0,0.0,0.0,0.0,11.3117,11.608,11.9121,12.2047,12.6456,12.9737,13.1638,13.3072,13.4713,13.6736,13.4982,13.5702,13.8716,13.7196,13.7194,13.859,13.8659,13.8603,13.8529,13.8529,13.8529,13.8325,13.5002,13.1967,12.9222,12.8864,12.7127,12.5034,12.7978,12.9035,12.9512,13.2906,13.6015,13.8525,13.8525,13.7597,13.6173,13.4334,13.2708,0.0,0.0,13.5811,13.8414,14.0114,14.2633,14.4042,14.1377,14.3978,14.6627,14.5191,14.5901,14.64,14.4817,14.4423,14.3293,14.0066,0.0,14.0922,14.3622,14.4542,14.7457,15.4654,15.5765,15.5913,15.5913,15.5913,15.5847,15.5782,15.4508,15.3719,15.3653,15.2296,15.1465,15.14,14.9868,14.6339,14.0636,13.8617,0.0,0.0,0.0,0.0,0.0,0.0,0.0,0.0,0.0,0.0,0.0,0.0,0.0,0.0,0.0,0.0,0.0,0.0,0.0,0.0,0.0,0.0,0.0,0.0,0.0,0.0,10.3022,10.6195,11.0576,10.757,10.4266,0.0,0.0,0.0,0.0,0.0,0.0,11.2712,11.4761,11.8839,12.5048,12.5614,12.8773,13.5061,13.4617,13.4851,13.5642,13.639,13.6266,13.5515,13.6706,13.6546,13.5316,13.5316,13.5316,13.4884,12.9637,12.6977,12.5775,12.1182,11.9563,12.0219,12.2316,12.3086,12.401,13.07,13.2776,13.2414,13.222,13.2055,13.1163,12.7273,0.0,0.0,0.0,0.0,13.1078,13.4967,13.574,13.6319,14.0032,14.0098,14.0109,14.2954,14.2904,14.094,13.6176,13.52,13.2433,12.3719,12.6687,0.0,13.0154,13.7539,14.5063,15.0271,15.3893,15.5913,15.5913,15.5913,15.5453,15.4376,15.3982,15.3324,15.2255,15.085,14.9469,14.8351,14.48,14.107,13.7345,0.0,0.0,0.0,0.0,0.0,0.0,0.0,0.0,0.0,0.0,0.0,0.0,0.0,0.0,0.0,0.0,0.0,0.0,0.0,0.0,0.0,0.0,0.0,0.0,0.0,0.0,0.0,9.5764,9.9701,10.4546,9.9671,9.5954,0.0,0.0,0.0,0.0,0.0,0.0,0.0,0.0,0.0,11.6644,11.6791,11.9186,12.4424,12.7062,12.8766,12.964,13.3119,13.4696,13.4415,13.5322,13.5207,13.4334,13.4334,13.1983,12.8046,12.4559,12.037,11.5811,0.0,0.0,0.0,0.0,11.4394,11.5808,12.1579,12.3417,12.3249,12.3104,0.0,0.0,0.0,0.0,0.0,0.0,0.0,12.641,13.0356,13.3674,13.6378,13.7698,13.7801,13.8085,13.9777,13.4175,12.8059,12.5337,12.4759,12.2234,11.4246,11.6812,0.0,0.0,0.0,13.9357,14.638,15.1218,15.403,15.403,15.403,15.3973,15.3945,15.2048,15.1161,15.1833,14.8571,14.5655,14.3472,13.9019,13.3995,0.0,0.0,0.0,0.0,0.0,0.0,0.0,0.0,0.0,0.0,0.0,0.0,0.0,0.0,0.0,0.0,0.0,0.0,0.0,0.0,0.0,0.0,0.0,0.0,0.0,0.0,0.0,0.0,0.0,9.3391,9.7039,0.0,0.0,0.0,0.0,0.0,0.0,0.0,0.0,0.0,0.0,0.0,0.0,0.0,10.8175,11.0952,11.5964,11.9418,12.1475,12.6693,13.0034,13.1528,13.1542,13.195,13.2597,13.1683,0.0,12.0204,11.8348,0.0,0.0,0.0,0.0,0.0,0.0,0.0,0.0,0.0,0.0,0.0,0.0,0.0,0.0,0.0,0.0,0.0,0.0,0.0,0.0,0.0,0.0,13.7254,13.318,13.4606,13.6257,13.395,12.2928,11.3766,11.449,11.4571,11.2986,0.0,0.0,0.0,0.0,0.0,0.0,14.2704,14.883,15.2312,15.2312,15.2312,15.2699,15.3775,15.0205,14.883,15.1143,14.5057,14.0191,13.7519,13.2672,0.0,0.0,0.0,0.0,0.0,0.0,0.0,0.0,0.0,0.0,0.0,0.0,0.0,0.0,0.0,0.0,0.0,0.0,0.0,0.0,0.0,0.0,0.0,0.0,0.0,0.0,0.0,0.0,0.0,0.0,0.0,0.0,0.0,0.0,0.0,0.0,0.0,0.0,0.0,0.0,0.0,0.0,0.0,0.0,0.0,0.0,0.0,0.0,0.0,0.0,11.2981,11.4286,11.5609,11.5783,11.847,12.2641,11.6614,11.527,11.658,10.619,0.0,0.0,0.0,0.0,0.0,0.0,0.0,0.0,0.0,0.0,0.0,0.0,0.0,0.0,0.0,0.0,0.0,0.0,0.0,0.0,0.0,0.0,12.2265,12.1226,12.3364,12.416,11.8726,0.0,0.0,0.0,0.0,0.0,0.0,0.0,0.0,0.0,0.0,0.0,13.8645,14.9144,15.5773,15.5773,15.5773,15.493,15.2712,15.1784,14.9946,14.6816,13.8526,13.2949,0.0,0.0,0.0,0.0,0.0,0.0,0.0,0.0,0.0,0.0,0.0,0.0,0.0,0.0,0.0,0.0,0.0,0.0,0.0,0.0,0.0,0.0,0.0,0.0,0.0,0.0,0.0,0.0,0.0,0.0,0.0,0.0,0.0,0.0,0.0,0.0,0.0,0.0,0.0,0.0,0.0,0.0,0.0,0.0,0.0,0.0,0.0,0.0,0.0,0.0,0.0,0.0,0.0,0.0,0.0,0.0,0.0,0.0,10.7659,10.2547,0.0,0.0,0.0,0.0,0.0,0.0,0.0,0.0,0.0,0.0,0.0,0.0,0.0,0.0,0.0,0.0,0.0,0.0,0.0,0.0,0.0,0.0,0.0,0.0,0.0,0.0,0.0,0.0,0.0,0.0,0.0,0.0,0.0,0.0,0.0,0.0,0.0,0.0,0.0,0.0,13.3053,14.4527,15.2028,15.2028,15.2028,15.1865,15.1331,14.8995,14.5952,14.234,13.4155,0.0,0.0,0.0,0.0,0.0,0.0,0.0,0.0,0.0,0.0,0.0,0.0,0.0,0.0,0.0,0.0,0.0,0.0,0.0,0.0,0.0,0.0,0.0,0.0,0.0,0.0,0.0,0.0,0.0,0.0,0.0,0.0,0.0,0.0,0.0,0.0,0.0,0.0,0.0,0.0,0.0,0.0,0.0,0.0,0.0,0.0,0.0,0.0,0.0,0.0,0.0,0.0,0.0,0.0,0.0,0.0,0.0,0.0,0.0,9.8526,9.0626,0.0,0.0,0.0,0.0,0.0,0.0,0.0,0.0,0.0,0.0,0.0,0.0,0.0,0.0,0.0,0.0,0.0,0.0,0.0,0.0,0.0,0.0,0.0,0.0,0.0,0.0,0.0,0.0,0.0,0.0,0.0,0.0,0.0,0.0,0.0,0.0,0.0,0.0,0.0,0.0,12.8908,14.0551,14.8459,14.8822,14.889,14.9147,14.9915,14.656,14.2251,13.7344,12.9718,0.0,0.0,0.0,0.0,0.0,0.0,0.0,0.0,0.0,0.0,0.0,0.0,0.0,0.0,0.0,0.0,0.0,0.0,0.0,0.0,0.0,0.0,0.0,0.0,0.0,0.0,0.0,0.0,0.0,0.0,0.0,0.0,0.0,0.0,0.0,0.0,0.0,0.0,0.0,0.0,0.0,0.0,0.0,0.0,0.0,0.0,0.0,0.0,0.0,0.0,0.0,0.0,0.0,0.0,0.0,0.0,0.0,0.0,0.0,0.0,0.0,0.0,0.0,0.0,0.0,0.0,0.0,0.0,0.0,0.0,0.0,0.0,0.0,0.0,0.0,0.0,0.0,0.0,0.0,0.0,0.0,0.0,0.0,0.0,0.0,0.0,0.0,0.0,0.0,0.0,0.0,0.0,0.0,0.0,0.0,0.0,0.0,0.0,0.0,0.0,0.0,12.9044,14.1811,15.0891,15.2348,15.2489,15.1434,14.8773,14.8095,14.2912,13.1412,0.0,0.0,0.0,0.0,0.0,0.0,0.0,0.0,0.0,0.0,0.0,0.0,0.0,0.0,0.0,0.0,0.0,0.0,0.0,0.0,0.0,0.0,0.0,0.0,0.0,0.0,0.0,0.0,0.0,0.0,0.0,0.0,0.0,0.0,0.0,0.0,0.0,0.0,0.0,0.0,0.0,0.0,0.0,0.0,0.0,0.0,0.0,0.0,0.0,0.0,0.0,0.0,0.0,0.0,0.0,0.0,0.0,0.0,0.0,0.0,0.0,0.0,0.0,0.0,0.0,0.0,0.0,0.0,0.0,0.0,0.0,0.0,0.0,0.0,0.0,0.0,0.0,0.0,0.0,0.0,0.0,0.0,0.0,0.0,0.0,0.0,0.0,0.0,0.0,0.0,0.0,0.0,0.0,0.0,0.0,0.0,0.0,0.0,0.0,0.0,0.0,0.0,12.5105,13.7848,14.6702,14.7336,14.7336,14.6843,14.5576,14.3761,13.7425,12.5007,0.0,0.0,0.0,0.0,0.0,0.0,0.0,0.0,0.0,0.0,0.0,0.0,0.0,0.0,0.0,0.0,0.0,0.0,0.0,0.0,0.0,0.0,0.0,0.0,0.0,0.0,0.0,0.0,0.0,0.0,0.0,0.0,0.0,0.0,0.0,0.0,0.0,0.0,0.0,0.0,0.0,0.0,0.0,0.0,0.0,0.0,0.0,0.0,0.0,0.0,0.0,0.0,0.0,0.0,0.0,0.0,0.0,0.0,0.0,0.0,0.0,0.0,0.0,0.0,0.0,0.0,0.0,0.0,0.0,0.0,0.0,0.0,0.0,0.0,0.0,0.0,0.0,0.0,0.0,0.0,0.0,0.0,0.0,0.0,0.0,0.0,0.0,0.0,0.0,0.0,0.0,0.0,0.0,0.0,0.0,0.0,0.0,0.0,0.0,0.0,0.0,0.0,12.2316,13.4257,14.2603,14.3518,14.3659,14.3307,14.2338,14.0226,13.3116,11.9305,0.0,0.0,0.0,0.0,0.0,0.0,0.0,0.0,0.0,0.0,0.0,0.0,0.0,0.0,0.0,0.0,0.0,0.0,0.0,0.0,0.0,0.0,0.0,0.0,0.0,0.0,0.0,0.0,0.0,0.0,0.0,0.0,0.0,0.0,0.0,0.0,0.0,0.0,0.0,0.0,0.0,0.0,0.0,0.0,0.0,0.0,0.0,0.0,0.0,0.0,0.0,0.0,0.0,0.0,0.0,0.0,0.0,0.0,0.0,0.0,0.0,0.0,0.0,0.0,0.0,0.0,0.0,0.0,0.0,0.0,0.0,0.0,0.0,0.0,0.0,0.0,0.0,0.0,0.0,0.0,0.0,0.0,0.0,0.0,0.0,0.0,0.0,0.0,0.0,0.0,0.0,0.0,0.0,0.0,0.0,0.0,0.0,0.0,0.0,0.0,0.0,0.0,12.2061,13.2286,14.0226,14.3307,14.3659,14.2408,13.9311,13.9044,13.1708,0.0,0.0,0.0,0.0,0.0,0.0,0.0,0.0,0.0,0.0,0.0,0.0,0.0,0.0,0.0,0.0,0.0,0.0,0.0,0.0,0.0,0.0,0.0,0.0,0.0,0.0,0.0,0.0,0.0,0.0,0.0,0.0,0.0,0.0,0.0,0.0,0.0,0.0,0.0,0.0,0.0,0.0,0.0,0.0,0.0,0.0,0.0,0.0,0.0,0.0,0.0,0.0,0.0,0.0,0.0,0.0,0.0,0.0,0.0,0.0,0.0,0.0,0.0,0.0,0.0,0.0,0.0,0.0,0.0,0.0,0.0,0.0,0.0,0.0,0.0,0.0,0.0,0.0,0.0,0.0,0.0,0.0,0.0,0.0,0.0,0.0,0.0,0.0,0.0,0.0,0.0,0.0,0.0,0.0,0.0,0.0,0.0,0.0,0.0,0.0,0.0,0.0,0.0,11.7393,12.5986,13.2982,13.6962,13.737,13.7018,13.6032,13.4961,12.84,11.4404,0.0,0.0,0.0,0.0,0.0,0.0,0.0,0.0,0.0,0.0,0.0,0.0,0.0,0.0,0.0,0.0,0.0,0.0,0.0,0.0,0.0,0.0,0.0,0.0,0.0,0.0,0.0,0.0,0.0,0.0,0.0,0.0,0.0,0.0,0.0,0.0,0.0,0.0,0.0,0.0,0.0,0.0,0.0,0.0,0.0,0.0,0.0,0.0,0.0,0.0,0.0,0.0,0.0,0.0,0.0,0.0,0.0,0.0,0.0,0.0,0.0,0.0,0.0,0.0,0.0,0.0,0.0,0.0,0.0,0.0,0.0,0.0,0.0,0.0,0.0,0.0,0.0,0.0,0.0,0.0,0.0,0.0,0.0,0.0,0.0,0.0,0.0,0.0,0.0,0.0,0.0,0.0,0.0,0.0,0.0,0.0,0.0,0.0,0.0,0.0,0.0,0.0,0.0,12.4235,13.1108,13.4483,13.4719,13.4449,13.3814,13.2767,12.6569,11.3488,0.0,0.0,0.0,0.0,0.0,0.0,0.0,0.0,0.0,0.0,0.0,0.0,0.0,0.0,0.0,0.0,0.0,0.0,0.0,0.0,0.0,0.0,0.0,0.0,0.0,0.0,0.0,0.0,0.0,0.0,0.0,0.0,0.0,0.0,0.0,0.0,0.0,0.0,0.0,0.0,0.0,0.0,0.0,0.0,0.0,0.0,0.0,0.0,0.0,0.0,0.0,0.0,0.0,0.0,0.0,0.0,0.0,0.0,0.0,0.0,0.0,0.0,0.0,0.0,0.0,0.0,0.0,0.0,0.0,0.0,0.0,0.0,0.0,0.0,0.0,0.0,0.0,0.0,0.0,0.0,0.0,0.0,0.0,0.0,0.0,0.0,0.0,0.0,0.0,0.0,0.0,0.0,0.0,0.0,0.0,0.0,0.0,0.0,0.0,0.0,0.0,0.0,0.0,12.5897,13.2972,13.4772,13.4742,13.4004,13.2507,13.2108,12.5963,11.2093,11.1107,0.0,0.0,0.0,0.0,0.0,0.0,0.0,0.0,0.0,0.0,0.0,0.0,0.0,0.0,0.0,0.0,0.0,0.0,0.0,0.0,0.0,0.0,0.0,0.0,0.0,0.0,0.0,0.0,0.0,0.0,0.0,0.0,0.0,0.0,0.0,0.0,0.0,0.0,0.0,0.0,0.0,0.0,0.0,0.0,0.0,0.0,0.0,0.0,0.0,0.0,0.0,0.0,0.0,0.0,0.0,0.0,0.0,0.0,0.0,0.0,0.0,0.0,0.0,0.0,0.0,0.0,0.0,0.0,0.0,0.0,0.0,0.0,0.0,0.0,0.0,0.0,0.0,0.0,0.0,0.0,0.0,0.0,0.0,0.0,0.0,0.0,0.0,0.0,0.0,0.0,0.0,0.0,0.0,0.0,0.0,0.0,0.0,0.0,0.0,0.0,0.0,0.0,12.3058,12.7598,13.1298,13.1698,13.1431,13.0854,12.964,12.387,11.1964,11.0051,0.0,0.0,0.0,0.0,0.0,0.0,0.0,0.0,0.0,0.0,0.0,0.0,0.0,0.0,0.0,0.0,0.0,0.0,0.0,0.0,0.0,0.0,0.0,0.0,0.0,0.0,0.0,0.0,0.0,0.0,0.0,0.0,0.0,0.0,0.0,0.0,0.0,0.0,0.0,0.0,0.0,0.0,0.0,0.0,0.0,0.0,0.0,0.0,0.0,0.0,0.0,0.0,0.0,0.0,0.0,0.0,0.0,0.0,0.0,0.0,0.0,0.0,0.0,0.0,0.0,0.0,0.0,0.0,0.0,0.0,0.0,0.0,0.0,0.0,0.0,0.0,0.0,0.0,0.0,0.0,0.0,0.0,0.0,0.0,0.0,0.0,0.0,0.0,0.0,0.0,0.0,0.0,0.0,0.0,0.0,0.0,0.0,0.0,0.0,0.0,0.0,0.0,11.4505,12.122,13.0141,13.0932,13.0499,12.9613,12.8518,12.2914,11.1222,10.8963,0.0,0.0,0.0,0.0,0.0,0.0,0.0,0.0,0.0,0.0,0.0,0.0,0.0,0.0,0.0,0.0,0.0,0.0,0.0,0.0,0.0,0.0,0.0,0.0,0.0,0.0,0.0,0.0,0.0,0.0,0.0,0.0,0.0,0.0,0.0,0.0,0.0,0.0,0.0,0.0,0.0,0.0,0.0,0.0,0.0,0.0,0.0,0.0,0.0,0.0,0.0,0.0,0.0,0.0,0.0,0.0,0.0,0.0,0.0,0.0,0.0,0.0,0.0,0.0,0.0,0.0,0.0,0.0,0.0,0.0,0.0,0.0,0.0,0.0,0.0,0.0,0.0,0.0,0.0,0.0,0.0,0.0,0.0,0.0,0.0,0.0,0.0,0.0,0.0,0.0,0.0,0.0,0.0,0.0,0.0,0.0,0.0,0.0,0.0,0.0,0.0,0.0,0.0,11.6007,12.8803,13.0592,13.0279,12.8848,12.7855,12.2262,11.0362,0.0,0.0,0.0,0.0,0.0,0.0,0.0,0.0,0.0,0.0,0.0,0.0,0.0,0.0,0.0,0.0,0.0,0.0,0.0,0.0,0.0,0.0,0.0,0.0,0.0,0.0,0.0,0.0,0.0,0.0,0.0,0.0,0.0,0.0,0.0,0.0,0.0,0.0,0.0,0.0,0.0,0.0,0.0,0.0,0.0,0.0,0.0,0.0,0.0,0.0,0.0,0.0,0.0,0.0,0.0,0.0,0.0,0.0,0.0,0.0,0.0,0.0,0.0,0.0,0.0,0.0,0.0,0.0,0.0,0.0,0.0,0.0,0.0,0.0,0.0,0.0,0.0,0.0,0.0,0.0,0.0,0.0,0.0,0.0,0.0,0.0,0.0,0.0,0.0,0.0,0.0,0.0,0.0,0.0,0.0,0.0,0.0,0.0,0.0,0.0,0.0,0.0,0.0,0.0,11.6697,12.2915,12.717,12.9336,12.8732,12.6211,12.0255,11.0116,0.0,0.0,0.0,0.0,0.0,0.0,0.0,0.0,0.0,0.0,0.0,0.0,0.0,0.0]}],[{"header":{"parameterUnit":"kt","parameterCategory":2,"dx":1,"dy":1,"la1":29.285339999999998,"la2":30.599998999999997,"lo1":-89.70041500000002,"lo2":-87.6738589999976,"nx":112,"ny":82,"refTime":"2022-09-28T06:00:00:Z","depth":0,"parameterNumber":2,"parameterNumberName":"V-component_of_WINDS"},"data":[9.172,9.3054,9.3591,8.9447,8.9367,8.9329,8.5155,8.5157,8.5919,8.5615,8.66,8.7773,8.8764,8.8115,0.0,0.0,0.0,0.0,0.0,8.9396,8.9486,8.9256,9.1227,9.3645,9.6191,9.6458,10.1695,11.447,11.3033,11.6508,12.7936,12.8213,12.8656,13.0098,13.0912,13.1613,13.2323,13.1293,13.0756,13.0798,13.1146,13.1683,13.2415,13.3446,13.4231,13.4914,13.4914,13.5109,13.5495,13.5061,13.5153,13.5495,13.5495,13.53,13.4914,13.4914,13.4914,13.5012,13.5783,13.6954,13.8317,13.8955,14.0176,14.135,14.135,14.135,14.1399,14.1838,14.1643,14.1399,14.1838,14.0078,13.8711,14.0813,13.9736,13.6533,13.041,12.9081,12.6601,11.8252,11.6608,11.6125,11.4677,11.4395,11.3621,11.153,11.1208,11.1288,11.165,11.2455,11.3389,11.4315,11.5481,11.697,11.8741,12.0994,12.3019,12.4523,12.534,12.6185,12.7095,12.7095,12.7095,12.7095,12.7095,12.7095,12.7095,12.7095,12.7095,12.7095,12.7095,12.7095,9.0164,9.1383,9.1768,8.6976,8.7014,8.7283,8.3333,8.3562,8.4551,8.4248,8.6182,8.7707,8.6853,8.7611,0.0,0.0,0.0,0.0,0.0,8.9414,8.9752,9.0079,9.4174,9.7484,9.8757,10.1209,10.7162,11.7917,11.6002,11.9121,12.9935,13.0261,12.9696,12.8963,13.112,13.1976,13.1244,13.0603,13.0212,13.0261,13.0994,13.1634,13.2366,13.3397,13.4231,13.4914,13.4914,13.4914,13.4914,13.4914,13.4914,13.4914,13.4914,13.4914,13.4914,13.4914,13.4914,13.5012,13.5783,13.6999,13.8415,13.9444,14.0472,14.135,14.135,14.135,14.135,14.135,14.135,14.135,14.135,14.0029,13.9151,14.0911,13.8883,13.5219,13.0167,12.7966,12.4878,11.7948,11.6608,11.6045,11.4234,11.3671,11.2897,11.1409,11.1208,11.1208,11.1208,11.1972,11.2777,11.338,11.4274,11.5562,11.7332,11.9396,12.1598,12.3985,12.5164,12.6009,12.6612,12.6974,12.7095,12.7095,12.7095,12.7095,12.7095,12.7095,12.7095,12.7095,12.7095,12.7095,8.8456,8.808,8.778,8.3523,8.3751,8.4587,8.284,8.4436,8.5992,8.5157,8.6979,8.8524,8.7661,8.8863,0.0,0.0,0.0,0.0,0.0,8.8502,9.008,9.2634,9.8863,10.2448,10.1407,10.6127,11.1743,11.7739,11.8857,12.3396,13.2844,13.243,13.1902,13.1738,13.0798,13.0212,13.0164,13.0212,13.0212,13.0261,13.2318,13.3299,13.3397,13.4378,13.4865,13.4914,13.4914,13.4914,13.4914,13.4914,13.4914,13.4914,13.4914,13.4914,13.4914,13.4914,13.4914,13.4914,13.4914,13.6373,13.8415,13.9492,14.0472,14.135,14.135,14.135,14.135,14.135,14.135,14.135,14.135,14.052,13.9984,14.0919,13.7245,13.2715,12.9533,12.5665,12.1593,11.7391,11.6568,11.5964,11.4194,11.3098,11.2213,11.1329,11.1208,11.1208,11.1208,11.1932,11.2495,11.2535,11.3349,11.4636,11.6447,11.7453,11.9477,12.2925,12.4736,12.5672,12.5768,12.6612,12.707,12.7095,12.7095,12.7095,12.7095,12.7095,12.7095,12.7095,12.7095,12.7095,8.5423,8.6296,8.709,8.4132,8.5119,8.6179,8.3904,8.3982,8.4779,8.5726,8.6486,0.0,0.0,0.0,9.0178,9.0287,0.0,9.2818,9.1459,9.3696,9.6217,9.8274,10.3814,10.918,11.3655,11.1764,11.4632,12.5198,12.3046,12.4835,13.2936,13.24,13.1475,13.0658,13.0408,12.9822,12.8999,12.9822,13.0212,13.0261,13.1585,13.2616,13.3348,13.3641,13.4183,13.4914,13.4914,13.4914,13.4914,13.4914,13.4914,13.4914,13.4914,13.4914,13.4914,13.4914,13.4914,13.5012,13.5881,13.7096,13.8467,14.0276,14.1106,14.135,14.135,14.135,14.135,14.135,14.135,14.135,14.135,14.052,13.93,13.7398,13.5196,13.1915,12.5883,12.3125,12.0626,11.6459,11.5119,11.4274,11.3098,11.2745,11.2213,11.1329,11.1208,11.1208,11.1208,11.1409,11.1811,11.2455,11.2777,11.3952,11.6407,11.7453,11.8902,12.1102,12.2925,12.4495,12.5672,12.546,12.5526,12.613,12.613,12.613,12.613,12.6788,12.7095,12.7095,12.7095,12.7095,8.398,8.4549,8.5423,8.326,8.4587,8.5764,8.3259,8.3526,8.4475,8.5081,0.0,0.0,0.0,0.0,0.0,0.0,9.3666,9.5083,9.3995,9.6892,9.9789,10.16,10.6426,11.1456,11.6256,11.6491,11.8986,12.539,12.5219,12.6891,13.1798,13.1439,13.0652,12.9536,12.9487,12.9389,12.9243,13.0359,13.114,13.1537,13.261,13.3397,13.4031,13.4031,13.4373,13.4914,13.4914,13.4914,13.4914,13.4914,13.4914,13.4914,13.4914,13.4914,13.4914,13.4914,13.4914,13.5061,13.6266,13.7341,13.8512,14.013,14.096,14.135,14.135,14.135,14.135,14.135,14.135,14.1252,14.0764,14.052,13.9874,13.7714,13.4073,12.9934,12.5754,12.143,11.7581,11.5177,11.4274,11.351,11.2173,11.1972,11.1771,11.1248,11.1208,11.1208,11.1208,11.1208,11.1369,11.1932,11.1972,11.3107,11.5803,11.6941,11.8298,12.0418,12.1892,12.3287,12.4615,12.4615,12.4951,12.5768,12.5768,12.5954,12.6371,12.6853,12.7095,12.7095,12.7095,12.7095,8.3297,8.2803,8.3184,8.174,8.3031,8.4208,8.2385,0.0,8.5197,8.4975,0.0,8.8304,8.8498,0.0,0.0,9.2264,9.4638,9.6411,9.6209,9.9309,10.2123,10.3652,10.7902,11.1246,11.2634,11.9923,12.4065,12.2715,12.6414,12.9145,13.0164,13.0115,12.9536,12.8559,12.8657,12.9194,13.0212,13.139,13.2464,13.3348,13.4378,13.4914,13.4914,13.4914,13.4914,13.4914,13.4914,13.4914,13.4914,13.4914,13.4914,13.4914,13.4914,13.4914,13.4914,13.4914,13.4914,13.5061,13.6413,13.7438,13.8415,13.959,14.0569,14.135,14.135,14.135,14.135,14.135,14.135,14.1106,14.0029,14.052,14.0779,13.874,13.2812,12.7419,12.6372,11.9624,11.3791,11.3791,11.3711,11.3107,11.1489,11.1208,11.1208,11.1208,11.1208,11.1208,11.1208,11.1208,11.1208,11.1208,11.1208,11.2334,11.52,11.6165,11.7775,12.0499,12.1437,12.2254,12.3073,12.3985,12.4736,12.546,12.5581,12.6009,12.6853,12.703,12.7095,12.7095,12.703,12.703,8.1323,8.1095,8.1816,8.2119,8.2574,8.3485,0.0,0.0,0.0,9.1261,9.241,9.3245,9.4587,9.5968,9.7072,9.7687,10.063,10.2319,10.0956,10.4462,10.6998,10.6595,11.1405,11.3346,10.9909,12.0049,12.7664,12.9693,12.985,13.0017,13.0212,12.934,12.8755,12.8469,12.9389,13.0017,13.0212,13.2122,13.3153,13.3348,13.4378,13.4914,13.4914,13.4914,13.4914,13.4914,13.4914,13.4914,13.4914,13.4914,13.4914,13.4914,13.4914,13.4914,13.4914,13.4914,13.4914,13.5158,13.7198,13.8024,13.8561,14.0374,14.1155,14.135,14.135,14.135,14.135,14.135,14.135,14.1106,14.0029,14.052,13.9202,13.0808,12.8259,12.5658,11.8202,11.4615,11.2777,11.2777,11.2213,11.161,11.1248,11.1208,11.1208,11.1208,11.1208,11.1208,11.1208,11.1208,11.1208,11.1208,11.1208,11.2575,11.6045,11.6528,11.8057,12.1396,12.1771,12.196,12.2134,12.3019,12.3583,12.3744,12.4468,12.4951,12.5072,12.6466,12.7095,12.7095,12.6371,12.6426,7.9614,7.969,8.0639,8.0601,8.1208,0.0,0.0,8.561,8.7302,9.1208,9.2768,9.4078,9.6315,9.7836,9.9029,9.9863,10.2601,10.4612,10.4658,10.6998,10.8487,10.8044,11.0484,11.2037,11.1576,11.7215,12.289,12.7641,12.8867,12.934,12.934,12.8803,12.8469,12.8469,12.9626,13.0505,13.1042,13.261,13.3592,13.4134,13.4622,13.4914,13.4914,13.4914,13.4914,13.4914,13.4914,13.4914,13.4914,13.4914,13.4914,13.4914,13.4914,13.4914,13.4914,13.4914,13.4914,13.5109,13.6852,13.778,13.8419,14.0029,14.0911,14.135,14.135,14.135,14.135,14.135,14.096,14.0322,13.9248,13.9785,13.8519,13.0305,12.7685,12.5053,11.7919,11.4022,11.1851,11.1851,11.1489,11.1208,11.1208,11.1208,11.1208,11.1208,11.1208,11.1208,11.1208,11.1208,11.1208,11.1208,11.161,11.3139,11.6326,11.7062,11.8631,12.1651,12.1892,12.1892,12.1892,12.2322,12.259,12.259,12.3462,12.4348,12.5164,12.5621,12.6064,12.6426,12.6009,12.625,7.8057,7.855,7.9728,7.95,8.0335,0.0,8.3675,8.5041,8.7117,9.1311,9.3393,9.5223,9.7851,9.971,10.1076,10.164,10.3767,10.5818,10.7159,10.7924,10.8326,10.8165,10.8906,11.0643,11.3464,11.4604,11.7541,12.3468,12.6068,12.7709,12.8469,12.8469,12.8469,12.8469,12.9828,13.0945,13.1781,13.3006,13.4036,13.4914,13.4914,13.4914,13.4914,13.4914,13.4914,13.4914,13.4914,13.4914,13.4914,13.4914,13.4914,13.4914,13.4914,13.4914,13.4914,13.4914,13.4914,13.5061,13.6266,13.7194,13.8122,13.9346,14.0325,14.1057,14.1252,14.135,14.135,14.135,14.0716,13.9834,13.876,13.9297,13.8262,13.1174,12.7896,12.4727,11.8804,11.4208,11.1248,11.1409,11.1329,11.1208,11.1208,11.1208,11.1208,11.1208,11.1208,11.1208,11.1208,11.1208,11.1208,11.1208,11.2012,11.3621,11.6367,11.7453,11.9115,12.1718,12.1892,12.1892,12.1892,12.1892,12.1892,12.1892,12.2617,12.3744,12.5285,12.4615,12.4831,12.5768,12.5647,12.613,7.6691,7.7565,7.9387,8.1474,8.1625,0.0,8.8836,8.9784,9.129,9.7986,10.0024,10.1328,10.3348,10.5169,10.6187,10.5457,10.6991,10.8004,10.74,10.74,10.7152,10.6341,10.989,11.2315,11.1922,11.5636,11.9472,12.2743,12.329,12.4954,12.8302,12.8469,12.8469,12.8469,13.0512,13.1683,13.1781,13.3738,13.4768,13.4914,13.4914,13.4914,13.4914,13.4914,13.4914,13.4914,13.4914,13.4914,13.4914,13.4914,13.4914,13.4914,13.4914,13.4914,13.4914,13.4914,13.4914,13.5061,13.6266,13.675,13.719,13.9102,13.9834,14.0127,14.1057,14.135,14.135,14.135,14.1252,14.0911,13.9883,14.0374,13.849,12.7944,12.5886,12.3919,11.5113,11.2153,11.1409,11.2213,11.1731,11.1208,11.1208,11.1208,11.1208,11.1208,11.1208,11.1208,11.1208,11.1208,11.1208,11.1208,11.2012,11.3621,11.6367,11.7453,11.9115,12.1718,12.1892,12.1892,12.1892,12.1892,12.1892,12.1892,12.196,12.2496,12.3502,12.3408,12.4227,12.5768,12.5072,12.5581,7.4833,7.6351,7.8362,7.988,0.0,0.0,8.7925,8.9898,9.244,9.8555,10.0434,10.1885,10.4847,10.5979,10.6589,10.671,10.7353,10.7514,10.6669,10.6502,10.6341,10.5973,10.7655,11.0458,11.45,11.4626,11.7736,12.5553,12.208,12.2166,12.8176,12.8469,12.8803,12.9487,13.1,13.2074,13.2665,13.4134,13.4914,13.4914,13.4914,13.4914,13.4914,13.4914,13.4914,13.4914,13.4914,13.4914,13.4914,13.4914,13.4914,13.4914,13.4914,13.4914,13.4914,13.4914,13.4914,13.4963,13.5446,13.612,13.6946,13.8415,13.9248,13.998,14.1008,14.135,14.135,14.135,14.135,14.1106,14.0029,13.8244,13.4911,12.741,12.455,12.1657,11.4795,11.2616,11.2415,11.3872,11.3429,11.2575,11.2053,11.1972,11.1811,11.1248,11.1208,11.1208,11.1208,11.1208,11.1208,11.1208,11.2012,11.347,11.5642,11.7131,11.8861,12.0941,12.1598,12.1892,12.1892,12.1892,12.1892,12.1892,12.1892,12.208,12.2443,12.2443,12.31,12.4307,12.4977,12.5943,7.396,0.0,0.0,0.0,0.0,0.0,8.8304,9.0581,9.3357,9.8555,10.0284,10.1846,10.5328,10.614,10.6422,10.6871,10.6911,10.671,10.606,10.5933,10.5933,10.5933,10.6822,10.963,11.508,11.3206,11.5834,12.6188,11.9958,11.9436,12.8002,12.7499,12.7941,13.017,13.1244,13.2318,13.3348,13.4378,13.4914,13.4914,13.4914,13.4914,13.4914,13.4914,13.4914,13.4914,13.4914,13.4914,13.4914,13.4914,13.4914,13.4914,13.4914,13.4914,13.4914,13.4914,13.4914,13.4914,13.4914,13.5446,13.6364,13.7438,13.8467,13.9541,14.0569,14.1106,14.135,14.135,14.135,14.1155,14.0374,13.7927,13.4119,12.8036,12.4861,12.1567,11.5591,11.3791,11.3711,11.4999,11.4556,11.3711,11.3018,11.2696,11.2294,11.165,11.1369,11.1208,11.1208,11.1208,11.1208,11.1208,11.2012,11.3228,11.4757,11.682,11.862,12.0056,12.1235,12.1892,12.1892,12.1892,12.1892,12.1892,12.1892,12.1892,12.1892,12.1892,12.2322,12.3315,12.4736,12.6064,0.0,0.0,0.0,8.4853,8.6144,8.7473,9.2408,9.3541,9.4917,9.9518,10.1093,10.2508,10.5408,10.6669,10.6951,10.614,10.5973,10.5979,10.5933,10.5933,10.5933,10.5933,10.9175,11.1495,11.1721,11.1631,11.4768,12.2467,11.6011,11.6629,12.7876,12.5039,12.5258,13.0085,13.1244,13.2318,13.3348,13.4378,13.4914,13.4914,13.4914,13.4914,13.4914,13.4914,13.4914,13.4914,13.4914,13.4914,13.4914,13.4914,13.4914,13.4914,13.4914,13.4914,13.4914,13.4914,13.4914,13.4914,13.4914,13.4914,13.5153,13.6315,13.7389,13.8464,13.9492,14.052,14.135,14.135,14.135,14.135,14.1301,14.116,13.8838,12.979,12.7563,12.5252,11.7013,11.52,11.52,11.524,11.4556,11.3912,11.3872,11.3098,11.2535,11.2495,11.1771,11.1208,11.1208,11.1208,11.1208,11.1208,11.2012,11.2897,11.3872,11.6407,11.8338,11.9119,12.0873,12.1892,12.1892,12.1892,12.1892,12.1892,12.1892,12.1892,12.1892,12.1892,12.2322,12.3261,12.4187,12.5555,7.6653,7.9728,8.2879,8.6217,8.8764,9.0895,9.2566,9.4193,9.6149,9.8886,10.0205,10.1741,10.4502,10.4819,10.4885,10.576,10.5933,10.5933,10.5933,10.5933,10.5933,10.5933,10.7053,10.8805,11.1315,10.9311,11.095,11.8563,11.2124,11.1718,12.0522,11.9828,12.1053,12.522,12.9519,13.2616,13.4329,13.4719,13.4914,13.4914,13.4914,13.4914,13.4914,13.4914,13.4914,13.4914,13.4914,13.4914,13.4914,13.4914,13.4914,13.4914,13.4914,13.4914,13.4914,13.4914,13.4914,13.4914,13.4914,13.4914,13.5061,13.6266,13.6897,13.7487,13.9248,14.0029,14.0423,14.1106,14.135,14.135,14.135,14.135,13.9171,13.0649,12.6503,12.2921,11.739,11.6165,11.6165,11.6165,11.5924,11.5522,11.4918,11.4556,11.4154,11.355,11.2656,11.2093,11.2093,11.157,11.1208,11.1208,11.1449,11.2012,11.2897,11.5522,11.7453,11.8338,12.0551,12.1892,12.1892,12.1892,12.1892,12.1892,12.1892,12.1892,12.1892,12.2496,12.3261,12.416,12.4977,12.6009,7.7981,8.1208,8.417,8.7887,9.0662,9.268,9.3288,9.5104,9.7049,9.8282,9.9554,10.1203,10.3642,10.3357,10.3434,10.5593,10.5933,10.5933,10.5933,10.5933,10.5933,10.5933,10.5933,10.6868,10.9311,10.7334,10.8485,11.4724,10.9444,10.9262,11.6805,11.5922,11.7509,12.2682,12.7342,13.1071,13.3744,13.4524,13.4914,13.4914,13.4914,13.4914,13.4914,13.4914,13.4914,13.4914,13.4914,13.4914,13.4914,13.4914,13.4914,13.4914,13.4914,13.4914,13.4914,13.4914,13.4914,13.4914,13.4914,13.4914,13.5012,13.5783,13.6315,13.6946,13.8268,13.9151,13.9932,14.0569,14.1008,14.135,14.135,14.135,13.9962,13.4676,12.9174,12.3489,11.7888,11.6608,11.6608,11.6608,11.6608,11.6447,11.5844,11.5481,11.5079,11.4516,11.3349,11.2535,11.2535,11.1771,11.1208,11.1208,11.1208,11.1409,11.2012,11.4556,11.6528,11.7464,11.9948,12.153,12.1839,12.1892,12.1892,12.1892,12.1892,12.1892,12.1892,12.2831,12.3704,12.4644,12.5406,12.625,7.8931,8.1664,8.432,8.9974,9.2067,9.3136,9.47,9.6326,9.7551,9.7705,9.9011,10.0731,10.2745,10.2393,10.2712,10.5473,10.5933,10.5933,10.5933,10.5933,10.5933,10.5933,10.5933,10.5933,10.5933,10.5933,10.738,11.0998,10.7977,10.9079,11.6276,11.343,11.4991,12.2338,12.4911,12.7828,13.1438,13.3754,13.4914,13.4914,13.4914,13.4914,13.4914,13.4914,13.4826,13.4602,13.4826,13.4914,13.4914,13.4914,13.4914,13.4914,13.4914,13.4914,13.4914,13.4914,13.4914,13.4914,13.4914,13.4914,13.4914,13.4914,13.5685,13.6604,13.6653,13.8024,13.9639,13.9688,14.0423,14.1252,14.1155,14.1252,14.1301,14.1252,13.5007,12.6938,11.8968,11.7117,11.6913,11.6659,11.6608,11.6608,11.6608,11.5924,11.5361,11.5361,11.3832,11.2656,11.2656,11.1892,11.1329,11.1329,11.1329,11.1329,11.1329,11.3751,11.5683,11.6608,11.9051,12.0861,12.1839,12.1892,12.1892,12.1892,12.1892,12.1892,12.1892,12.2858,12.3798,12.4644,12.546,12.6305,8.212,8.7739,9.0629,9.3364,9.4686,9.5256,9.5118,9.5825,9.6592,9.6637,9.7496,9.8868,10.0845,10.0995,10.1976,10.5381,10.5933,10.5933,10.5933,10.5933,10.5933,10.5933,10.5933,10.5933,10.5933,10.5933,10.6355,10.7329,10.6494,10.6771,10.8668,11.0588,11.3743,11.8474,12.3508,12.6513,12.7257,13.2346,13.4914,13.4914,13.4914,13.4914,13.4914,13.4914,13.332,13.0689,13.3677,13.4914,13.4914,13.4914,13.4914,13.4914,13.4914,13.4914,13.4914,13.4914,13.4914,13.4914,13.4914,13.4914,13.4914,13.4914,13.5061,13.5495,13.6364,13.6999,13.7585,13.8415,13.9346,13.998,13.9199,14.013,14.1106,14.0325,13.4446,12.85,12.64,12.344,12.0376,11.7269,11.6608,11.6608,11.6608,11.6407,11.6286,11.6286,11.532,11.4596,11.4596,11.3742,11.3179,11.3179,11.3179,11.3179,11.3179,11.4475,11.5924,11.7585,11.881,12.0217,12.1865,12.1892,12.1892,12.1892,12.1892,12.1892,12.1892,12.3462,12.4348,12.4644,12.6104,12.6909,8.0616,8.7435,9.1996,9.4472,9.5377,9.5605,9.5156,9.5635,9.6122,9.5787,9.6385,9.7691,10.0083,10.02,10.1223,10.5294,10.5571,10.5451,10.5853,10.5933,10.5933,10.5933,10.5933,10.5933,10.5933,10.5933,10.5933,10.5933,10.5933,10.5933,10.5933,10.7931,11.0859,11.4635,12.0548,12.3552,12.3283,12.929,13.2297,13.2297,13.2297,13.2297,13.2297,13.2297,13.1184,12.9161,13.1407,13.332,13.4914,13.4914,13.4914,13.4914,13.4914,13.4914,13.4914,13.4914,13.4914,13.4914,13.4914,13.4914,13.4914,13.4914,13.4914,13.5012,13.5685,13.6266,13.6799,13.7341,13.8565,13.9639,13.9053,14.0081,14.1155,14.0569,13.5994,13.1297,12.9468,12.5763,12.1635,11.7431,11.6608,11.6608,11.6608,11.6608,11.6608,11.6608,11.5844,11.528,11.528,11.4475,11.3912,11.3912,11.3912,11.3912,11.3912,11.4757,11.6045,11.7907,11.8729,11.9976,12.1771,12.1892,12.1892,12.1892,12.1892,12.208,12.2496,12.3919,12.4736,12.5138,12.6491,12.7095,7.8522,8.5195,9.108,9.4237,9.508,9.508,9.508,9.5635,9.6015,9.5187,9.5605,9.6902,9.9615,9.9594,10.0548,10.4869,10.4997,10.4888,10.5812,10.5933,10.5933,10.5933,10.5933,10.5933,10.5933,10.5933,10.5933,10.5933,10.5933,10.5933,10.5933,10.5933,10.7656,11.145,11.6873,11.9605,11.9334,12.5298,12.8304,12.8304,12.8304,12.8304,12.8259,12.7761,12.7488,12.7488,12.8078,13.0197,13.332,13.332,13.3629,13.4118,13.4118,13.4426,13.4914,13.4914,13.4914,13.4914,13.4914,13.4914,13.4914,13.4914,13.4914,13.4914,13.4914,13.5637,13.6413,13.6413,13.7829,13.9346,13.9346,14.0228,14.1106,14.1106,13.8148,13.4154,12.9951,12.5763,12.1635,11.7431,11.6608,11.6608,11.6608,11.6608,11.6608,11.6608,11.5964,11.5441,11.5441,11.4757,11.4274,11.4274,11.4274,11.4274,11.4274,11.4878,11.6045,11.7907,11.8608,11.9815,12.1651,12.1839,12.1892,12.1892,12.1892,12.2322,12.3221,12.416,12.4977,12.5768,12.6733,12.7095,8.4726,9.0016,9.2566,9.4541,9.508,9.508,9.508,9.5635,9.6015,9.5187,9.5194,9.5851,9.7907,9.8714,10.0125,10.3204,10.4229,10.4888,10.5812,10.5933,10.5933,10.5933,10.5933,10.5933,10.5933,10.5933,10.5933,10.5933,10.5933,10.5933,10.5933,10.5933,10.7656,11.145,11.4144,11.5495,11.5311,12.1145,12.4106,12.4106,12.4106,12.4106,12.4014,12.0722,11.9266,11.9454,12.2675,12.4474,12.5117,12.5117,12.7079,13.0107,13.0107,13.203,13.4914,13.4914,13.4914,13.4914,13.4914,13.4914,13.4914,13.4914,13.4914,13.4914,13.4914,13.5012,13.5251,13.5251,13.6173,13.7194,13.7194,13.8565,14.0029,14.0029,13.7622,13.4154,12.9951,12.5763,12.1635,11.7431,11.6608,11.6608,11.6608,11.6608,11.6608,11.6608,11.6487,11.6367,11.6367,11.6246,11.6165,11.6165,11.6165,11.6165,11.6165,11.5602,11.6045,11.7907,11.8148,11.8982,12.066,12.1477,12.1892,12.1892,12.1892,12.2322,12.3221,12.416,12.4977,12.5768,12.6733,12.7095,8.2543,8.827,9.1497,9.2712,9.4047,9.508,9.508,9.5339,9.5484,9.5156,9.508,9.5622,9.7449,9.8157,9.9335,10.2064,10.3337,10.425,10.5089,10.5611,10.5933,10.5933,10.5933,10.5933,10.5933,10.5933,10.5933,10.5933,10.5933,10.5933,10.5933,10.5933,10.6771,10.8577,11.2443,11.3503,11.1394,11.7101,12.0021,12.0021,12.0021,12.0021,11.988,11.5902,11.5228,11.7285,11.9176,12.1188,12.3001,12.3001,12.4198,12.6122,12.8259,13.0242,13.2119,13.4162,13.4914,13.4914,13.4914,13.4914,13.4914,13.4914,13.4914,13.4914,13.4914,13.4914,13.4914,13.4914,13.5734,13.6653,13.6653,13.8219,13.9785,13.9785,13.9051,13.6747,13.0432,12.7523,12.4231,11.7888,11.6608,11.6608,11.6608,11.6608,11.6608,11.6608,11.6608,11.6608,11.6608,11.6608,11.6608,11.6608,11.6608,11.6608,11.6608,11.6206,11.6528,11.7907,11.8379,11.9171,12.0459,12.1396,12.1892,12.1892,12.1892,12.2563,12.3985,12.4402,12.5219,12.6491,12.6949,12.7095,8.0822,8.6638,9.0505,9.1682,9.3092,9.4396,9.4928,9.508,9.508,9.508,9.508,9.5494,9.6948,9.7449,9.8506,10.0916,10.2466,10.3666,10.4486,10.533,10.5933,10.5933,10.5933,10.5933,10.5933,10.5933,10.5933,10.5933,10.5933,10.5933,10.5933,10.5933,10.5933,10.5933,11.0516,11.1567,10.8696,11.3338,11.6167,11.719,11.6331,11.6378,11.709,11.3014,11.2917,11.5902,11.5902,11.7664,12.0488,12.0488,12.1002,12.2119,12.5254,12.7579,12.9431,13.2474,13.4162,13.4914,13.4914,13.4914,13.4914,13.4914,13.4914,13.4914,13.4914,13.4914,13.4914,13.4914,13.5544,13.6315,13.6604,13.8024,13.9444,13.9444,13.9685,13.801,13.0673,12.8354,12.5517,11.809,11.6608,11.6608,11.6608,11.6608,11.6608,11.6608,11.6608,11.6608,11.6608,11.6608,11.6608,11.6608,11.6608,11.6608,11.6608,11.6608,11.693,11.7665,11.8608,11.9493,12.0165,12.1115,12.1718,12.1892,12.1892,12.2778,12.4589,12.4589,12.546,12.7095,12.7095,12.7095,8.6313,9.0088,9.1644,9.4085,9.3092,9.2137,9.4503,9.508,9.508,9.508,9.508,9.5125,9.5245,9.6537,9.8023,9.921,10.1541,10.3531,10.4475,10.533,10.5933,10.5933,10.5933,10.5933,10.5933,10.5933,10.5933,10.5933,10.5933,10.5933,10.5933,10.5933,10.5933,10.5933,10.7237,10.8179,10.8648,10.9997,11.2865,11.7185,11.3495,11.3688,11.709,11.3014,11.1362,11.175,11.175,11.1943,11.2282,11.2282,11.4415,11.7758,11.8136,12.2721,12.9116,12.9523,13.1852,13.4914,13.4914,13.4914,13.4914,13.4914,13.4914,13.4914,13.4914,13.4914,13.4914,13.4914,13.4963,13.53,13.6364,13.7487,13.8366,13.8366,13.7087,13.4581,13.0047,12.6106,12.2084,11.7482,11.6608,11.6608,11.6608,11.6608,11.6608,11.6608,11.6608,11.6608,11.6608,11.6608,11.6608,11.6608,11.6608,11.6608,11.6608,11.6608,11.6648,11.6729,11.8246,11.916,11.928,12.0177,12.1022,12.1839,12.1892,12.2778,12.4589,12.4589,12.546,12.7095,12.7095,12.7095,7.7816,8.3487,8.7701,8.8688,9.0852,9.2864,9.3402,9.3516,9.3819,9.4852,9.508,9.508,9.508,9.6513,9.7864,9.8221,10.1152,10.3485,10.3848,10.5054,10.5933,10.5933,10.5933,10.5933,10.5933,10.5933,10.5933,10.5933,10.5933,10.5933,10.5933,10.5933,10.5933,10.5933,10.683,10.7763,10.8648,10.9534,11.1237,11.3592,11.1943,11.204,11.3544,11.1943,11.1208,11.1208,11.1208,11.1208,11.1208,11.1208,11.2137,11.3832,11.6283,11.9172,12.249,12.7306,13.0062,13.1719,13.4074,13.4914,13.4914,13.4914,13.4914,13.4914,13.4914,13.4914,13.4914,13.4914,13.4914,13.5012,13.5495,13.6906,13.8219,13.8219,13.8068,13.7014,13.3542,12.9561,12.5321,12.1185,11.8353,11.6608,11.6608,11.6608,11.6608,11.6608,11.6608,11.6608,11.6608,11.6608,11.6608,11.6608,11.6608,11.6608,11.6608,11.6608,11.6608,11.6608,11.7775,11.8459,11.8459,11.9775,12.07,12.1022,12.1598,12.2778,12.4589,12.4589,12.546,12.7095,12.7095,12.7095,7.2404,7.8601,8.4094,8.5119,8.827,9.1269,9.1953,9.1958,9.2414,9.4624,9.508,9.508,9.508,9.6302,9.7524,9.8104,10.0616,10.2818,10.3642,10.4773,10.5611,10.5893,10.5933,10.5933,10.5933,10.5933,10.5933,10.5933,10.5933,10.5933,10.5933,10.5933,10.606,10.6341,10.6951,10.7883,10.9051,10.9743,11.0419,11.1208,11.1208,11.1208,11.1208,11.1208,11.1208,11.1208,11.1208,11.1208,11.1208,11.1208,11.1208,11.1459,11.4319,11.614,11.79,12.3461,12.7034,12.9431,13.2208,13.3942,13.4914,13.4914,13.4914,13.4914,13.4914,13.4914,13.4914,13.4914,13.4914,13.4914,13.4914,13.632,13.7731,13.7731,13.876,13.8517,13.3929,13.0924,12.7479,12.2042,11.8605,11.6608,11.6608,11.6608,11.6608,11.6608,11.6608,11.6608,11.6608,11.6608,11.6608,11.6608,11.6608,11.6608,11.6608,11.6608,11.6608,11.6608,11.7504,11.7987,11.7987,11.9143,12.0016,12.0539,12.1155,12.2375,12.4187,12.4468,12.5314,12.6733,12.6974,12.7095,7.3965,7.8192,8.2082,8.5461,8.565,8.6144,9.024,9.0581,9.0966,9.4358,9.508,9.508,9.508,9.5673,9.6833,9.8777,9.9926,10.1471,10.4172,10.4566,10.4928,10.5812,10.5933,10.5933,10.5933,10.5933,10.5933,10.5933,10.5933,10.5933,10.5933,10.5933,10.6341,10.728,10.732,10.8165,10.9977,11.0017,11.0419,11.1208,11.1208,11.1208,11.1208,11.1208,11.1208,11.1208,11.1208,11.1208,11.1208,11.1208,11.1208,11.1208,11.1216,11.3688,11.7233,11.7327,12.2304,12.9071,12.9116,13.1674,13.4914,13.4914,13.4914,13.4914,13.4914,13.4914,13.4914,13.4914,13.4914,13.4914,13.4914,13.5783,13.6701,13.6701,13.8268,13.7497,12.9179,12.8267,12.6644,11.8302,11.6659,11.6608,11.6608,11.6608,11.6608,11.6608,11.6608,11.6608,11.6608,11.6608,11.6608,11.6608,11.6608,11.6608,11.6608,11.6608,11.6608,11.6608,11.7504,11.7987,11.7987,11.8028,11.8821,12.0499,12.0539,12.1437,12.3261,12.416,12.4977,12.5822,12.6733,12.7095,6.8131,7.452,8.1133,8.3906,8.5233,8.6827,9.0353,9.1459,9.2143,9.3775,9.4117,9.4117,9.4117,9.5337,9.6731,9.7894,9.9423,10.126,10.336,10.42,10.4888,10.5812,10.5933,10.5933,10.5933,10.5933,10.5933,10.5933,10.5933,10.5933,10.5933,10.5933,10.6341,10.728,10.732,10.8165,10.9977,11.0017,11.0419,11.1208,11.1208,11.1208,11.1208,11.1208,11.1208,11.1208,11.1208,11.1208,11.1208,11.1208,11.1208,11.1208,11.1208,11.1943,11.3447,11.6188,11.8796,12.1747,12.717,12.9883,13.1362,13.403,13.4914,13.4914,13.4914,13.4914,13.4914,13.4914,13.4914,13.4294,13.163,13.115,13.0992,12.9011,13.1641,13.4105,13.2251,13.0425,12.8306,12.5665,12.0535,11.6608,11.6608,11.6608,11.6608,11.6608,11.6608,11.6608,11.6608,11.6608,11.6608,11.6608,11.6608,11.6608,11.6608,11.6608,11.6608,11.6608,11.689,11.7051,11.7051,11.8126,11.9051,11.9614,12.0833,12.2027,12.3221,12.3556,12.4106,12.4977,12.5822,12.6185,6.6604,7.3438,8.0221,8.307,8.3868,8.4931,8.8494,8.9523,9.0054,9.1535,9.2105,9.2484,9.313,9.4682,9.6365,9.7873,9.884,10.0442,10.3351,10.3983,10.4572,10.5818,10.5933,10.5933,10.5933,10.5933,10.5933,10.5933,10.5933,10.5933,10.5933,10.5933,10.6502,10.7803,10.7803,10.8688,11.046,11.0452,11.0693,11.1208,11.1208,11.1208,11.1208,11.1208,11.1208,11.1208,11.1208,11.1208,11.1208,11.1208,11.1208,11.1208,11.1208,11.1208,11.1459,11.3983,11.5902,11.79,12.286,12.5574,12.7215,12.9656,13.0418,13.0734,13.2208,13.27,13.301,13.447,13.4914,13.403,13.0107,12.9352,12.882,12.5456,12.8502,13.2066,13.1549,13.0186,12.8597,12.7035,12.1285,11.6608,11.6608,11.6608,11.6608,11.6608,11.6608,11.6608,11.6608,11.6608,11.6608,11.6608,11.6608,11.6608,11.6608,11.6608,11.6608,11.6608,11.6608,11.6608,11.6608,11.7654,11.8528,11.9119,12.0257,12.1477,12.2737,12.2737,12.3167,12.4106,12.4561,12.4977,6.834,7.4213,7.9235,8.2614,8.2006,8.1627,8.5499,8.5726,8.5802,8.816,8.9257,9.032,9.1958,9.3629,9.5654,9.8314,9.8223,9.929,10.3721,10.3817,10.4054,10.5738,10.5933,10.5933,10.5933,10.5933,10.5933,10.5933,10.5933,10.5933,10.5933,10.5933,10.6744,10.8527,10.8608,10.9406,11.1087,11.1168,11.1208,11.1208,11.1208,11.1208,11.1208,11.1208,11.1208,11.1208,11.1208,11.1208,11.1208,11.1208,11.1208,11.1208,11.1208,11.1208,11.1208,11.1208,11.3592,11.6853,11.7138,11.9599,12.2675,12.2954,12.3001,12.3784,12.7488,12.8846,12.9838,13.3452,13.4519,13.3641,12.9437,12.9277,12.9104,12.4611,12.7525,13.0488,12.7482,12.7788,12.7479,12.3631,11.9513,11.6608,11.6608,11.6608,11.6608,11.6608,11.6608,11.6608,11.6608,11.6608,11.6608,11.6608,11.6608,11.6608,11.6608,11.6608,11.6608,11.6608,11.6608,11.6608,11.6608,11.6689,11.7493,11.9051,11.9171,11.9976,12.1651,12.1651,12.2134,12.3046,12.31,12.3623,6.6329,7.1707,7.6575,7.9234,8.284,8.5989,8.6976,8.7014,8.6862,8.6903,8.7549,8.8422,8.9527,9.1004,9.3136,9.6325,9.7385,9.8825,10.1917,10.2962,10.4054,10.5738,10.5933,10.5933,10.5933,10.5933,10.5933,10.5933,10.5933,10.5933,10.5933,10.5933,10.6462,10.7602,10.8286,10.9172,11.0299,11.0894,11.1208,11.1208,11.1208,11.1208,11.1208,11.1208,11.1208,11.1208,11.1208,11.1208,11.1208,11.1208,11.1208,11.1208,11.1208,11.1208,11.1208,11.1208,11.1798,11.3062,11.614,11.7805,11.9078,12.2072,12.3001,12.323,12.4198,12.6624,12.9251,13.0197,13.1032,12.9967,12.2894,12.3587,12.433,11.7046,11.9217,12.2695,12.1943,12.3126,12.3984,12.3036,11.9513,11.6608,11.6608,11.6608,11.6608,11.6608,11.6608,11.6608,11.6608,11.6608,11.6608,11.6608,11.6608,11.6608,11.6608,11.6608,11.6608,11.6608,11.6608,11.6608,11.6608,11.7343,11.7815,11.8258,11.885,11.9373,11.9815,11.9815,12.0257,12.1142,12.1892,12.2684,6.699,7.2295,7.6691,7.6465,7.969,8.2955,8.2955,8.3524,8.4056,8.398,8.4929,8.6296,8.789,8.9257,9.108,9.4041,9.6016,9.8272,10.1242,10.2706,10.4054,10.5738,10.5933,10.5933,10.5933,10.5933,10.5933,10.5933,10.5933,10.5933,10.5933,10.5933,10.6341,10.728,10.8205,10.9091,11.0025,11.0814,11.1208,11.1208,11.1208,11.1208,11.1208,11.1208,11.1208,11.1208,11.1208,11.1208,11.1208,11.1208,11.1208,11.1208,11.1208,11.1208,11.1208,11.1208,11.1208,11.1459,11.3688,11.4463,11.4798,11.6906,11.7616,11.7947,11.9786,12.1886,12.3968,12.5757,12.7129,12.6519,12.0216,12.0609,12.1054,11.4674,11.6768,12.0132,12.0132,12.123,12.225,12.225,11.9183,11.6608,11.6608,11.6608,11.6608,11.6608,11.6608,11.6608,11.6608,11.6608,11.6608,11.6608,11.6608,11.6608,11.6608,11.6608,11.6608,11.6608,11.6608,11.6608,11.6608,11.7091,11.7585,11.7987,11.8419,11.881,11.916,11.881,11.9051,11.9895,12.0028,12.0753,6.8817,7.3835,7.7489,7.4757,7.5855,7.7564,7.7564,7.8664,7.9917,8.0715,8.2196,8.4134,8.6445,8.7852,8.9413,9.1768,9.4182,9.7029,10.0617,10.2172,10.3631,10.5491,10.5692,10.5772,10.5893,10.5933,10.5933,10.5933,10.5933,10.5933,10.5933,10.5933,10.6301,10.7072,10.8125,10.9011,10.9775,11.0733,11.1208,11.1208,11.1208,11.1208,11.1208,11.1208,11.1208,11.1208,11.1208,11.1208,11.1208,11.1208,11.1208,11.1208,11.1208,11.1208,11.1208,11.1208,11.1208,11.1208,11.1208,11.1208,11.1208,11.1208,11.1208,11.1847,11.5276,11.6758,11.7758,12.0488,12.25,12.2918,11.873,11.8879,11.9063,11.4864,11.66,11.916,11.916,11.9919,12.0502,12.0502,11.8402,11.6608,11.6608,11.6608,11.6608,11.6608,11.6608,11.6608,11.6608,11.6608,11.6608,11.6608,11.6608,11.6568,11.6407,11.6528,11.6487,11.6206,11.6326,11.6326,11.6206,11.6326,11.6849,11.7735,11.7786,11.8097,11.8769,11.8097,11.8177,11.897,11.8298,11.8821,7.008,7.3261,7.5625,7.5779,7.6691,7.7564,7.7564,7.7754,7.8171,7.8931,8.0487,8.2158,8.402,8.6182,8.8266,9.0092,9.1295,9.3526,9.7909,9.9928,10.1903,10.4475,10.4767,10.5089,10.5853,10.5933,10.5933,10.5933,10.5933,10.5933,10.5933,10.5933,10.5973,10.614,10.7756,10.8729,10.885,11.0412,11.1208,11.1208,11.1208,11.1208,11.1208,11.1208,11.1208,11.1208,11.1208,11.1208,11.1208,11.1208,11.1208,11.1208,11.1208,11.1208,11.1208,11.1208,11.1208,11.1208,11.1208,11.1208,11.1208,11.1208,11.1208,11.1305,11.1943,11.451,11.6663,11.3791,11.6238,11.8735,11.4559,11.6786,11.9063,11.4864,11.4409,11.4864,11.4864,11.5595,11.6244,11.6244,11.6419,11.6608,11.6608,11.6608,11.6608,11.6608,11.6608,11.6608,11.6608,11.6608,11.6608,11.6608,11.6608,11.6326,11.5522,11.6165,11.5964,11.4435,11.5039,11.5119,11.4355,11.5079,11.5884,11.686,11.6809,11.689,11.701,11.689,11.7292,11.8137,11.8068,11.8499,7.0014,7.2913,7.54,7.4451,7.5207,7.6195,7.6195,7.688,7.7678,7.8019,7.9424,8.0981,8.2158,8.4436,8.6786,8.8991,9.0396,9.243,9.5994,9.8812,10.1304,10.3589,10.4292,10.4928,10.5812,10.5933,10.5933,10.5933,10.5933,10.5933,10.5933,10.5933,10.5933,10.5933,10.7716,10.8648,10.8648,11.0371,11.1208,11.1208,11.1208,11.1208,11.1208,11.1208,11.1208,11.1208,11.1208,11.1208,11.1208,11.1208,11.1208,11.1208,11.1208,11.1208,11.1208,11.1208,11.1208,11.1208,11.1208,11.1208,11.1208,11.1208,11.1208,11.1208,11.1208,11.2524,11.3592,11.1701,11.2816,11.4339,11.2914,11.425,11.5688,11.4238,11.3912,11.3791,11.3309,11.3912,11.4556,11.4556,11.528,11.6045,11.6528,11.6608,11.6608,11.6608,11.6608,11.6608,11.6608,11.6608,11.6608,11.6608,11.6165,11.5723,11.532,11.52,11.4596,11.3219,11.4033,11.4355,11.3952,11.4315,11.4958,11.5884,11.6367,11.6608,11.6608,11.6608,11.6809,11.7263,11.7263,11.7694,7.2052,0.0,7.6994,7.5286,7.5549,7.6195,0.0,7.6729,7.7298,7.7526,7.8778,8.0069,8.1057,8.3107,8.5461,8.7856,8.9409,9.1218,9.3909,9.6995,9.9844,10.2274,10.3623,10.4652,10.5531,10.5859,10.5933,10.5933,10.5933,10.5933,10.5933,10.5933,10.5933,10.5933,10.7514,10.8447,10.8648,11.017,11.1007,11.1208,11.1208,11.1208,11.1208,11.1208,11.1208,11.1208,11.1208,11.1208,11.1208,11.1208,11.1208,11.1208,11.1208,11.1208,11.1208,11.1208,11.1208,11.1208,11.1208,11.1208,11.1208,11.1208,11.1208,11.1208,11.1208,11.1208,11.1208,11.1208,11.1208,11.1369,11.2053,11.2374,11.2777,11.3711,11.3912,11.3791,11.3259,11.3751,11.4234,11.4234,11.4958,11.5803,11.6487,11.6608,11.6608,11.6608,11.6608,11.6608,11.6608,11.6608,11.6608,11.6608,11.5803,11.52,11.4958,11.4154,11.3228,11.2294,11.3107,11.351,11.3309,11.351,11.3903,11.4636,11.5522,11.6085,11.6286,11.6528,11.6608,11.6608,11.6608,11.697,0.0,8.007,8.1019,8.1588,8.0715,7.9765,7.9765,7.798,0.0,7.7374,7.8247,7.9311,8.0943,8.269,8.4437,8.6182,8.7166,8.857,9.1123,9.3137,9.5952,10.0191,10.2343,10.3813,10.4606,10.541,10.5933,10.5933,10.5933,10.5933,10.5933,10.5933,10.5933,10.5933,10.6871,10.7803,10.8648,10.9614,11.0452,11.1208,11.1208,11.1208,11.1208,11.1208,11.1208,11.1208,11.1208,11.1208,11.1208,11.1208,11.1208,11.1208,11.1208,11.1208,11.1208,11.1208,11.1208,11.1208,11.1208,11.1208,11.1208,11.1208,11.1208,11.1208,11.1208,11.1208,11.1208,11.1208,11.1208,11.1208,11.1248,11.1892,11.2777,11.3711,11.3912,11.4154,11.4918,11.5119,11.516,11.516,11.5924,11.6528,11.6608,11.6608,11.6608,11.6608,11.6608,11.6608,11.6608,11.6608,11.6608,11.6608,11.5803,11.4918,11.4113,11.3139,11.2254,11.1329,11.2133,11.2254,11.1409,11.2173,11.2656,11.2736,11.3671,11.4516,11.5361,11.6206,11.6608,11.6608,11.6608,11.6648,8.0563,8.1398,8.1815,8.1133,8.0867,8.0411,7.8892,7.779,7.6842,7.6157,7.6233,7.6918,7.8627,8.0715,8.2917,8.5119,8.7055,8.8991,9.0885,9.2257,9.4287,9.7648,10.123,10.3933,10.529,10.5209,10.5089,10.5089,10.4612,10.4572,10.5049,10.5089,10.5089,10.5089,10.6549,10.7481,10.7803,10.9252,11.0178,11.0452,11.0926,11.1208,11.1208,11.1208,11.1208,11.1208,11.1208,11.1208,0.0,11.1208,11.1208,11.1208,11.1208,11.1208,11.1208,11.1208,11.1208,11.1208,11.1208,11.1208,11.1208,11.1208,11.1208,11.1208,11.1208,11.1208,11.1208,11.1208,11.1208,11.1208,11.1208,11.1449,11.1932,11.2817,11.351,11.4033,11.4355,11.4878,11.528,11.528,11.5522,11.5964,11.6528,11.6608,11.6608,11.6608,11.6608,11.6608,11.6608,11.6608,11.6608,11.6608,11.532,11.4073,11.3098,11.2213,11.157,11.1208,11.153,11.153,11.1208,11.153,11.1972,11.2535,11.2857,11.355,11.4435,11.4757,11.524,11.5803,11.6367,11.6608,8.2575,8.3448,8.3902,8.3335,8.3221,8.2575,8.007,7.8893,7.7752,7.5473,7.5245,7.5853,7.7298,7.9386,8.1778,8.4511,8.6676,8.8764,9.0885,9.1953,9.3516,9.6214,9.9578,10.2397,10.4429,10.4584,10.4566,10.4566,10.3853,10.3652,10.4169,10.4405,10.4446,10.421,10.5663,10.6589,10.6871,10.8407,10.9453,11.0017,11.0251,11.0572,11.0814,11.0814,11.0814,11.0854,11.1087,11.1208,11.1208,11.1208,11.1208,11.1208,11.1208,11.1208,11.1208,11.1208,11.1208,11.1208,11.1208,11.1208,11.1208,11.1208,11.1208,11.1208,11.1208,11.1208,11.1208,11.1208,11.1208,11.1208,11.1208,11.1208,11.1409,11.2334,11.3018,11.3671,11.4234,11.4838,11.5361,11.5642,11.5683,11.5884,11.6487,11.6608,11.6608,11.6608,11.6608,11.6608,11.6608,11.6608,11.6487,11.6206,11.4838,11.355,11.2616,11.1691,11.1208,11.1208,11.1208,11.1208,11.1208,11.1208,11.1489,11.2093,11.2093,11.2535,11.351,11.351,11.3952,11.4878,11.5481,11.5924,8.5385,8.6903,8.7887,8.9599,8.8722,8.6824,8.4361,8.1855,7.9082,7.5701,7.559,7.6425,7.7374,7.893,8.1133,8.4398,8.5688,8.7473,9.0695,9.1915,9.3487,9.6057,9.7224,9.8825,10.1594,10.3543,10.4566,10.4566,10.3853,10.3415,10.3415,10.4129,10.421,10.3455,10.4169,10.5008,10.5893,10.683,10.8205,10.9936,10.9091,10.9131,10.9977,11.0017,11.0017,11.0057,11.0854,11.1208,11.1208,11.1208,11.1208,11.1208,11.1208,11.1208,11.1208,11.1208,11.1208,11.1208,11.1208,11.1208,11.1208,11.1208,11.1208,11.1208,11.1208,11.1208,11.1208,11.1208,11.1208,11.1208,11.1208,11.1208,11.1409,11.2294,11.2535,11.3067,11.4878,11.528,11.5522,11.6447,11.6608,11.6608,11.6608,11.6608,11.6608,11.6608,11.6608,11.6608,11.6608,11.6608,11.6286,11.5361,11.4435,11.35,11.2575,11.1691,11.1208,11.1208,11.1208,11.1208,11.1208,11.1208,11.1208,11.1208,11.1208,11.165,11.2535,11.2535,11.2978,11.3912,11.3912,11.4395,8.6027,8.728,8.7887,8.9599,8.9181,8.7435,8.3676,8.0905,7.8134,7.4792,7.335,7.3574,7.6121,7.7981,7.9994,8.2726,8.5382,8.7659,8.9295,9.07,9.2567,9.5299,9.6925,9.8723,10.0722,10.3138,10.4371,10.3813,10.2364,10.176,10.2404,10.2686,10.2686,10.2445,10.3289,10.3893,10.4134,10.5577,10.6583,10.7146,10.8205,10.8809,10.9091,10.9695,11.0017,11.0057,11.0854,11.1208,11.1208,11.1208,11.1208,11.1208,11.1208,11.1208,11.1208,11.1208,11.1208,11.1208,11.1208,11.1208,11.1208,11.1208,11.1208,11.1208,11.1208,11.1208,11.1208,11.1208,11.1208,11.1208,11.1208,11.1208,11.1248,11.153,11.2053,11.2857,11.4073,11.4838,11.5522,11.6447,11.6608,11.6608,11.6608,11.6608,11.6608,11.6608,11.6608,11.6608,11.6608,11.6608,11.6286,11.5361,11.3862,11.2575,11.165,11.1369,11.1208,11.1208,11.1208,11.1208,11.1208,11.1208,11.1208,11.1208,11.1208,11.1329,11.161,11.161,11.2053,11.2937,11.2937,11.347,8.561,8.671,8.7394,8.9105,8.9185,8.7818,8.3866,8.1322,7.8552,7.4529,7.2898,7.297,7.5286,7.7337,7.9766,8.2916,8.542,8.7777,8.9983,9.1117,9.2588,9.4884,9.647,9.8026,9.9783,10.1797,10.2758,10.2364,10.0996,10.0392,10.0956,10.1318,10.1519,10.1519,10.2409,10.2892,10.2892,10.4255,10.5255,10.5933,10.6663,10.7394,10.8125,10.8688,10.893,10.9011,11.017,11.0733,11.0733,11.1047,11.1208,11.1208,11.1208,11.1208,11.1208,11.1208,11.1208,11.1208,11.1208,11.1208,11.1208,11.1208,11.1208,11.1208,11.1208,11.1208,11.1208,11.1208,11.1208,11.1208,11.1208,11.1208,11.1208,11.1208,11.161,11.2254,11.3139,11.3832,11.4475,11.5361,11.5844,11.6085,11.6085,11.6367,11.6487,11.6125,11.6085,11.6085,11.6085,11.5763,11.532,11.4797,11.3429,11.2173,11.1248,11.1208,11.1208,11.1208,11.1208,11.1208,11.1208,11.1208,11.1208,11.1208,11.1208,11.1208,11.1208,11.1208,11.1489,11.2012,11.2012,11.2294,8.4436,8.5499,8.6486,8.8274,8.8654,8.7704,8.4323,8.231,7.969,7.4605,7.3619,7.3922,7.4752,7.7146,8.0221,8.4094,8.5726,8.789,9.1882,9.249,9.3136,9.4852,9.5848,9.7044,9.8717,9.9778,10.04,10.0579,9.9819,9.9253,9.9086,10.0016,10.0626,10.0674,10.1479,10.1921,10.1921,10.2852,10.4054,10.5577,10.4807,10.5376,10.7032,10.7159,10.7239,10.74,10.9131,10.9936,11.0057,11.0814,11.1128,11.1208,11.1208,11.1208,11.1208,11.1208,11.1208,11.1208,11.1208,11.1208,11.1208,11.1208,11.1208,11.1208,11.1208,11.1208,11.1208,11.1208,11.1208,11.1208,11.1208,11.1208,11.1208,11.1208,11.1208,11.1449,11.2334,11.2535,11.2817,11.3751,11.4596,11.516,11.516,11.5803,11.6085,11.528,11.516,11.516,11.516,11.4435,11.3872,11.3832,11.2937,11.2093,11.1248,11.1208,11.1208,11.1208,11.1208,11.1208,11.1208,11.1208,11.1208,11.1208,11.1111,11.1062,11.1062,11.0965,11.0965,11.1062,11.1062,11.1062,8.398,8.4625,8.4853,8.7166,8.7321,8.5954,8.2575,8.1057,7.8892,7.3805,7.3239,7.3732,7.3922,7.7641,8.1208,8.2726,8.5954,8.9029,9.115,9.2067,9.3136,9.4852,9.5848,9.6589,9.6922,9.8477,9.9502,9.9569,9.9458,9.8713,9.7292,9.87,9.9926,10.067,10.0875,10.0996,10.0996,10.1881,10.2525,10.2887,10.341,10.4215,10.5215,10.5899,10.6629,10.736,10.8487,10.9333,11.0065,11.0218,11.0613,11.1208,11.1208,11.1208,11.1208,11.1208,11.1208,11.1208,11.1208,11.1208,11.1208,11.1208,11.1208,11.1208,11.1208,11.1208,11.1208,11.1208,11.1208,11.1208,11.1208,11.1208,11.1208,11.1208,11.1208,11.1449,11.2334,11.2535,11.2817,11.3751,11.4073,11.4234,11.4234,11.4395,11.4435,11.4234,11.4234,11.4234,11.4234,11.4033,11.3671,11.2897,11.2012,11.1409,11.1208,11.1208,11.1208,11.1208,11.1208,11.1208,11.1208,11.1208,11.1208,11.1208,11.0381,10.9991,10.9991,10.9161,10.9161,10.9991,10.9991,10.9991,8.2613,8.3488,8.4096,8.5385,8.5688,8.5081,8.2917,8.2158,8.0639,7.6387,7.5552,7.5516,7.5516,7.8665,8.1778,8.3371,8.6562,8.9371,9.0961,9.1568,9.2484,9.4199,9.4828,9.5471,9.6339,9.7255,9.7892,9.8005,9.8454,9.8234,9.7226,9.7706,9.8388,9.9264,9.9264,9.9264,9.9264,10.0272,10.0978,10.1333,10.2261,10.2944,10.3286,10.3766,10.4491,10.5371,10.5782,10.6988,10.8681,10.8647,10.9184,10.9969,10.9969,10.9969,10.9969,10.9969,11.0251,11.0613,11.0613,11.0894,11.1047,11.0251,10.9969,10.9969,10.9969,10.9969,10.9969,10.9969,11.0291,11.0613,11.0613,11.0935,11.1208,11.1208,11.1208,11.1329,11.1771,11.1892,11.2053,11.2495,11.2937,11.3219,11.3219,11.3581,11.3791,11.3299,11.3219,11.3219,11.3219,11.2857,11.2415,11.1932,11.1489,11.1208,11.1208,11.1208,11.1208,11.1208,11.1208,11.1208,11.1208,11.1208,11.1208,11.1208,11.0186,10.965,10.965,10.8574,10.8328,10.8916,10.8916,10.8916,8.0404,8.1693,8.3184,8.3488,8.3904,8.4094,8.3336,8.326,8.2385,7.9159,7.8361,7.8095,7.783,8.0145,8.2803,8.4853,8.7587,8.9903,9.1226,9.153,9.2061,9.3357,9.3623,9.4275,9.5802,9.6083,9.633,9.6561,9.7117,9.7436,9.7319,9.6889,9.6899,9.7497,9.7714,9.7758,9.7758,9.8645,9.94,10.0028,10.0871,10.1349,10.1418,10.1418,10.1893,10.2718,10.2637,10.4108,10.6551,10.6421,10.7087,10.8126,10.8126,10.8126,10.8126,10.8126,10.8703,10.9536,10.9536,11.0066,11.0436,10.8703,10.8221,10.8364,10.8364,10.8506,10.8648,10.8648,10.9212,10.9775,10.9775,11.0371,11.0967,11.0967,11.1087,11.1208,11.1208,11.1208,11.1208,11.1208,11.1771,11.2294,11.2294,11.2897,11.3228,11.2415,11.2294,11.2294,11.2294,11.165,11.1208,11.1208,11.1208,11.1208,11.1208,11.1208,11.1111,11.0965,11.0916,11.0868,11.0673,11.0673,11.0673,11.0673,10.965,10.9112,10.9112,10.8034,10.7641,10.7788,10.7788,10.7788,7.7076,7.8681,8.0905,8.2233,8.2157,8.1512,8.0753,8.1095,8.0829,7.8247,7.9348,8.0335,7.8855,8.2422,8.5726,8.6068,8.9489,9.211,9.2294,9.294,9.3206,9.2756,9.3282,9.3781,9.4028,9.4758,9.5579,9.6402,9.5801,9.5453,9.5407,9.6144,9.6634,9.6607,9.7358,9.7758,9.7758,9.7891,9.8019,9.8137,9.827,9.8741,9.9513,9.9513,9.9983,10.0852,10.0832,10.1903,10.3587,10.3603,10.4505,10.5973,10.5973,10.5973,10.5973,10.5973,10.6587,10.7517,10.7517,10.8129,10.8637,10.6634,10.6555,10.7318,10.7318,10.7937,10.8648,10.8648,10.8729,10.885,10.885,10.9494,11.0178,11.0178,11.0693,11.1208,11.1208,11.1208,11.1208,11.1208,11.1288,11.1369,11.1369,11.1489,11.1489,11.1369,11.1369,11.1369,11.1369,11.1248,11.1208,11.1208,11.1208,11.1208,11.1208,11.1208,11.0819,10.9894,10.9845,10.9454,10.8525,10.8476,10.8476,10.8476,10.7444,10.6903,10.6903,10.5904,10.5855,10.6706,10.6706,10.6706,7.1836,7.3082,7.4692,7.4863,7.5008,7.5653,7.7498,7.743,7.7519,7.9274,7.9709,8.0012,8.0673,8.3371,8.5878,8.6786,8.8915,9.0629,9.1042,9.1383,9.1649,9.1763,9.2061,9.2441,9.2978,9.3775,9.4447,9.4847,9.4503,9.4523,9.5004,9.4992,9.5182,9.5624,9.5521,9.5743,9.6205,9.6779,9.7046,9.7046,9.7536,9.7731,9.7589,9.7589,9.8139,9.8954,9.8363,9.9423,10.1601,10.1008,10.1755,10.3353,10.3353,10.3713,10.4143,10.4143,10.474,10.556,10.556,10.5529,10.537,10.4427,10.4427,10.4946,10.5511,10.5988,10.6497,10.7012,10.7474,10.7883,10.7883,10.8568,10.9252,10.9252,10.9936,11.0532,11.0532,11.0894,11.1208,11.1208,11.1208,11.1208,11.1208,11.1208,11.1208,11.1208,11.1208,11.1208,11.1208,11.1208,11.1208,11.1208,11.1208,11.1208,11.1208,11.0673,11.0138,10.965,10.9112,10.8574,10.8083,10.7614,10.7428,10.7428,10.6403,10.5864,10.5864,10.528,10.5211,10.5657,10.5657,10.5657,6.6923,6.7997,6.9383,6.8899,6.9272,7.0577,7.3448,7.3473,7.3906,7.7701,7.8444,7.8784,7.9895,8.279,8.5175,8.601,8.7987,8.9561,8.9941,9.0358,9.07,9.0847,9.1074,9.1416,9.2105,9.2902,9.332,9.3092,9.3427,9.3965,9.4655,9.4269,9.4231,9.4693,9.4041,9.4003,9.4693,9.5363,9.5834,9.6109,9.6779,9.6734,9.6065,9.6065,9.6455,9.707,9.6256,9.7251,9.9342,9.8573,9.932,10.0894,10.07,10.1243,10.2174,10.2027,10.2681,10.357,10.31,10.261,10.2213,10.2213,10.2401,10.2775,10.357,10.3989,10.4362,10.5291,10.6096,10.6671,10.6904,10.7642,10.8326,10.8326,10.9011,10.9735,10.9936,11.0291,11.0564,11.0806,11.0894,11.0894,11.0894,11.1047,11.1208,11.1208,11.1208,11.1128,11.0935,11.0894,11.0766,11.0564,11.0524,11.0508,11.0507,10.958,10.8861,10.8562,10.7585,10.693,10.6637,10.6104,10.5754,10.5754,10.4978,10.4627,10.4627,10.4408,10.4432,10.4709,10.4709,10.4774,6.3159,6.4819,6.7383,6.794,6.8102,6.8212,6.843,6.9532,7.057,7.0855,7.448,7.6847,7.4367,7.9993,8.4368,8.278,8.7284,9.0809,9.0092,9.1345,9.1801,9.0244,9.0695,9.1188,9.1226,9.2067,9.2219,9.1378,9.2782,9.3737,9.3775,9.4541,9.4617,9.3813,9.3737,9.3737,9.3775,9.3819,9.4282,9.5169,9.5169,9.5169,9.5169,9.5169,9.5125,9.5163,9.5118,9.5612,9.641,9.6364,9.7398,9.8812,9.8098,9.8698,9.9982,9.9231,10.0068,10.1347,9.9681,9.9497,10.0058,10.0058,10.0765,10.1565,10.1612,10.2315,10.3289,10.4362,10.468,10.4906,10.5788,10.671,10.74,10.74,10.8085,10.897,10.9816,10.9373,10.9051,10.9896,11.0057,11.0057,11.0057,11.0693,11.1208,11.1208,11.1208,11.0886,11.0178,11.0057,10.9735,10.889,10.8809,10.875,10.8582,10.7763,10.6781,10.5655,10.4737,10.3754,10.2777,10.269,10.2652,10.2652,10.2642,10.2594,10.2594,10.2583,10.3001,10.3847,10.3847,10.4303,5.7822,5.8531,5.9586,6.0252,6.0404,6.1185,6.422,6.3661,6.373,6.7999,6.9708,7.0811,7.2005,7.5229,7.7801,7.8042,8.1401,8.4345,8.5583,8.8316,9.0135,9.0016,9.0244,9.0391,9.0391,9.07,9.0966,9.115,9.172,9.2516,9.3661,9.3553,9.3516,9.3699,9.3206,9.2902,9.2902,9.2902,9.3136,9.344,9.344,9.344,9.344,9.344,9.3705,9.4199,9.4199,9.4648,9.5491,9.5491,9.6129,9.707,9.685,9.742,9.8369,9.8065,9.8715,9.9567,9.8394,9.8179,9.8407,9.8407,9.8982,9.9821,10.0521,10.1327,10.2221,10.3289,10.357,10.3663,10.3989,10.4832,10.5544,10.5544,10.6691,10.7883,10.8205,10.8487,10.8769,10.9091,10.9131,10.9131,10.9131,10.9373,10.9768,11.0379,10.9929,10.9446,10.9172,10.856,10.801,10.7691,10.7032,10.6665,10.6597,10.566,10.4948,10.4486,10.3541,10.2856,10.2469,10.1938,10.1672,10.1672,10.1672,10.1672,10.1672,10.2203,10.2621,10.2925,10.2925,10.3077,5.4491,5.4605,5.4747,5.541,5.5514,5.6315,5.9466,5.8741,5.8725,6.3113,6.4742,6.5789,6.7345,7.0344,7.2638,7.2817,7.6811,8.0454,8.2027,8.6024,8.9033,8.9565,8.9827,9.0016,9.0016,9.0016,9.0244,9.0733,9.1037,9.1644,9.2782,9.2636,9.2598,9.282,9.2636,9.2376,9.2067,9.2376,9.2528,9.2528,9.2528,9.2528,9.2528,9.2528,9.2832,9.3282,9.3282,9.3623,9.4161,9.4161,9.4845,9.5787,9.5476,9.6281,9.7542,9.723,9.7458,9.7791,9.7306,9.7352,9.758,9.758,9.796,9.847,9.9166,9.9781,10.042,10.1755,10.2113,10.2284,10.2837,10.3523,10.4129,10.4501,10.5544,10.6537,10.7146,10.7514,10.7836,10.8165,10.8205,10.8205,10.8205,10.8447,10.885,10.9453,10.9051,10.8648,10.8648,10.7507,10.6525,10.6294,10.5308,10.4704,10.4643,10.3703,10.31,10.3072,10.217,10.1586,10.1586,10.1102,10.0799,10.0799,10.0799,10.0799,10.0799,10.1368,10.1738,10.2052,10.2052,10.2203,5.3455,5.3426,5.3568,5.4085,5.4227,5.419,5.4255,5.5202,5.6092,5.6092,5.9745,6.2302,6.0165,6.5372,6.9296,6.7199,7.3951,7.953,7.9718,8.483,8.8604,8.8768,8.9485,8.9979,8.9979,8.9979,8.9979,9.0016,9.0695,9.115,9.1188,9.1991,9.2067,9.1188,9.2029,9.2029,9.115,9.2029,9.249,9.249,9.2528,9.2528,9.2528,9.2528,9.2528,9.2566,9.2566,9.2604,9.2604,9.2604,9.3553,9.4966,9.4079,9.5256,9.739,9.6501,9.6197,9.6197,9.6197,9.6774,9.7504,9.7504,9.7542,9.7542,9.7542,9.758,9.7916,9.9736,10.0245,10.0624,10.237,10.2884,10.3164,10.4229,10.4462,10.4979,10.6798,10.6542,10.6174,10.7072,10.728,10.728,10.728,10.8004,10.8568,10.8608,10.8561,10.852,10.852,10.6861,10.5367,10.4581,10.3523,10.2892,10.2713,10.1886,10.1307,10.116,10.0381,9.9878,9.984,9.9878,9.9878,9.984,9.984,9.984,9.984,9.984,10.0343,10.1188,10.1188,10.1558,5.3455,5.3113,5.2914,5.3504,5.3674,5.3788,5.417,5.4511,5.4804,5.4804,5.656,5.7923,5.7309,5.9551,6.1562,6.181,6.6087,7.0924,7.5474,7.9713,8.3743,8.741,8.8612,8.9147,8.9147,8.9147,8.9413,8.9979,9.0206,9.0543,9.115,9.1416,9.1416,9.1145,9.1416,9.115,9.0358,9.1112,9.153,9.153,9.2224,9.2528,9.2528,9.2528,9.287,9.3357,9.3357,9.3781,9.4358,9.4358,9.4662,9.5042,9.4769,9.5111,9.5681,9.5453,9.5377,9.5377,9.5377,9.5529,9.5764,9.5764,9.6174,9.6577,9.6577,9.704,9.7664,9.8169,9.8337,9.8422,9.8928,9.9567,10.0321,10.1266,10.1978,10.3001,10.4893,10.5125,10.5231,10.6122,10.6301,10.6301,10.6301,10.6502,10.6911,10.7602,10.6551,10.573,10.573,10.4596,10.3384,10.2409,10.1377,10.0556,9.9931,9.9664,9.9265,9.8643,9.89,9.8825,9.8217,9.8787,9.8825,9.8217,9.8217,9.8217,9.8217,9.8217,9.8377,9.8605,9.8605,9.9014,5.0355,4.9993,5.0069,5.1472,5.1427,5.1519,5.3127,5.3326,5.3233,5.3809,5.469,5.5429,5.5751,5.6604,5.761,5.8567,6.2435,6.7066,7.2143,7.6597,8.118,8.585,8.5594,8.5645,8.7046,8.7814,8.8612,8.9489,8.9485,8.9865,9.0619,9.0657,9.0657,9.0657,9.0999,9.0809,9.0016,9.0771,9.0999,9.0695,9.1231,9.1502,9.1502,9.1502,9.1877,9.263,9.3054,9.3516,9.4016,9.4016,9.4161,9.4503,9.4503,9.4693,9.4966,9.4237,9.4016,9.4016,9.4016,9.4016,9.4016,9.4016,9.4269,9.4762,9.5059,9.5559,9.6091,9.6812,9.7002,9.7078,9.7504,9.7994,9.8622,9.9536,10.0159,10.0966,10.2528,10.3477,10.4177,10.4685,10.5097,10.5476,10.5887,10.5615,10.5284,10.4986,10.4348,10.3943,10.3943,10.3069,10.2089,10.1071,10.011,9.9168,9.8339,9.761,9.7154,9.7002,9.7458,9.745,9.704,9.7799,9.8027,9.758,9.758,9.758,9.758,9.758,9.758,9.758,9.758,9.7466,4.5823,4.572,4.6324,4.8533,4.8273,4.8253,0.0,5.126,5.1203,5.2622,5.3346,5.3983,5.4767,5.5457,5.6178,5.6842,6.1055,6.5534,6.9077,7.3996,7.8715,8.2809,8.0635,8.0259,8.3895,8.5687,8.7173,8.846,8.8654,8.9033,8.9827,8.9865,8.9903,9.0016,9.0657,9.0695,9.0016,9.0771,9.0809,9.013,9.0244,9.0282,9.0282,9.0282,9.0662,9.1378,9.2181,9.2528,9.2528,9.2528,9.2902,9.3585,9.3585,9.4085,9.4624,9.306,9.2528,9.2528,9.2528,9.2528,9.2528,9.2528,9.2528,9.268,9.3357,9.3585,9.3889,9.5363,9.5818,9.597,9.6774,9.7086,9.7345,9.8253,9.8597,9.8903,10.0063,10.1604,10.2758,10.2896,10.3576,10.4409,10.5196,10.472,10.3648,10.1772,10.2134,10.2595,10.2595,10.1792,10.0916,10.0083,9.9251,9.8461,9.7672,9.6091,9.5446,9.6046,9.6159,9.6197,9.6084,9.685,9.7238,9.7162,9.7086,9.701,9.701,9.701,9.701,9.701,9.701,9.6212,0.0,0.0,0.0,0.0,0.0,0.0,0.0,4.6716,4.6993,4.9218,5.0176,5.1097,5.2721,5.3894,5.4823,5.5486,5.689,5.9549,6.4085,6.6582,6.9241,7.2772,7.2649,7.4279,7.9452,8.0823,8.2836,8.6509,8.7397,8.8156,8.9033,8.9071,8.9375,8.9979,9.0168,9.0168,9.0016,9.0771,9.1112,9.0961,9.1687,9.2034,9.2034,9.2034,9.2148,9.23,9.2452,9.2528,9.2528,9.2528,9.2642,9.2756,9.2756,9.287,9.2984,9.2642,9.2528,9.2528,9.2528,9.2528,9.2528,9.2528,9.2528,9.2566,9.2718,9.2756,9.2788,9.313,9.325,9.3288,9.3478,9.3965,9.4655,9.5609,9.6294,9.7246,9.8903,9.954,10.0022,10.0885,10.1139,10.1348,10.1525,10.1937,10.191,10.0865,10.0178,9.975,9.975,9.8944,9.8269,9.8131,9.7932,9.7764,9.758,9.6623,9.5787,9.5301,9.5901,9.5894,9.5301,9.5415,9.5187,9.4458,9.3813,9.3516,9.3516,9.3516,9.3516,9.3516,9.3516,9.3326,0.0,0.0,0.0,0.0,0.0,0.0,0.0,0.0,0.0,0.0,0.0,4.7999,4.9802,0.0,5.2436,5.3659,5.4861,5.7252,6.1655,6.3164,6.4242,6.5629,6.6724,6.9256,7.4051,7.679,7.9609,8.2868,8.5056,8.6748,8.808,8.8156,8.8536,8.9413,8.9409,8.9599,9.0016,9.0353,9.0581,9.0581,9.1042,9.1231,9.1231,9.1231,9.1459,9.1839,9.1839,9.2105,9.2528,9.2528,9.2528,9.2452,9.1573,9.1231,9.1231,9.1231,9.1231,9.1231,9.1231,9.1231,9.1231,9.1231,9.1231,9.1307,9.1725,9.1839,9.1953,9.237,9.2528,9.2528,9.2528,9.2832,9.325,9.3667,9.4079,9.4744,9.6038,9.707,9.7991,9.8954,9.9472,9.9881,10.0422,9.9645,9.8804,9.8426,9.8284,9.8278,9.8278,9.7475,9.6736,9.6326,9.5908,9.5491,9.5111,9.499,9.461,9.3819,9.4155,9.4193,9.3781,9.3781,9.3591,9.3092,9.2756,9.2528,9.2528,9.2528,9.2528,9.2528,9.1654,9.1459,0.0,0.0,0.0,0.0,0.0,0.0,0.0,0.0,0.0,0.0,0.0,0.0,0.0,0.0,0.0,5.1559,5.3509,5.5996,5.9257,6.0177,6.0384,6.0078,6.1644,6.4361,6.8415,7.2186,7.5412,7.7876,8.1449,8.4268,8.5916,8.6647,8.7473,8.854,8.8536,8.884,8.9523,8.9675,8.9789,8.9789,8.9941,0.0,9.0016,9.0016,9.0358,9.0961,9.0961,9.1383,9.2034,9.2034,9.2034,9.1882,9.0168,8.9523,8.9523,8.9523,8.9523,8.9523,8.9523,8.9523,8.9561,8.9713,8.9789,8.9903,9.0695,9.0961,0.0,9.1801,9.2034,9.2034,9.2034,9.2186,9.2256,9.2256,9.237,9.2718,9.332,9.4624,9.5891,9.6583,9.7391,9.8195,9.9051,9.7287,9.5666,9.5514,9.6395,9.6972,9.6668,9.5977,9.5218,9.4389,9.3471,9.2864,9.2566,9.2788,9.2902,9.2794,9.2452,9.2105,9.1844,9.1654,9.1578,9.1578,9.1426,9.1578,9.2034,9.2034,9.2034,9.1996,8.9143,8.8494,0.0,0.0,0.0,0.0,0.0,0.0,0.0,0.0,0.0,0.0,0.0,0.0,0.0,0.0,0.0,0.0,5.1709,5.3791,5.4282,5.4376,5.48,5.5761,5.6611,5.8674,6.2733,6.5212,6.7947,7.1181,7.5719,7.908,8.0668,8.3621,0.0,0.0,0.0,8.7659,8.7773,8.8536,8.8957,8.8957,8.9675,9.0016,9.0016,9.0016,9.0054,9.013,9.013,9.0206,9.0282,9.0282,9.0282,9.013,8.8418,8.7773,8.7773,8.7773,8.7773,8.7773,8.7773,0.0,0.0,8.8688,8.8957,8.9109,8.9903,9.013,9.0168,9.0244,9.0282,9.0282,9.0282,9.0771,9.1302,9.1302,9.1953,9.2566,9.2642,9.2843,9.2963,9.3121,9.3762,9.4295,9.4428,9.4174,9.3737,9.306,9.4313,9.4814,9.3288,9.3022,9.2598,9.1682,9.0928,0.0,9.2414,9.1231,9.1307,9.3433,9.2137,9.07,8.9299,8.846,8.8039,8.8039,8.7359,8.808,9.0282,9.0282,9.0282,9.013,8.3219,8.1664,0.0,0.0,0.0,0.0,0.0,0.0,0.0,0.0,0.0,0.0,0.0,0.0,0.0,0.0,0.0,0.0,4.9916,5.109,5.0778,5.1991,5.3227,5.4073,5.469,5.5847,5.7946,6.1056,6.3904,6.6131,7.0368,7.3297,7.4407,7.8065,8.061,8.1786,8.4117,8.5802,8.6789,8.7169,8.7587,8.8042,8.8342,8.8532,8.8532,8.8532,8.8532,8.8532,8.8532,8.8532,8.8532,8.8532,8.8532,8.8342,0.0,0.0,0.0,0.0,8.709,8.7469,8.7469,8.7469,8.7545,8.7928,8.8042,8.8118,8.8418,8.8532,8.8608,8.9143,8.9337,8.9451,8.9865,9.0244,9.0467,9.0467,9.0776,9.1193,9.1649,9.1763,9.1915,9.2452,9.2794,0.0,9.2289,9.2674,9.2902,9.2604,9.3516,9.4003,9.3282,9.3206,9.2864,9.2029,9.115,9.0961,9.1644,9.1074,0.0,0.0,0.0,9.1421,9.0244,8.9822,0.0,0.0,0.0,8.5802,8.6413,8.4396,0.0,0.0,7.835,7.6704,0.0,0.0,0.0,0.0,0.0,0.0,0.0,0.0,0.0,0.0,0.0,0.0,0.0,0.0,0.0,0.0,4.7552,4.8669,4.8136,4.987,5.1424,5.2088,5.3276,5.4057,5.417,5.7439,6.0009,6.1056,6.5068,6.7697,6.8268,7.2305,7.4856,7.5498,7.9568,8.1976,8.2238,8.4499,8.5432,8.5097,8.6263,8.6786,8.6786,8.6786,8.6786,8.6786,8.6786,8.6786,8.6786,8.6786,8.6786,8.6597,8.4889,8.4244,8.432,8.4965,8.5572,8.5981,8.5046,8.476,8.4634,8.388,8.3665,8.3904,8.5033,8.5583,8.6089,8.7679,8.8312,8.8574,8.9181,8.9291,8.9291,8.9291,8.9485,8.9827,9.0434,9.0695,9.1037,9.173,9.1654,9.1345,9.0923,9.1573,9.2067,9.1882,9.2712,9.3206,9.275,9.2674,9.237,9.1616,9.07,9.0353,9.0809,9.0429,9.0733,9.2067,9.1768,9.1307,9.0847,9.0202,8.9443,8.865,8.5992,8.4094,0.0,0.0,0.0,0.0,0.0,0.0,0.0,0.0,0.0,0.0,0.0,0.0,0.0,0.0,0.0,0.0,0.0,0.0,0.0,0.0,0.0,0.0,0.0,0.0,4.6256,4.717,4.8212,4.8839,5.1639,5.2999,5.174,5.3881,5.5436,5.5465,5.9807,6.2477,6.2629,6.7068,6.9667,6.985,7.4384,7.5271,7.2,7.9923,8.2242,7.9082,8.3065,8.5043,8.5043,8.5043,8.5043,8.5043,8.5043,8.5043,8.5043,8.5043,8.5043,8.4813,8.3181,8.2498,8.2498,8.2536,8.2574,8.2105,7.8961,7.7855,7.7481,7.493,7.4107,7.4856,7.8887,8.0772,8.2162,8.5476,8.6941,8.7507,8.7545,8.7545,8.7545,8.7545,8.8232,8.8882,8.8882,8.9485,9.0054,9.0092,8.9489,8.9185,8.9903,9.0695,9.0961,9.0206,9.1502,0.0,9.032,9.013,8.9827,8.9033,8.8156,8.8228,8.9903,8.8532,8.8646,9.1074,8.9789,8.9299,9.0016,8.7739,8.603,8.5119,8.4246,8.2994,8.1322,0.0,0.0,0.0,0.0,0.0,0.0,0.0,0.0,0.0,0.0,0.0,0.0,0.0,0.0,0.0,0.0,0.0,0.0,0.0,0.0,0.0,0.0,0.0,0.0,4.5021,4.6904,4.7884,4.8595,4.8969,4.9062,5.06,5.1744,5.2097,5.5093,5.695,5.6994,6.1009,6.3565,6.4007,6.8091,7.0243,7.0112,7.287,7.3936,7.3322,7.5191,7.724,7.9408,7.9837,8.1205,8.3257,8.3257,8.3257,8.3257,8.3257,7.9519,7.3702,7.3099,7.2886,7.2921,7.3562,7.3811,7.3726,7.3124,7.2905,7.2782,7.1917,7.1884,7.2553,7.3912,7.4849,7.5814,7.7474,7.9739,8.1809,8.2321,8.4098,8.5954,8.6562,8.6941,8.7283,8.7852,8.8115,8.8494,8.9105,8.8122,8.6676,8.5231,8.7549,8.8764,8.622,8.9181,9.1416,9.0847,9.0771,9.0657,9.0434,8.9632,8.9409,8.9941,8.9485,8.9481,9.0358,8.9903,8.9485,8.9261,8.8426,8.7549,8.6635,8.584,8.2132,7.5465,0.0,0.0,0.0,0.0,0.0,0.0,0.0,0.0,0.0,0.0,0.0,0.0,0.0,0.0,0.0,0.0,0.0,0.0,0.0,0.0,0.0,0.0,0.0,0.0,0.0,0.0,4.6166,4.6214,0.0,4.64,4.724,4.7978,4.8566,5.0693,5.216,5.2551,5.5674,5.78,5.8427,6.2503,6.4516,6.4348,6.6966,6.807,6.7607,6.9158,7.1226,7.3548,7.396,7.5295,7.7269,7.7269,7.7269,7.7271,7.6839,7.2729,6.6724,6.6724,6.6425,6.6126,6.7208,6.7578,6.7712,6.8683,6.8416,6.7575,6.7575,6.6763,6.5956,6.7123,6.7711,6.8382,7.0508,7.3072,7.5658,7.7672,7.9212,8.0894,8.3841,8.4045,8.4081,8.5745,8.641,8.6193,8.5093,8.5147,8.4663,8.2384,8.4284,8.5615,8.402,8.6486,8.9063,9.0543,9.0733,9.0733,9.0733,9.0278,9.0016,9.0016,8.9751,8.9561,8.9561,8.9295,8.8878,8.8346,8.8042,8.7093,8.5268,8.3296,7.8649,0.0,0.0,0.0,0.0,0.0,0.0,0.0,0.0,0.0,0.0,0.0,0.0,0.0,0.0,0.0,0.0,0.0,0.0,0.0,0.0,0.0,0.0,0.0,0.0,0.0,0.0,0.0,4.369,4.4313,0.0,0.0,0.0,0.0,4.4736,4.6531,4.8128,4.9194,5.1052,5.2458,5.3227,5.7473,5.8269,5.5202,6.2138,6.4363,6.1806,6.4935,6.6868,6.7642,6.7675,6.7789,6.794,6.794,6.794,6.7839,6.6164,6.4766,6.3637,6.3505,6.2735,6.1829,6.3069,6.3502,6.3736,6.5092,6.3877,6.1675,6.1675,5.8673,5.558,5.8759,5.9433,0.0,0.0,6.6929,6.9199,7.3376,7.297,7.3047,7.9175,7.9654,7.956,8.2459,8.3971,8.3251,7.8119,8.0261,8.2262,8.0409,0.0,8.0901,8.2451,8.3136,8.492,8.9008,8.9818,9.0016,9.0016,9.0016,8.9979,8.9941,8.9261,8.8806,8.8768,8.7928,8.7394,8.7356,8.6363,8.4276,8.0941,7.6639,0.0,0.0,0.0,0.0,0.0,0.0,0.0,0.0,0.0,0.0,0.0,0.0,0.0,0.0,0.0,0.0,0.0,0.0,0.0,0.0,0.0,0.0,0.0,0.0,0.0,0.0,3.7752,3.9243,4.1618,4.0119,3.8983,0.0,0.0,0.0,0.0,0.0,0.0,4.4932,4.6148,4.8014,5.0483,5.171,5.3011,5.4483,5.6363,5.6981,5.6271,5.7631,5.9648,6.225,6.2751,6.4354,6.673,6.673,6.673,6.6061,5.793,5.4349,5.3875,5.2064,5.1407,5.1611,5.192,5.2049,5.24,5.5101,5.5252,5.4341,5.481,5.3815,5.237,5.1866,0.0,0.0,0.0,0.0,6.0992,6.343,6.7585,7.1294,7.2218,7.5671,7.7863,7.4665,7.8298,7.9487,7.0417,6.9493,6.8894,6.4748,6.6609,0.0,6.7844,7.4338,8.0203,8.2708,8.7124,9.0016,9.0016,9.0016,8.9751,8.9185,8.8957,8.8578,8.7849,8.7093,8.6296,8.565,8.1144,7.7694,7.5643,0.0,0.0,0.0,0.0,0.0,0.0,0.0,0.0,0.0,0.0,0.0,0.0,0.0,0.0,0.0,0.0,0.0,0.0,0.0,0.0,0.0,0.0,0.0,0.0,0.0,0.0,0.0,3.4826,3.6442,3.8666,3.6524,3.5191,0.0,0.0,0.0,0.0,0.0,0.0,0.0,0.0,0.0,4.6757,4.7002,4.7965,4.9797,5.1175,5.1821,5.1885,5.3615,5.5578,5.7619,5.8008,5.9228,6.0998,6.0998,5.9931,5.7765,5.2072,4.848,4.6387,0.0,0.0,0.0,0.0,4.4809,4.5363,4.77,4.8421,4.8433,4.8802,0.0,0.0,0.0,0.0,0.0,0.0,0.0,5.4514,5.7996,6.189,6.5415,6.7392,6.9741,7.1023,6.9357,6.9987,6.8719,6.1385,6.1355,6.1319,5.7429,5.8918,0.0,0.0,0.0,7.5763,7.9219,8.5066,8.8873,8.8873,8.8873,8.8059,8.6103,8.6683,8.5632,8.2064,8.3577,8.2565,7.8051,7.5432,7.1951,0.0,0.0,0.0,0.0,0.0,0.0,0.0,0.0,0.0,0.0,0.0,0.0,0.0,0.0,0.0,0.0,0.0,0.0,0.0,0.0,0.0,0.0,0.0,0.0,0.0,0.0,0.0,0.0,0.0,3.402,3.5319,0.0,0.0,0.0,0.0,0.0,0.0,0.0,0.0,0.0,0.0,0.0,0.0,0.0,4.3191,4.381,4.6412,4.7794,4.7965,5.0666,5.2331,5.289,5.2855,5.306,5.3488,5.2911,0.0,4.7463,4.7403,0.0,0.0,0.0,0.0,0.0,0.0,0.0,0.0,0.0,0.0,0.0,0.0,0.0,0.0,0.0,0.0,0.0,0.0,0.0,0.0,0.0,0.0,5.7731,6.2413,6.2768,6.2455,6.3981,5.9915,5.5142,5.2176,5.4341,5.5872,0.0,0.0,0.0,0.0,0.0,0.0,7.5628,8.2021,8.6064,8.6064,8.6064,8.4751,8.1495,8.2672,8.0913,7.4638,7.7993,7.6613,6.8611,6.8927,0.0,0.0,0.0,0.0,0.0,0.0,0.0,0.0,0.0,0.0,0.0,0.0,0.0,0.0,0.0,0.0,0.0,0.0,0.0,0.0,0.0,0.0,0.0,0.0,0.0,0.0,0.0,0.0,0.0,0.0,0.0,0.0,0.0,0.0,0.0,0.0,0.0,0.0,0.0,0.0,0.0,0.0,0.0,0.0,0.0,0.0,0.0,0.0,0.0,0.0,4.4042,4.4875,4.5868,4.5426,4.6891,4.955,4.6009,4.4862,4.5262,4.1395,0.0,0.0,0.0,0.0,0.0,0.0,0.0,0.0,0.0,0.0,0.0,0.0,0.0,0.0,0.0,0.0,0.0,0.0,0.0,0.0,0.0,0.0,5.3004,5.1379,5.6139,5.8931,5.1239,0.0,0.0,0.0,0.0,0.0,0.0,0.0,0.0,0.0,0.0,0.0,6.5066,7.3196,7.8623,7.8623,7.8623,7.7932,7.6088,7.6246,7.5169,7.2252,6.9823,6.7558,0.0,0.0,0.0,0.0,0.0,0.0,0.0,0.0,0.0,0.0,0.0,0.0,0.0,0.0,0.0,0.0,0.0,0.0,0.0,0.0,0.0,0.0,0.0,0.0,0.0,0.0,0.0,0.0,0.0,0.0,0.0,0.0,0.0,0.0,0.0,0.0,0.0,0.0,0.0,0.0,0.0,0.0,0.0,0.0,0.0,0.0,0.0,0.0,0.0,0.0,0.0,0.0,0.0,0.0,0.0,0.0,0.0,0.0,4.1596,3.9236,0.0,0.0,0.0,0.0,0.0,0.0,0.0,0.0,0.0,0.0,0.0,0.0,0.0,0.0,0.0,0.0,0.0,0.0,0.0,0.0,0.0,0.0,0.0,0.0,0.0,0.0,0.0,0.0,0.0,0.0,0.0,0.0,0.0,0.0,0.0,0.0,0.0,0.0,0.0,0.0,6.0329,6.8791,7.456,7.456,7.456,7.3506,7.0919,7.1767,6.986,6.3933,6.4079,0.0,0.0,0.0,0.0,0.0,0.0,0.0,0.0,0.0,0.0,0.0,0.0,0.0,0.0,0.0,0.0,0.0,0.0,0.0,0.0,0.0,0.0,0.0,0.0,0.0,0.0,0.0,0.0,0.0,0.0,0.0,0.0,0.0,0.0,0.0,0.0,0.0,0.0,0.0,0.0,0.0,0.0,0.0,0.0,0.0,0.0,0.0,0.0,0.0,0.0,0.0,0.0,0.0,0.0,0.0,0.0,0.0,0.0,0.0,3.7205,3.4053,0.0,0.0,0.0,0.0,0.0,0.0,0.0,0.0,0.0,0.0,0.0,0.0,0.0,0.0,0.0,0.0,0.0,0.0,0.0,0.0,0.0,0.0,0.0,0.0,0.0,0.0,0.0,0.0,0.0,0.0,0.0,0.0,0.0,0.0,0.0,0.0,0.0,0.0,0.0,0.0,5.7141,6.4748,7.0067,7.0189,7.0221,6.8955,6.5769,6.7129,6.45,5.5927,5.8306,0.0,0.0,0.0,0.0,0.0,0.0,0.0,0.0,0.0,0.0,0.0,0.0,0.0,0.0,0.0,0.0,0.0,0.0,0.0,0.0,0.0,0.0,0.0,0.0,0.0,0.0,0.0,0.0,0.0,0.0,0.0,0.0,0.0,0.0,0.0,0.0,0.0,0.0,0.0,0.0,0.0,0.0,0.0,0.0,0.0,0.0,0.0,0.0,0.0,0.0,0.0,0.0,0.0,0.0,0.0,0.0,0.0,0.0,0.0,0.0,0.0,0.0,0.0,0.0,0.0,0.0,0.0,0.0,0.0,0.0,0.0,0.0,0.0,0.0,0.0,0.0,0.0,0.0,0.0,0.0,0.0,0.0,0.0,0.0,0.0,0.0,0.0,0.0,0.0,0.0,0.0,0.0,0.0,0.0,0.0,0.0,0.0,0.0,0.0,0.0,0.0,5.2752,5.8242,6.2116,6.2764,6.2822,6.2194,6.0675,6.0729,5.8558,5.3177,0.0,0.0,0.0,0.0,0.0,0.0,0.0,0.0,0.0,0.0,0.0,0.0,0.0,0.0,0.0,0.0,0.0,0.0,0.0,0.0,0.0,0.0,0.0,0.0,0.0,0.0,0.0,0.0,0.0,0.0,0.0,0.0,0.0,0.0,0.0,0.0,0.0,0.0,0.0,0.0,0.0,0.0,0.0,0.0,0.0,0.0,0.0,0.0,0.0,0.0,0.0,0.0,0.0,0.0,0.0,0.0,0.0,0.0,0.0,0.0,0.0,0.0,0.0,0.0,0.0,0.0,0.0,0.0,0.0,0.0,0.0,0.0,0.0,0.0,0.0,0.0,0.0,0.0,0.0,0.0,0.0,0.0,0.0,0.0,0.0,0.0,0.0,0.0,0.0,0.0,0.0,0.0,0.0,0.0,0.0,0.0,0.0,0.0,0.0,0.0,0.0,0.0,5.0546,5.5694,5.9318,5.9574,5.9574,5.9375,5.8863,5.8083,5.5523,5.0585,0.0,0.0,0.0,0.0,0.0,0.0,0.0,0.0,0.0,0.0,0.0,0.0,0.0,0.0,0.0,0.0,0.0,0.0,0.0,0.0,0.0,0.0,0.0,0.0,0.0,0.0,0.0,0.0,0.0,0.0,0.0,0.0,0.0,0.0,0.0,0.0,0.0,0.0,0.0,0.0,0.0,0.0,0.0,0.0,0.0,0.0,0.0,0.0,0.0,0.0,0.0,0.0,0.0,0.0,0.0,0.0,0.0,0.0,0.0,0.0,0.0,0.0,0.0,0.0,0.0,0.0,0.0,0.0,0.0,0.0,0.0,0.0,0.0,0.0,0.0,0.0,0.0,0.0,0.0,0.0,0.0,0.0,0.0,0.0,0.0,0.0,0.0,0.0,0.0,0.0,0.0,0.0,0.0,0.0,0.0,0.0,0.0,0.0,0.0,0.0,0.0,0.0,4.9341,5.4243,5.7706,5.8076,5.8133,5.7991,5.7553,5.6699,5.3825,4.8278,0.0,0.0,0.0,0.0,0.0,0.0,0.0,0.0,0.0,0.0,0.0,0.0,0.0,0.0,0.0,0.0,0.0,0.0,0.0,0.0,0.0,0.0,0.0,0.0,0.0,0.0,0.0,0.0,0.0,0.0,0.0,0.0,0.0,0.0,0.0,0.0,0.0,0.0,0.0,0.0,0.0,0.0,0.0,0.0,0.0,0.0,0.0,0.0,0.0,0.0,0.0,0.0,0.0,0.0,0.0,0.0,0.0,0.0,0.0,0.0,0.0,0.0,0.0,0.0,0.0,0.0,0.0,0.0,0.0,0.0,0.0,0.0,0.0,0.0,0.0,0.0,0.0,0.0,0.0,0.0,0.0,0.0,0.0,0.0,0.0,0.0,0.0,0.0,0.0,0.0,0.0,0.0,0.0,0.0,0.0,0.0,0.0,0.0,0.0,0.0,0.0,0.0,4.9161,5.3447,5.6699,5.7991,5.8133,5.7582,5.6329,5.6178,5.3255,0.0,0.0,0.0,0.0,0.0,0.0,0.0,0.0,0.0,0.0,0.0,0.0,0.0,0.0,0.0,0.0,0.0,0.0,0.0,0.0,0.0,0.0,0.0,0.0,0.0,0.0,0.0,0.0,0.0,0.0,0.0,0.0,0.0,0.0,0.0,0.0,0.0,0.0,0.0,0.0,0.0,0.0,0.0,0.0,0.0,0.0,0.0,0.0,0.0,0.0,0.0,0.0,0.0,0.0,0.0,0.0,0.0,0.0,0.0,0.0,0.0,0.0,0.0,0.0,0.0,0.0,0.0,0.0,0.0,0.0,0.0,0.0,0.0,0.0,0.0,0.0,0.0,0.0,0.0,0.0,0.0,0.0,0.0,0.0,0.0,0.0,0.0,0.0,0.0,0.0,0.0,0.0,0.0,0.0,0.0,0.0,0.0,0.0,0.0,0.0,0.0,0.0,0.0,4.6724,5.0184,5.3139,5.525,5.5457,5.5315,5.4917,5.4528,5.1918,4.6222,0.0,0.0,0.0,0.0,0.0,0.0,0.0,0.0,0.0,0.0,0.0,0.0,0.0,0.0,0.0,0.0,0.0,0.0,0.0,0.0,0.0,0.0,0.0,0.0,0.0,0.0,0.0,0.0,0.0,0.0,0.0,0.0,0.0,0.0,0.0,0.0,0.0,0.0,0.0,0.0,0.0,0.0,0.0,0.0,0.0,0.0,0.0,0.0,0.0,0.0,0.0,0.0,0.0,0.0,0.0,0.0,0.0,0.0,0.0,0.0,0.0,0.0,0.0,0.0,0.0,0.0,0.0,0.0,0.0,0.0,0.0,0.0,0.0,0.0,0.0,0.0,0.0,0.0,0.0,0.0,0.0,0.0,0.0,0.0,0.0,0.0,0.0,0.0,0.0,0.0,0.0,0.0,0.0,0.0,0.0,0.0,0.0,0.0,0.0,0.0,0.0,0.0,0.0,4.8624,5.148,5.3271,5.3705,5.3767,5.3513,5.3473,5.1177,4.5852,0.0,0.0,0.0,0.0,0.0,0.0,0.0,0.0,0.0,0.0,0.0,0.0,0.0,0.0,0.0,0.0,0.0,0.0,0.0,0.0,0.0,0.0,0.0,0.0,0.0,0.0,0.0,0.0,0.0,0.0,0.0,0.0,0.0,0.0,0.0,0.0,0.0,0.0,0.0,0.0,0.0,0.0,0.0,0.0,0.0,0.0,0.0,0.0,0.0,0.0,0.0,0.0,0.0,0.0,0.0,0.0,0.0,0.0,0.0,0.0,0.0,0.0,0.0,0.0,0.0,0.0,0.0,0.0,0.0,0.0,0.0,0.0,0.0,0.0,0.0,0.0,0.0,0.0,0.0,0.0,0.0,0.0,0.0,0.0,0.0,0.0,0.0,0.0,0.0,0.0,0.0,0.0,0.0,0.0,0.0,0.0,0.0,0.0,0.0,0.0,0.0,0.0,0.0,4.8327,5.1085,5.1903,5.261,5.2828,5.2279,5.2873,5.0853,4.5253,4.4855,0.0,0.0,0.0,0.0,0.0,0.0,0.0,0.0,0.0,0.0,0.0,0.0,0.0,0.0,0.0,0.0,0.0,0.0,0.0,0.0,0.0,0.0,0.0,0.0,0.0,0.0,0.0,0.0,0.0,0.0,0.0,0.0,0.0,0.0,0.0,0.0,0.0,0.0,0.0,0.0,0.0,0.0,0.0,0.0,0.0,0.0,0.0,0.0,0.0,0.0,0.0,0.0,0.0,0.0,0.0,0.0,0.0,0.0,0.0,0.0,0.0,0.0,0.0,0.0,0.0,0.0,0.0,0.0,0.0,0.0,0.0,0.0,0.0,0.0,0.0,0.0,0.0,0.0,0.0,0.0,0.0,0.0,0.0,0.0,0.0,0.0,0.0,0.0,0.0,0.0,0.0,0.0,0.0,0.0,0.0,0.0,0.0,0.0,0.0,0.0,0.0,0.0,4.6393,4.8342,5.036,5.0801,5.1069,5.1503,5.1271,4.9341,4.5165,4.4429,0.0,0.0,0.0,0.0,0.0,0.0,0.0,0.0,0.0,0.0,0.0,0.0,0.0,0.0,0.0,0.0,0.0,0.0,0.0,0.0,0.0,0.0,0.0,0.0,0.0,0.0,0.0,0.0,0.0,0.0,0.0,0.0,0.0,0.0,0.0,0.0,0.0,0.0,0.0,0.0,0.0,0.0,0.0,0.0,0.0,0.0,0.0,0.0,0.0,0.0,0.0,0.0,0.0,0.0,0.0,0.0,0.0,0.0,0.0,0.0,0.0,0.0,0.0,0.0,0.0,0.0,0.0,0.0,0.0,0.0,0.0,0.0,0.0,0.0,0.0,0.0,0.0,0.0,0.0,0.0,0.0,0.0,0.0,0.0,0.0,0.0,0.0,0.0,0.0,0.0,0.0,0.0,0.0,0.0,0.0,0.0,0.0,0.0,0.0,0.0,0.0,0.0,4.2385,4.5021,4.8698,4.9401,4.9686,4.9876,5.018,4.8456,4.3952,4.3265,0.0,0.0,0.0,0.0,0.0,0.0,0.0,0.0,0.0,0.0,0.0,0.0,0.0,0.0,0.0,0.0,0.0,0.0,0.0,0.0,0.0,0.0,0.0,0.0,0.0,0.0,0.0,0.0,0.0,0.0,0.0,0.0,0.0,0.0,0.0,0.0,0.0,0.0,0.0,0.0,0.0,0.0,0.0,0.0,0.0,0.0,0.0,0.0,0.0,0.0,0.0,0.0,0.0,0.0,0.0,0.0,0.0,0.0,0.0,0.0,0.0,0.0,0.0,0.0,0.0,0.0,0.0,0.0,0.0,0.0,0.0,0.0,0.0,0.0,0.0,0.0,0.0,0.0,0.0,0.0,0.0,0.0,0.0,0.0,0.0,0.0,0.0,0.0,0.0,0.0,0.0,0.0,0.0,0.0,0.0,0.0,0.0,0.0,0.0,0.0,0.0,0.0,0.0,4.2259,4.6841,4.8138,4.8547,4.8254,4.9159,4.7622,4.2606,0.0,0.0,0.0,0.0,0.0,0.0,0.0,0.0,0.0,0.0,0.0,0.0,0.0,0.0,0.0,0.0,0.0,0.0,0.0,0.0,0.0,0.0,0.0,0.0,0.0,0.0,0.0,0.0,0.0,0.0,0.0,0.0,0.0,0.0,0.0,0.0,0.0,0.0,0.0,0.0,0.0,0.0,0.0,0.0,0.0,0.0,0.0,0.0,0.0,0.0,0.0,0.0,0.0,0.0,0.0,0.0,0.0,0.0,0.0,0.0,0.0,0.0,0.0,0.0,0.0,0.0,0.0,0.0,0.0,0.0,0.0,0.0,0.0,0.0,0.0,0.0,0.0,0.0,0.0,0.0,0.0,0.0,0.0,0.0,0.0,0.0,0.0,0.0,0.0,0.0,0.0,0.0,0.0,0.0,0.0,0.0,0.0,0.0,0.0,0.0,0.0,0.0,0.0,0.0,4.2582,4.4813,4.6443,4.7594,4.8131,4.7502,4.5861,4.3029,0.0,0.0,0.0,0.0,0.0,0.0,0.0,0.0,0.0,0.0,0.0,0.0,0.0,0.0]}]]]